Wetterdaten: Freitag, 19.05.2017
Datum Zeit Temp. A. Pool Temp. Feuchte A. Luftdruck Regen Wind Richtung Richtung Sonnenschein ET UV Solar Taupunkt Windchill Windben Empfang
19.05.2017 00:00 18,0 C 22,8 C 73 % 1008,2 hPa 0,0 l/m 5,5 km/h (1 Bft) NO 51 0 min 0,000 mm 0,0 UV-I 0 W/m 13,1 C 18,0 C 6,4 km/h (2 Bft) 89,36 %
19.05.2017 00:02 18,0 C 22,8 C 73 % 1008,2 hPa 0,0 l/m 6,0 km/h (2 Bft) NO 49 0 min 0,000 mm 0,0 UV-I 0 W/m 13,1 C 18,0 C 8,0 km/h (2 Bft) 88,57 %
19.05.2017 00:04 18,0 C 22,8 C 73 % 1008,2 hPa 0,0 l/m 6,2 km/h (2 Bft) NO 49 0 min 0,000 mm 0,0 UV-I 0 W/m 13,1 C 18,0 C 8,0 km/h (2 Bft) 98,00 %
19.05.2017 00:06 18,0 C 22,8 C 73 % 1008,2 hPa 0,0 l/m 5,7 km/h (1 Bft) NO 48 0 min 0,000 mm 0,0 UV-I 0 W/m 13,1 C 18,0 C 8,0 km/h (2 Bft) 96,23 %
19.05.2017 00:08 17,9 C 22,8 C 73 % 1008,1 hPa 0,0 l/m 6,1 km/h (2 Bft) NO 53 0 min 0,000 mm 0,0 UV-I 0 W/m 13,0 C 17,9 C 8,0 km/h (2 Bft) 89,74 %
19.05.2017 00:10 18,0 C 22,8 C 73 % 1008,2 hPa 0,0 l/m 6,6 km/h (2 Bft) O-NO 63 0 min 0,000 mm 0,0 UV-I 0 W/m 13,1 C 17,9 C 9,7 km/h (2 Bft) 94,34 %
19.05.2017 00:12 17,9 C 22,8 C 72 % 1008,2 hPa 0,0 l/m 5,3 km/h (1 Bft) NO 44 0 min 0,000 mm 0,0 UV-I 0 W/m 12,8 C 17,9 C 8,0 km/h (2 Bft) 94,00 %
19.05.2017 00:14 18,1 C 22,8 C 72 % 1008,2 hPa 0,0 l/m 6,2 km/h (2 Bft) O-NO 57 0 min 0,000 mm 0,0 UV-I 0 W/m 13,0 C 18,1 C 8,0 km/h (2 Bft) 100,00 %
19.05.2017 00:16 18,1 C 22,8 C 72 % 1008,1 hPa 0,0 l/m 7,0 km/h (2 Bft) NO 46 0 min 0,000 mm 0,0 UV-I 0 W/m 13,0 C 17,8 C 8,0 km/h (2 Bft) 98,00 %
19.05.2017 00:18 18,1 C 22,8 C 72 % 1008,1 hPa 0,0 l/m 6,2 km/h (2 Bft) NO 53 0 min 0,000 mm 0,0 UV-I 0 W/m 13,0 C 18,1 C 8,0 km/h (2 Bft) 98,00 %
19.05.2017 00:20 18,1 C 22,8 C 72 % 1008,2 hPa 0,0 l/m 6,9 km/h (2 Bft) NO 54 0 min 0,000 mm 0,0 UV-I 0 W/m 13,0 C 17,9 C 9,7 km/h (2 Bft) 100,00 %
19.05.2017 00:22 18,2 C 22,8 C 71 % 1008,2 hPa 0,0 l/m 6,9 km/h (2 Bft) O-NO 59 0 min 0,000 mm 0,0 UV-I 0 W/m 12,9 C 18,0 C 9,7 km/h (2 Bft) 97,56 %
19.05.2017 00:24 18,2 C 22,8 C 72 % 1008,1 hPa 0,0 l/m 6,4 km/h (2 Bft) O-NO 61 0 min 0,000 mm 0,0 UV-I 0 W/m 13,1 C 18,2 C 8,0 km/h (2 Bft) 100,00 %
19.05.2017 00:26 18,2 C 22,8 C 72 % 1008,1 hPa 0,0 l/m 5,8 km/h (2 Bft) NO 47 0 min 0,000 mm 0,0 UV-I 0 W/m 13,1 C 18,2 C 8,0 km/h (2 Bft) 100,00 %
19.05.2017 00:28 18,1 C 22,8 C 72 % 1008,2 hPa 0,0 l/m 6,2 km/h (2 Bft) NO 45 0 min 0,000 mm 0,0 UV-I 0 W/m 13,0 C 18,1 C 9,7 km/h (2 Bft) 98,00 %
19.05.2017 00:30 17,9 C 22,8 C 72 % 1008,1 hPa 0,0 l/m 6,8 km/h (2 Bft) O-NO 59 0 min 0,000 mm 0,0 UV-I 0 W/m 12,8 C 17,7 C 8,0 km/h (2 Bft) 97,44 %
19.05.2017 00:32 17,9 C 22,8 C 72 % 1008,2 hPa 0,0 l/m 8,0 km/h (2 Bft) O-NO 67 0 min 0,000 mm 0,0 UV-I 0 W/m 12,8 C 17,1 C 9,7 km/h (2 Bft) 96,23 %
19.05.2017 00:34 18,0 C 22,8 C 72 % 1008,1 hPa 0,0 l/m 8,1 km/h (2 Bft) NO 53 0 min 0,000 mm 0,0 UV-I 0 W/m 12,9 C 17,2 C 9,7 km/h (2 Bft) 98,11 %
19.05.2017 00:36 18,0 C 22,8 C 72 % 1008,1 hPa 0,0 l/m 7,3 km/h (2 Bft) O-NO 62 0 min 0,000 mm 0,0 UV-I 0 W/m 12,9 C 17,6 C 9,7 km/h (2 Bft) 100,00 %
19.05.2017 00:38 18,0 C 22,8 C 72 % 1008,0 hPa 0,0 l/m 8,4 km/h (2 Bft) O-NO 61 0 min 0,000 mm 0,0 UV-I 0 W/m 12,9 C 17,1 C 12,9 km/h (3 Bft) 97,73 %
19.05.2017 00:40 18,0 C 22,8 C 72 % 1008,0 hPa 0,0 l/m 10,1 km/h (2 Bft) O-NO 63 0 min 0,000 mm 0,0 UV-I 0 W/m 12,9 C 16,4 C 14,5 km/h (3 Bft) 100,00 %
19.05.2017 00:42 17,9 C 22,8 C 72 % 1008,0 hPa 0,0 l/m 10,8 km/h (2 Bft) NO 56 0 min 0,000 mm 0,0 UV-I 0 W/m 12,8 C 16,0 C 14,5 km/h (3 Bft) 97,37 %
19.05.2017 00:44 18,0 C 22,8 C 72 % 1008,0 hPa 0,0 l/m 10,6 km/h (2 Bft) O-NO 66 0 min 0,000 mm 0,0 UV-I 0 W/m 12,9 C 16,2 C 14,5 km/h (3 Bft) 98,21 %
19.05.2017 00:46 17,9 C 22,8 C 72 % 1007,9 hPa 0,0 l/m 9,0 km/h (2 Bft) NO 55 0 min 0,000 mm 0,0 UV-I 0 W/m 12,8 C 16,7 C 14,5 km/h (3 Bft) 98,00 %
19.05.2017 00:48 17,9 C 22,8 C 72 % 1008,0 hPa 0,0 l/m 9,2 km/h (2 Bft) O-NO 67 0 min 0,000 mm 0,0 UV-I 0 W/m 12,8 C 16,6 C 12,9 km/h (3 Bft) 100,00 %
19.05.2017 00:50 17,9 C 22,8 C 72 % 1007,9 hPa 0,0 l/m 8,2 km/h (2 Bft) O-NO 67 0 min 0,000 mm 0,0 UV-I 0 W/m 12,8 C 17,1 C 11,3 km/h (2 Bft) 95,12 %
19.05.2017 00:52 17,9 C 22,8 C 72 % 1007,9 hPa 0,0 l/m 7,1 km/h (2 Bft) O-NO 64 0 min 0,000 mm 0,0 UV-I 0 W/m 12,8 C 17,6 C 9,7 km/h (2 Bft) 97,73 %
19.05.2017 00:54 17,8 C 22,8 C 72 % 1007,9 hPa 0,0 l/m 6,4 km/h (2 Bft) O-NO 57 0 min 0,000 mm 0,0 UV-I 0 W/m 12,7 C 17,8 C 8,0 km/h (2 Bft) 98,11 %
19.05.2017 00:56 17,8 C 22,8 C 72 % 1007,9 hPa 0,0 l/m 6,3 km/h (2 Bft) O-NO 57 0 min 0,000 mm 0,0 UV-I 0 W/m 12,7 C 17,8 C 8,0 km/h (2 Bft) 100,00 %
19.05.2017 00:58 17,8 C 22,8 C 72 % 1007,9 hPa 0,0 l/m 7,4 km/h (2 Bft) O-NO 66 0 min 0,000 mm 0,0 UV-I 0 W/m 12,7 C 17,3 C 9,7 km/h (2 Bft) 97,87 %
19.05.2017 01:00 17,7 C 22,8 C 73 % 1007,9 hPa 0,0 l/m 6,9 km/h (2 Bft) NO 48 0 min 0,000 mm 0,0 UV-I 0 W/m 12,8 C 17,5 C 9,7 km/h (2 Bft) 100,00 %
19.05.2017 01:02 17,7 C 22,8 C 72 % 1007,8 hPa 0,0 l/m 6,9 km/h (2 Bft) O-NO 57 0 min 0,025 mm 0,0 UV-I 0 W/m 12,6 C 17,5 C 9,7 km/h (2 Bft) 97,73 %
19.05.2017 01:04 17,7 C 22,8 C 73 % 1007,8 hPa 0,0 l/m 7,6 km/h (2 Bft) O-NO 61 0 min 0,000 mm 0,0 UV-I 0 W/m 12,8 C 17,1 C 9,7 km/h (2 Bft) 97,62 %
19.05.2017 01:06 17,7 C 22,8 C 73 % 1007,8 hPa 0,0 l/m 6,9 km/h (2 Bft) O-NO 63 0 min 0,000 mm 0,0 UV-I 0 W/m 12,8 C 17,5 C 8,0 km/h (2 Bft) 100,00 %
19.05.2017 01:08 17,6 C 22,8 C 73 % 1007,8 hPa 0,0 l/m 6,8 km/h (2 Bft) O-NO 61 0 min 0,000 mm 0,0 UV-I 0 W/m 12,7 C 17,4 C 8,0 km/h (2 Bft) 96,15 %
19.05.2017 01:10 17,6 C 22,8 C 73 % 1007,8 hPa 0,0 l/m 5,5 km/h (1 Bft) O-NO 58 0 min 0,000 mm 0,0 UV-I 0 W/m 12,7 C 17,6 C 6,4 km/h (2 Bft) 100,00 %
19.05.2017 01:12 17,5 C 22,8 C 73 % 1007,8 hPa 0,0 l/m 5,4 km/h (1 Bft) O-NO 65 0 min 0,000 mm 0,0 UV-I 0 W/m 12,6 C 17,5 C 8,0 km/h (2 Bft) 95,74 %
19.05.2017 01:14 17,4 C 22,8 C 73 % 1007,8 hPa 0,0 l/m 7,2 km/h (2 Bft) O-NO 62 0 min 0,000 mm 0,0 UV-I 0 W/m 12,5 C 17,0 C 9,7 km/h (2 Bft) 100,00 %
19.05.2017 01:16 17,4 C 22,8 C 73 % 1007,8 hPa 0,0 l/m 6,8 km/h (2 Bft) NO 51 0 min 0,000 mm 0,0 UV-I 0 W/m 12,5 C 17,2 C 9,7 km/h (2 Bft) 100,00 %
19.05.2017 01:18 17,4 C 22,8 C 73 % 1007,7 hPa 0,0 l/m 7,8 km/h (2 Bft) O-NO 60 0 min 0,000 mm 0,0 UV-I 0 W/m 12,5 C 16,7 C 11,3 km/h (2 Bft) 98,11 %
19.05.2017 01:20 17,4 C 22,8 C 74 % 1007,7 hPa 0,0 l/m 6,9 km/h (2 Bft) NO 51 0 min 0,000 mm 0,0 UV-I 0 W/m 12,7 C 17,2 C 9,7 km/h (2 Bft) 100,00 %
19.05.2017 01:22 17,4 C 22,8 C 74 % 1007,7 hPa 0,0 l/m 7,6 km/h (2 Bft) O-NO 63 0 min 0,000 mm 0,0 UV-I 0 W/m 12,7 C 16,8 C 9,7 km/h (2 Bft) 97,56 %
19.05.2017 01:24 17,4 C 22,8 C 74 % 1007,7 hPa 0,0 l/m 7,9 km/h (2 Bft) O-NO 59 0 min 0,000 mm 0,0 UV-I 0 W/m 12,7 C 16,7 C 9,7 km/h (2 Bft) 98,21 %
19.05.2017 01:26 17,3 C 22,8 C 74 % 1007,7 hPa 0,0 l/m 7,7 km/h (2 Bft) NO 51 0 min 0,000 mm 0,0 UV-I 0 W/m 12,6 C 16,7 C 9,7 km/h (2 Bft) 97,87 %
19.05.2017 01:28 17,3 C 22,8 C 74 % 1007,7 hPa 0,0 l/m 6,6 km/h (2 Bft) O-NO 63 0 min 0,000 mm 0,0 UV-I 0 W/m 12,6 C 17,2 C 9,7 km/h (2 Bft) 100,00 %
19.05.2017 01:30 17,3 C 22,8 C 74 % 1007,7 hPa 0,0 l/m 6,0 km/h (2 Bft) O-NO 61 0 min 0,000 mm 0,0 UV-I 0 W/m 12,6 C 17,3 C 8,0 km/h (2 Bft) 96,23 %
19.05.2017 01:32 17,3 C 22,8 C 74 % 1007,7 hPa 0,0 l/m 6,3 km/h (2 Bft) O-NO 63 0 min 0,000 mm 0,0 UV-I 0 W/m 12,6 C 17,3 C 9,7 km/h (2 Bft) 97,87 %
19.05.2017 01:34 17,2 C 22,8 C 74 % 1007,7 hPa 0,0 l/m 4,9 km/h (1 Bft) O-NO 64 0 min 0,000 mm 0,0 UV-I 0 W/m 12,5 C 17,2 C 8,0 km/h (2 Bft) 96,23 %
19.05.2017 01:36 17,1 C 22,8 C 74 % 1007,6 hPa 0,0 l/m 5,8 km/h (2 Bft) O-NO 65 0 min 0,000 mm 0,0 UV-I 0 W/m 12,4 C 17,1 C 8,0 km/h (2 Bft) 97,37 %
19.05.2017 01:38 17,1 C 22,8 C 75 % 1007,7 hPa 0,0 l/m 5,7 km/h (1 Bft) O-NO 65 0 min 0,000 mm 0,0 UV-I 0 W/m 12,6 C 17,1 C 8,0 km/h (2 Bft) 96,43 %
19.05.2017 01:40 17,0 C 22,8 C 75 % 1007,7 hPa 0,0 l/m 5,2 km/h (1 Bft) O-NO 61 0 min 0,000 mm 0,0 UV-I 0 W/m 12,5 C 17,0 C 8,0 km/h (2 Bft) 94,74 %
19.05.2017 01:42 17,0 C 22,8 C 75 % 1007,7 hPa 0,0 l/m 5,1 km/h (1 Bft) O-NO 61 0 min 0,000 mm 0,0 UV-I 0 W/m 12,5 C 17,0 C 6,4 km/h (2 Bft) 97,87 %
19.05.2017 01:44 17,0 C 22,8 C 75 % 1007,7 hPa 0,0 l/m 4,0 km/h (1 Bft) O-NO 57 0 min 0,000 mm 0,0 UV-I 0 W/m 12,5 C 17,0 C 8,0 km/h (2 Bft) 94,00 %
19.05.2017 01:46 16,9 C 22,8 C 75 % 1007,7 hPa 0,0 l/m 5,5 km/h (1 Bft) O-NO 63 0 min 0,000 mm 0,0 UV-I 0 W/m 12,4 C 16,9 C 6,4 km/h (2 Bft) 98,11 %
19.05.2017 01:48 16,9 C 22,8 C 75 % 1007,7 hPa 0,0 l/m 4,1 km/h (1 Bft) O-NO 62 0 min 0,000 mm 0,0 UV-I 0 W/m 12,4 C 16,9 C 6,4 km/h (2 Bft) 94,87 %
19.05.2017 01:50 16,8 C 22,8 C 75 % 1007,6 hPa 0,0 l/m 4,9 km/h (1 Bft) O-NO 61 0 min 0,000 mm 0,0 UV-I 0 W/m 12,3 C 16,8 C 6,4 km/h (2 Bft) 95,45 %
19.05.2017 01:52 16,7 C 22,8 C 76 % 1007,6 hPa 0,0 l/m 5,5 km/h (1 Bft) O-NO 61 0 min 0,000 mm 0,0 UV-I 0 W/m 12,4 C 16,7 C 8,0 km/h (2 Bft) 98,00 %
19.05.2017 01:54 16,6 C 22,8 C 76 % 1007,7 hPa 0,0 l/m 5,1 km/h (1 Bft) NO 46 0 min 0,000 mm 0,0 UV-I 0 W/m 12,3 C 16,6 C 8,0 km/h (2 Bft) 96,00 %
19.05.2017 01:56 16,6 C 22,8 C 76 % 1007,6 hPa 0,0 l/m 4,0 km/h (1 Bft) NO 55 0 min 0,000 mm 0,0 UV-I 0 W/m 12,3 C 16,6 C 6,4 km/h (2 Bft) 97,56 %
19.05.2017 01:58 16,4 C 22,8 C 76 % 1007,6 hPa 0,0 l/m 5,2 km/h (1 Bft) NO 54 0 min 0,000 mm 0,0 UV-I 0 W/m 12,2 C 16,4 C 6,4 km/h (2 Bft) 96,00 %
19.05.2017 02:00 16,5 C 22,8 C 76 % 1007,6 hPa 0,0 l/m 6,8 km/h (2 Bft) NO 54 0 min 0,026 mm 0,0 UV-I 0 W/m 12,3 C 16,3 C 8,0 km/h (2 Bft) 95,12 %
19.05.2017 02:02 16,5 C 22,8 C 76 % 1007,6 hPa 0,0 l/m 6,6 km/h (2 Bft) NO 53 0 min 0,000 mm 0,0 UV-I 0 W/m 12,3 C 16,4 C 9,7 km/h (2 Bft) 96,43 %
19.05.2017 02:04 16,5 C 22,8 C 76 % 1007,5 hPa 0,0 l/m 4,9 km/h (1 Bft) NO 51 0 min 0,000 mm 0,0 UV-I 0 W/m 12,3 C 16,5 C 8,0 km/h (2 Bft) 100,00 %
19.05.2017 02:06 16,6 C 22,8 C 76 % 1007,5 hPa 0,0 l/m 5,3 km/h (1 Bft) O-NO 63 0 min 0,000 mm 0,0 UV-I 0 W/m 12,3 C 16,6 C 8,0 km/h (2 Bft) 100,00 %
19.05.2017 02:08 16,6 C 22,8 C 76 % 1007,5 hPa 0,0 l/m 6,1 km/h (2 Bft) O-NO 67 0 min 0,000 mm 0,0 UV-I 0 W/m 12,3 C 16,6 C 8,0 km/h (2 Bft) 100,00 %
19.05.2017 02:10 16,6 C 22,8 C 76 % 1007,5 hPa 0,0 l/m 5,4 km/h (1 Bft) O-NO 59 0 min 0,000 mm 0,0 UV-I 0 W/m 12,3 C 16,6 C 8,0 km/h (2 Bft) 95,74 %
19.05.2017 02:12 16,5 C 22,8 C 76 % 1007,5 hPa 0,0 l/m 4,7 km/h (1 Bft) O-NO 59 0 min 0,000 mm 0,0 UV-I 0 W/m 12,3 C 16,5 C 6,4 km/h (2 Bft) 100,00 %
19.05.2017 02:14 16,4 C 22,8 C 76 % 1007,6 hPa 0,0 l/m 4,1 km/h (1 Bft) O-NO 59 0 min 0,000 mm 0,0 UV-I 0 W/m 12,2 C 16,4 C 6,4 km/h (2 Bft) 96,23 %
19.05.2017 02:16 16,3 C 22,8 C 76 % 1007,5 hPa 0,0 l/m 3,5 km/h (1 Bft) O-NO 59 0 min 0,000 mm 0,0 UV-I 0 W/m 12,1 C 16,3 C 4,8 km/h (1 Bft) 97,37 %
19.05.2017 02:18 16,3 C 22,8 C 77 % 1007,5 hPa 0,0 l/m 3,9 km/h (1 Bft) O-NO 59 0 min 0,000 mm 0,0 UV-I 0 W/m 12,3 C 16,3 C 4,8 km/h (1 Bft) 98,00 %
19.05.2017 02:20 16,1 C 22,8 C 77 % 1007,5 hPa 0,0 l/m 3,8 km/h (1 Bft) O-NO 59 0 min 0,000 mm 0,0 UV-I 0 W/m 12,1 C 16,1 C 6,4 km/h (2 Bft) 98,00 %
19.05.2017 02:22 16,1 C 22,8 C 78 % 1007,5 hPa 0,0 l/m 3,5 km/h (1 Bft) O-NO 59 0 min 0,000 mm 0,0 UV-I 0 W/m 12,3 C 16,1 C 4,8 km/h (1 Bft) 100,00 %
19.05.2017 02:24 16,1 C 22,8 C 78 % 1007,6 hPa 0,0 l/m 3,1 km/h (1 Bft) O-NO 57 0 min 0,000 mm 0,0 UV-I 0 W/m 12,3 C 16,1 C 4,8 km/h (1 Bft) 100,00 %
19.05.2017 02:26 16,1 C 22,8 C 77 % 1007,5 hPa 0,0 l/m 2,4 km/h (1 Bft) O-NO 57 0 min 0,000 mm 0,0 UV-I 0 W/m 12,1 C 16,1 C 4,8 km/h (1 Bft) 100,00 %
19.05.2017 02:28 16,1 C 22,8 C 77 % 1007,5 hPa 0,0 l/m 3,3 km/h (1 Bft) O-NO 57 0 min 0,000 mm 0,0 UV-I 0 W/m 12,1 C 16,1 C 4,8 km/h (1 Bft) 97,22 %
19.05.2017 02:30 16,1 C 22,8 C 77 % 1007,5 hPa 0,0 l/m 3,8 km/h (1 Bft) O-NO 57 0 min 0,000 mm 0,0 UV-I 0 W/m 12,1 C 16,1 C 4,8 km/h (1 Bft) 100,00 %
19.05.2017 02:32 16,1 C 22,8 C 77 % 1007,5 hPa 0,0 l/m 2,9 km/h (1 Bft) O-NO 57 0 min 0,000 mm 0,0 UV-I 0 W/m 12,1 C 16,1 C 4,8 km/h (1 Bft) 96,00 %
19.05.2017 02:34 16,1 C 22,8 C 77 % 1007,4 hPa 0,0 l/m 3,0 km/h (1 Bft) O-NO 57 0 min 0,000 mm 0,0 UV-I 0 W/m 12,1 C 16,1 C 4,8 km/h (1 Bft) 100,00 %
19.05.2017 02:36 16,0 C 22,8 C 78 % 1007,4 hPa 0,0 l/m 2,1 km/h (1 Bft) O-NO 57 0 min 0,000 mm 0,0 UV-I 0 W/m 12,2 C 16,0 C 3,2 km/h (1 Bft) 98,11 %
19.05.2017 02:38 15,9 C 22,8 C 78 % 1007,4 hPa 0,0 l/m 1,9 km/h (1 Bft) O-NO 57 0 min 0,000 mm 0,0 UV-I 0 W/m 12,1 C 15,9 C 3,2 km/h (1 Bft) 97,87 %
19.05.2017 02:40 15,9 C 22,8 C 78 % 1007,4 hPa 0,0 l/m 1,8 km/h (1 Bft) O-NO 57 0 min 0,000 mm 0,0 UV-I 0 W/m 12,1 C 15,9 C 3,2 km/h (1 Bft) 98,00 %
19.05.2017 02:42 15,9 C 22,8 C 78 % 1007,4 hPa 0,0 l/m 2,2 km/h (1 Bft) O-NO 57 0 min 0,000 mm 0,0 UV-I 0 W/m 12,1 C 15,9 C 4,8 km/h (1 Bft) 94,29 %
19.05.2017 02:44 15,8 C 22,8 C 78 % 1007,3 hPa 0,0 l/m 1,7 km/h (1 Bft) O-NO 57 0 min 0,000 mm 0,0 UV-I 0 W/m 12,0 C 15,8 C 3,2 km/h (1 Bft) 100,00 %
19.05.2017 02:46 15,8 C 22,8 C 78 % 1007,3 hPa 0,0 l/m 3,0 km/h (1 Bft) O-NO 57 0 min 0,000 mm 0,0 UV-I 0 W/m 12,0 C 15,8 C 4,8 km/h (1 Bft) 98,00 %
19.05.2017 02:48 15,7 C 22,8 C 78 % 1007,3 hPa 0,0 l/m 2,6 km/h (1 Bft) O-NO 57 0 min 0,000 mm 0,0 UV-I 0 W/m 11,9 C 15,7 C 3,2 km/h (1 Bft) 98,00 %
19.05.2017 02:50 15,7 C 22,8 C 78 % 1007,3 hPa 0,0 l/m 1,8 km/h (1 Bft) O-NO 57 0 min 0,000 mm 0,0 UV-I 0 W/m 11,9 C 15,7 C 3,2 km/h (1 Bft) 98,00 %
19.05.2017 02:52 15,7 C 22,8 C 78 % 1007,2 hPa 0,0 l/m 2,4 km/h (1 Bft) O-NO 57 0 min 0,000 mm 0,0 UV-I 0 W/m 11,9 C 15,7 C 4,8 km/h (1 Bft) 97,56 %
19.05.2017 02:54 15,7 C 22,8 C 78 % 1007,2 hPa 0,0 l/m 1,3 km/h (1 Bft) O-NO 57 0 min 0,000 mm 0,0 UV-I 0 W/m 11,9 C 15,7 C 3,2 km/h (1 Bft) 98,11 %
19.05.2017 02:56 15,7 C 22,8 C 78 % 1007,3 hPa 0,0 l/m 1,8 km/h (1 Bft) O-NO 57 0 min 0,000 mm 0,0 UV-I 0 W/m 11,9 C 15,7 C 3,2 km/h (1 Bft) 94,74 %
19.05.2017 02:58 15,6 C 22,8 C 79 % 1007,2 hPa 0,0 l/m 1,4 km/h (1 Bft) O-NO 57 0 min 0,000 mm 0,0 UV-I 0 W/m 12,0 C 15,6 C 3,2 km/h (1 Bft) 98,11 %
19.05.2017 03:00 15,4 C 22,8 C 79 % 1007,2 hPa 0,0 l/m 2,2 km/h (1 Bft) O-NO 57 0 min 0,025 mm 0,0 UV-I 0 W/m 11,8 C 15,4 C 4,8 km/h (1 Bft) 94,00 %
19.05.2017 03:02 15,3 C 22,8 C 80 % 1007,2 hPa 0,0 l/m 2,9 km/h (1 Bft) O-NO 57 0 min 0,000 mm 0,0 UV-I 0 W/m 11,9 C 15,3 C 4,8 km/h (1 Bft) 95,12 %
19.05.2017 03:04 15,3 C 22,8 C 80 % 1007,2 hPa 0,0 l/m 2,4 km/h (1 Bft) O-NO 57 0 min 0,000 mm 0,0 UV-I 0 W/m 11,9 C 15,3 C 3,2 km/h (1 Bft) 95,24 %
19.05.2017 03:06 15,4 C 22,8 C 80 % 1007,2 hPa 0,0 l/m 3,4 km/h (1 Bft) O-NO 57 0 min 0,000 mm 0,0 UV-I 0 W/m 12,0 C 15,4 C 4,8 km/h (1 Bft) 96,00 %
19.05.2017 03:08 15,4 C 22,8 C 79 % 1007,2 hPa 0,0 l/m 3,1 km/h (1 Bft) O-NO 57 0 min 0,000 mm 0,0 UV-I 0 W/m 11,8 C 15,4 C 4,8 km/h (1 Bft) 94,55 %
19.05.2017 03:10 15,4 C 22,8 C 79 % 1007,2 hPa 0,0 l/m 3,0 km/h (1 Bft) O-NO 57 0 min 0,000 mm 0,0 UV-I 0 W/m 11,8 C 15,4 C 4,8 km/h (1 Bft) 97,22 %
19.05.2017 03:12 15,5 C 22,8 C 79 % 1007,2 hPa 0,0 l/m 3,9 km/h (1 Bft) O-NO 57 0 min 0,000 mm 0,0 UV-I 0 W/m 11,9 C 15,5 C 4,8 km/h (1 Bft) 95,74 %
19.05.2017 03:14 15,5 C 22,8 C 78 % 1007,1 hPa 0,0 l/m 3,2 km/h (1 Bft) O-NO 57 0 min 0,000 mm 0,0 UV-I 0 W/m 11,7 C 15,5 C 4,8 km/h (1 Bft) 97,87 %
19.05.2017 03:16 15,4 C 22,8 C 79 % 1007,1 hPa 0,0 l/m 2,9 km/h (1 Bft) O-NO 57 0 min 0,000 mm 0,0 UV-I 0 W/m 11,8 C 15,4 C 4,8 km/h (1 Bft) 96,23 %
19.05.2017 03:18 15,4 C 22,8 C 79 % 1007,1 hPa 0,0 l/m 1,5 km/h (1 Bft) O-NO 57 0 min 0,000 mm 0,0 UV-I 0 W/m 11,8 C 15,4 C 3,2 km/h (1 Bft) 98,00 %
19.05.2017 03:20 15,4 C 22,8 C 79 % 1007,0 hPa 0,0 l/m 2,3 km/h (1 Bft) O-NO 57 0 min 0,000 mm 0,0 UV-I 0 W/m 11,8 C 15,4 C 4,8 km/h (1 Bft) 94,74 %
19.05.2017 03:22 15,4 C 22,2 C 79 % 1007,1 hPa 0,0 l/m 3,0 km/h (1 Bft) O-NO 57 0 min 0,000 mm 0,0 UV-I 0 W/m 11,8 C 15,4 C 4,8 km/h (1 Bft) 97,87 %
19.05.2017 03:24 15,4 C 22,8 C 79 % 1007,1 hPa 0,0 l/m 3,2 km/h (1 Bft) O-NO 57 0 min 0,000 mm 0,0 UV-I 0 W/m 11,8 C 15,4 C 4,8 km/h (1 Bft) 96,00 %
19.05.2017 03:26 15,3 C 22,2 C 79 % 1007,1 hPa 0,0 l/m 2,5 km/h (1 Bft) O-NO 57 0 min 0,000 mm 0,0 UV-I 0 W/m 11,7 C 15,3 C 4,8 km/h (1 Bft) 96,00 %
19.05.2017 03:28 15,2 C 22,8 C 80 % 1007,1 hPa 0,0 l/m 1,6 km/h (1 Bft) O-NO 57 0 min 0,000 mm 0,0 UV-I 0 W/m 11,8 C 15,2 C 3,2 km/h (1 Bft) 96,00 %
19.05.2017 03:30 15,0 C 22,8 C 80 % 1007,1 hPa 0,0 l/m 0,1 km/h (0 Bft) O-NO 57 0 min 0,000 mm 0,0 UV-I 0 W/m 11,6 C 15,0 C 1,6 km/h (1 Bft) 97,56 %
19.05.2017 03:32 14,8 C 22,2 C 81 % 1007,1 hPa 0,0 l/m 0,4 km/h (0 Bft) O-NO 57 0 min 0,000 mm 0,0 UV-I 0 W/m 11,6 C 14,8 C 1,6 km/h (1 Bft) 93,62 %
19.05.2017 03:34 14,5 C 22,2 C 82 % 1007,1 hPa 0,0 l/m 0,0 km/h (0 Bft) O-NO 57 0 min 0,000 mm 0,0 UV-I 0 W/m 11,5 C 14,5 C 0,0 km/h (0 Bft) 96,00 %
19.05.2017 03:36 14,3 C 22,2 C 84 % 1007,1 hPa 0,0 l/m 0,5 km/h (0 Bft) O-NO 57 0 min 0,000 mm 0,0 UV-I 0 W/m 11,6 C 14,3 C 1,6 km/h (1 Bft) 93,62 %
19.05.2017 03:38 14,1 C 22,2 C 84 % 1007,1 hPa 0,0 l/m 0,0 km/h (0 Bft) O-NO 57 0 min 0,000 mm 0,0 UV-I 0 W/m 11,4 C 14,1 C 0,0 km/h (0 Bft) 94,74 %
19.05.2017 03:40 14,0 C 22,2 C 84 % 1007,1 hPa 0,0 l/m 0,0 km/h (0 Bft) O-NO 57 0 min 0,000 mm 0,0 UV-I 0 W/m 11,3 C 14,0 C 0,0 km/h (0 Bft) 93,62 %
19.05.2017 03:42 13,8 C 22,2 C 85 % 1007,1 hPa 0,0 l/m 0,1 km/h (0 Bft) O-NO 57 0 min 0,000 mm 0,0 UV-I 0 W/m 11,3 C 13,8 C 1,6 km/h (1 Bft) 96,00 %
19.05.2017 03:44 13,7 C 22,2 C 85 % 1007,0 hPa 0,0 l/m 2,2 km/h (1 Bft) O-NO 57 0 min 0,000 mm 0,0 UV-I 0 W/m 11,2 C 13,7 C 3,2 km/h (1 Bft) 92,00 %
19.05.2017 03:46 13,6 C 22,2 C 86 % 1007,0 hPa 0,0 l/m 2,4 km/h (1 Bft) O-NO 57 0 min 0,000 mm 0,0 UV-I 0 W/m 11,3 C 13,6 C 3,2 km/h (1 Bft) 97,22 %
19.05.2017 03:48 13,6 C 22,2 C 86 % 1007,0 hPa 0,0 l/m 2,6 km/h (1 Bft) O-NO 57 0 min 0,000 mm 0,0 UV-I 0 W/m 11,3 C 13,6 C 3,2 km/h (1 Bft) 94,74 %
19.05.2017 03:50 13,8 C 22,2 C 86 % 1007,0 hPa 0,0 l/m 3,6 km/h (1 Bft) O-NO 57 0 min 0,000 mm 0,0 UV-I 0 W/m 11,5 C 13,8 C 4,8 km/h (1 Bft) 91,18 %
19.05.2017 03:52 14,2 C 22,2 C 85 % 1007,0 hPa 0,0 l/m 2,3 km/h (1 Bft) O-NO 57 0 min 0,000 mm 0,0 UV-I 0 W/m 11,7 C 14,2 C 3,2 km/h (1 Bft) 96,00 %
19.05.2017 03:54 14,3 C 22,2 C 83 % 1007,0 hPa 0,0 l/m 1,9 km/h (1 Bft) O-NO 57 0 min 0,000 mm 0,0 UV-I 0 W/m 11,5 C 14,3 C 3,2 km/h (1 Bft) 94,74 %
19.05.2017 03:56 14,2 C 22,2 C 83 % 1006,9 hPa 0,0 l/m 2,1 km/h (1 Bft) O-NO 57 0 min 0,000 mm 0,0 UV-I 0 W/m 11,4 C 14,2 C 3,2 km/h (1 Bft) 98,11 %
19.05.2017 03:58 13,9 C 22,2 C 84 % 1006,9 hPa 0,0 l/m 2,3 km/h (1 Bft) O-NO 57 0 min 0,000 mm 0,0 UV-I 0 W/m 11,2 C 13,9 C 3,2 km/h (1 Bft) 96,00 %
19.05.2017 04:00 14,0 C 22,2 C 85 % 1006,9 hPa 0,0 l/m 3,4 km/h (1 Bft) O-NO 57 0 min 0,000 mm 0,0 UV-I 0 W/m 11,5 C 14,0 C 4,8 km/h (1 Bft) 97,37 %
19.05.2017 04:02 14,1 C 22,2 C 84 % 1006,9 hPa 0,0 l/m 2,2 km/h (1 Bft) O-NO 57 0 min 0,000 mm 0,0 UV-I 0 W/m 11,4 C 14,1 C 3,2 km/h (1 Bft) 86,21 %
19.05.2017 04:04 14,1 C 22,2 C 84 % 1006,9 hPa 0,0 l/m 3,0 km/h (1 Bft) O-NO 57 0 min 0,000 mm 0,0 UV-I 0 W/m 11,4 C 14,1 C 3,2 km/h (1 Bft) 98,00 %
19.05.2017 04:06 14,1 C 22,2 C 83 % 1006,9 hPa 0,0 l/m 2,1 km/h (1 Bft) O-NO 57 0 min 0,000 mm 0,0 UV-I 0 W/m 11,3 C 14,1 C 4,8 km/h (1 Bft) 95,74 %
19.05.2017 04:08 13,9 C 22,2 C 83 % 1006,9 hPa 0,0 l/m 1,6 km/h (1 Bft) O-NO 57 0 min 0,000 mm 0,0 UV-I 0 W/m 11,1 C 13,9 C 3,2 km/h (1 Bft) 95,74 %
19.05.2017 04:10 13,9 C 22,2 C 83 % 1006,9 hPa 0,0 l/m 0,9 km/h (0 Bft) O-NO 57 0 min 0,000 mm 0,0 UV-I 0 W/m 11,1 C 13,9 C 3,2 km/h (1 Bft) 100,00 %
19.05.2017 04:12 13,8 C 22,2 C 84 % 1006,9 hPa 0,0 l/m 0,4 km/h (0 Bft) O-NO 57 0 min 0,000 mm 0,0 UV-I 0 W/m 11,1 C 13,8 C 1,6 km/h (1 Bft) 94,74 %
19.05.2017 04:14 13,8 C 22,2 C 84 % 1006,9 hPa 0,0 l/m 1,1 km/h (1 Bft) O-NO 57 0 min 0,000 mm 0,0 UV-I 0 W/m 11,1 C 13,8 C 1,6 km/h (1 Bft) 100,00 %
19.05.2017 04:16 13,7 C 22,2 C 85 % 1006,9 hPa 0,0 l/m 1,9 km/h (1 Bft) O-NO 57 0 min 0,000 mm 0,0 UV-I 0 W/m 11,2 C 13,7 C 3,2 km/h (1 Bft) 96,92 %
19.05.2017 04:18 13,6 C 22,2 C 85 % 1006,9 hPa 0,0 l/m 1,8 km/h (1 Bft) O-NO 57 0 min 0,000 mm 0,0 UV-I 0 W/m 11,1 C 13,6 C 3,2 km/h (1 Bft) 95,12 %
19.05.2017 04:20 13,6 C 22,2 C 86 % 1006,9 hPa 0,0 l/m 1,8 km/h (1 Bft) O-NO 57 0 min 0,000 mm 0,0 UV-I 0 W/m 11,3 C 13,6 C 3,2 km/h (1 Bft) 97,87 %
19.05.2017 04:22 13,6 C 22,2 C 86 % 1006,9 hPa 0,0 l/m 0,7 km/h (0 Bft) O-NO 57 0 min 0,000 mm 0,0 UV-I 0 W/m 11,3 C 13,6 C 3,2 km/h (1 Bft) 98,00 %
19.05.2017 04:24 13,7 C 22,2 C 85 % 1006,9 hPa 0,0 l/m 0,9 km/h (0 Bft) O-NO 57 0 min 0,000 mm 0,0 UV-I 0 W/m 11,2 C 13,7 C 3,2 km/h (1 Bft) 100,00 %
19.05.2017 04:26 13,8 C 22,2 C 85 % 1006,9 hPa 0,0 l/m 0,0 km/h (0 Bft) O-NO 57 0 min 0,000 mm 0,0 UV-I 0 W/m 11,3 C 13,8 C 1,6 km/h (1 Bft) 98,00 %
19.05.2017 04:28 13,9 C 22,2 C 85 % 1006,9 hPa 0,0 l/m 0,6 km/h (0 Bft) O-NO 57 0 min 0,000 mm 0,0 UV-I 0 W/m 11,4 C 13,9 C 1,6 km/h (1 Bft) 97,87 %
19.05.2017 04:30 13,9 C 22,2 C 84 % 1006,9 hPa 0,0 l/m 0,8 km/h (0 Bft) O-NO 57 0 min 0,000 mm 0,0 UV-I 0 W/m 11,2 C 13,9 C 3,2 km/h (1 Bft) 98,00 %
19.05.2017 04:32 13,9 C 22,2 C 84 % 1006,9 hPa 0,0 l/m 1,1 km/h (1 Bft) O-NO 57 0 min 0,000 mm 0,0 UV-I 0 W/m 11,2 C 13,9 C 3,2 km/h (1 Bft) 97,14 %
19.05.2017 04:34 13,7 C 22,2 C 84 % 1006,9 hPa 0,0 l/m 0,1 km/h (0 Bft) O-NO 57 0 min 0,000 mm 0,0 UV-I 0 W/m 11,0 C 13,7 C 1,6 km/h (1 Bft) 98,00 %
19.05.2017 04:36 13,6 C 22,2 C 85 % 1006,9 hPa 0,0 l/m 0,0 km/h (0 Bft) O-NO 57 0 min 0,000 mm 0,0 UV-I 0 W/m 11,1 C 13,6 C 0,0 km/h (0 Bft) 96,00 %
19.05.2017 04:38 13,4 C 22,2 C 85 % 1006,9 hPa 0,0 l/m 0,0 km/h (0 Bft) O-NO 57 0 min 0,000 mm 0,0 UV-I 0 W/m 10,9 C 13,4 C 1,6 km/h (1 Bft) 100,00 %
19.05.2017 04:40 13,1 C 22,2 C 86 % 1006,9 hPa 0,0 l/m 0,0 km/h (0 Bft) O-NO 57 0 min 0,000 mm 0,0 UV-I 0 W/m 10,8 C 13,1 C 0,0 km/h (0 Bft) 100,00 %
19.05.2017 04:42 12,9 C 22,2 C 87 % 1006,9 hPa 0,0 l/m 0,0 km/h (0 Bft) O-NO 57 0 min 0,000 mm 0,0 UV-I 0 W/m 10,8 C 12,9 C 0,0 km/h (0 Bft) 100,00 %
19.05.2017 04:44 12,9 C 22,2 C 88 % 1006,9 hPa 0,0 l/m 0,7 km/h (0 Bft) O-NO 57 0 min 0,000 mm 0,0 UV-I 0 W/m 11,0 C 12,9 C 1,6 km/h (1 Bft) 100,00 %
19.05.2017 04:46 12,8 C 22,2 C 88 % 1006,9 hPa 0,0 l/m 1,2 km/h (1 Bft) O-NO 57 0 min 0,000 mm 0,0 UV-I 0 W/m 10,9 C 12,8 C 3,2 km/h (1 Bft) 100,00 %
19.05.2017 04:48 12,8 C 22,2 C 88 % 1006,9 hPa 0,0 l/m 4,1 km/h (1 Bft) S-SO 147 0 min 0,000 mm 0,0 UV-I 0 W/m 10,9 C 12,8 C 4,8 km/h (1 Bft) 97,37 %
19.05.2017 04:50 12,8 C 22,2 C 89 % 1006,9 hPa 0,0 l/m 3,4 km/h (1 Bft) S-SO 147 0 min 0,000 mm 0,0 UV-I 0 W/m 11,0 C 12,8 C 4,8 km/h (1 Bft) 100,00 %
19.05.2017 04:52 12,8 C 22,2 C 89 % 1006,9 hPa 0,0 l/m 2,5 km/h (1 Bft) S-SO 147 0 min 0,000 mm 0,0 UV-I 0 W/m 11,0 C 12,8 C 4,8 km/h (1 Bft) 97,87 %
19.05.2017 04:54 12,8 C 22,2 C 89 % 1006,9 hPa 0,0 l/m 1,4 km/h (1 Bft) S-SO 147 0 min 0,000 mm 0,0 UV-I 0 W/m 11,0 C 12,8 C 3,2 km/h (1 Bft) 97,87 %
19.05.2017 04:56 12,7 C 22,2 C 88 % 1006,9 hPa 0,0 l/m 0,0 km/h (0 Bft) S-SO 147 0 min 0,000 mm 0,0 UV-I 0 W/m 10,8 C 12,7 C 0,0 km/h (0 Bft) 97,87 %
19.05.2017 04:58 12,6 C 22,2 C 88 % 1006,9 hPa 0,0 l/m 0,0 km/h (0 Bft) S-SO 147 0 min 0,000 mm 0,0 UV-I 0 W/m 10,7 C 12,6 C 0,0 km/h (0 Bft) 98,00 %
19.05.2017 05:00 12,6 C 22,2 C 89 % 1006,9 hPa 0,0 l/m 0,0 km/h (0 Bft) S-SO 147 0 min 0,000 mm 0,0 UV-I 0 W/m 10,8 C 12,6 C 0,0 km/h (0 Bft) 100,00 %
19.05.2017 05:02 12,6 C 22,2 C 89 % 1006,8 hPa 0,0 l/m 0,0 km/h (0 Bft) S-SO 147 0 min 0,000 mm 0,0 UV-I 0 W/m 10,8 C 12,6 C 0,0 km/h (0 Bft) 97,44 %
19.05.2017 05:04 12,6 C 22,2 C 89 % 1006,8 hPa 0,0 l/m 0,0 km/h (0 Bft) S-SO 147 0 min 0,000 mm 0,0 UV-I 3 W/m 10,8 C 12,6 C 0,0 km/h (0 Bft) 100,00 %
19.05.2017 05:06 12,6 C 22,2 C 89 % 1006,8 hPa 0,0 l/m 0,0 km/h (0 Bft) S-SO 147 0 min 0,000 mm 0,0 UV-I 5 W/m 10,8 C 12,6 C 0,0 km/h (0 Bft) 98,11 %
19.05.2017 05:08 12,6 C 22,2 C 89 % 1006,8 hPa 0,0 l/m 0,0 km/h (0 Bft) S-SO 147 0 min 0,000 mm 0,0 UV-I 5 W/m 10,8 C 12,6 C 0,0 km/h (0 Bft) 96,00 %
19.05.2017 05:10 12,6 C 22,2 C 89 % 1006,8 hPa 0,0 l/m 0,0 km/h (0 Bft) S-SO 147 0 min 0,000 mm 0,0 UV-I 5 W/m 10,8 C 12,6 C 1,6 km/h (1 Bft) 97,87 %
19.05.2017 05:12 12,6 C 22,2 C 89 % 1006,7 hPa 0,0 l/m 0,0 km/h (0 Bft) S-SO 147 0 min 0,000 mm 0,0 UV-I 6 W/m 10,8 C 12,6 C 1,6 km/h (1 Bft) 97,37 %
19.05.2017 05:14 12,6 C 22,2 C 89 % 1006,8 hPa 0,0 l/m 0,0 km/h (0 Bft) S-SO 147 0 min 0,000 mm 0,0 UV-I 7 W/m 10,8 C 12,6 C 0,0 km/h (0 Bft) 97,87 %
19.05.2017 05:16 12,6 C 22,2 C 89 % 1006,8 hPa 0,0 l/m 0,0 km/h (0 Bft) S-SO 147 0 min 0,000 mm 0,0 UV-I 7 W/m 10,8 C 12,6 C 0,0 km/h (0 Bft) 100,00 %
19.05.2017 05:18 12,7 C 22,2 C 89 % 1006,8 hPa 0,0 l/m 0,0 km/h (0 Bft) S-SO 147 0 min 0,000 mm 0,0 UV-I 7 W/m 10,9 C 12,7 C 0,0 km/h (0 Bft) 97,56 %
19.05.2017 05:20 12,6 C 22,2 C 89 % 1006,7 hPa 0,0 l/m 0,0 km/h (0 Bft) S-SO 147 0 min 0,000 mm 0,0 UV-I 9 W/m 10,8 C 12,6 C 0,0 km/h (0 Bft) 97,87 %
19.05.2017 05:22 12,6 C 22,2 C 89 % 1006,7 hPa 0,0 l/m 0,5 km/h (0 Bft) S-SO 147 0 min 0,000 mm 0,0 UV-I 9 W/m 10,8 C 12,6 C 1,6 km/h (1 Bft) 97,87 %
19.05.2017 05:24 12,6 C 22,2 C 89 % 1006,7 hPa 0,0 l/m 0,0 km/h (0 Bft) S-SO 147 0 min 0,000 mm 0,0 UV-I 11 W/m 10,8 C 12,6 C 1,6 km/h (1 Bft) 98,00 %
19.05.2017 05:26 12,6 C 22,2 C 89 % 1006,7 hPa 0,0 l/m 0,6 km/h (0 Bft) S-SO 147 0 min 0,000 mm 0,0 UV-I 11 W/m 10,8 C 12,6 C 1,6 km/h (1 Bft) 98,00 %
19.05.2017 05:28 12,5 C 22,2 C 88 % 1006,7 hPa 0,0 l/m 0,1 km/h (0 Bft) S-SO 147 0 min 0,000 mm 0,0 UV-I 12 W/m 10,6 C 12,5 C 1,6 km/h (1 Bft) 97,37 %
19.05.2017 05:30 12,4 C 22,2 C 89 % 1006,8 hPa 0,0 l/m 0,2 km/h (0 Bft) S-SO 147 0 min 0,000 mm 0,0 UV-I 12 W/m 10,6 C 12,4 C 1,6 km/h (1 Bft) 98,11 %
19.05.2017 05:32 12,3 C 22,2 C 89 % 1006,8 hPa 0,0 l/m 0,0 km/h (0 Bft) S-SO 147 2 min 0,000 mm 0,0 UV-I 14 W/m 10,5 C 12,3 C 0,0 km/h (0 Bft) 97,56 %
19.05.2017 05:34 12,4 C 22,2 C 89 % 1006,8 hPa 0,0 l/m 0,0 km/h (0 Bft) S-SO 147 2 min 0,000 mm 0,0 UV-I 19 W/m 10,6 C 12,4 C 0,0 km/h (0 Bft) 98,00 %
19.05.2017 05:36 12,3 C 22,2 C 89 % 1006,8 hPa 0,0 l/m 0,1 km/h (0 Bft) S-SO 147 2 min 0,000 mm 0,0 UV-I 25 W/m 10,5 C 12,3 C 1,6 km/h (1 Bft) 98,00 %
19.05.2017 05:38 12,3 C 22,2 C 89 % 1006,7 hPa 0,0 l/m 2,3 km/h (1 Bft) S-SO 147 2 min 0,000 mm 0,0 UV-I 29 W/m 10,5 C 12,3 C 3,2 km/h (1 Bft) 97,87 %
19.05.2017 05:40 12,2 C 22,2 C 89 % 1006,8 hPa 0,0 l/m 3,5 km/h (1 Bft) S-SO 150 2 min 0,000 mm 0,0 UV-I 32 W/m 10,4 C 12,2 C 6,4 km/h (2 Bft) 100,00 %
19.05.2017 05:42 12,0 C 22,2 C 90 % 1006,7 hPa 0,0 l/m 2,2 km/h (1 Bft) S-SO 150 2 min 0,000 mm 0,0 UV-I 36 W/m 10,4 C 12,0 C 4,8 km/h (1 Bft) 97,62 %
19.05.2017 05:44 11,9 C 22,2 C 90 % 1006,8 hPa 0,0 l/m 0,0 km/h (0 Bft) S-SO 150 2 min 0,000 mm 0,0 UV-I 40 W/m 10,3 C 11,9 C 0,0 km/h (0 Bft) 94,23 %
19.05.2017 05:46 12,1 C 22,2 C 91 % 1006,8 hPa 0,0 l/m 0,9 km/h (0 Bft) S-SO 150 2 min 0,000 mm 0,0 UV-I 44 W/m 10,7 C 12,1 C 3,2 km/h (1 Bft) 100,00 %
19.05.2017 05:48 12,1 C 22,2 C 91 % 1006,8 hPa 0,0 l/m 4,2 km/h (1 Bft) S-SW 193 2 min 0,000 mm 0,0 UV-I 47 W/m 10,7 C 12,1 C 6,4 km/h (2 Bft) 94,00 %
19.05.2017 05:50 12,0 C 22,2 C 91 % 1006,8 hPa 0,0 l/m 2,5 km/h (1 Bft) S-SW 193 2 min 0,000 mm 0,0 UV-I 48 W/m 10,6 C 12,0 C 4,8 km/h (1 Bft) 96,00 %
19.05.2017 05:52 12,0 C 22,2 C 91 % 1006,8 hPa 0,0 l/m 0,3 km/h (0 Bft) S-SW 193 2 min 0,000 mm 0,0 UV-I 51 W/m 10,6 C 12,0 C 1,6 km/h (1 Bft) 98,00 %
19.05.2017 05:54 12,0 C 22,2 C 91 % 1006,8 hPa 0,0 l/m 0,0 km/h (0 Bft) S-SW 193 2 min 0,000 mm 0,0 UV-I 54 W/m 10,6 C 12,0 C 0,0 km/h (0 Bft) 95,74 %
19.05.2017 05:56 11,9 C 22,2 C 91 % 1006,8 hPa 0,0 l/m 0,0 km/h (0 Bft) S-SW 193 2 min 0,000 mm 0,0 UV-I 60 W/m 10,5 C 11,9 C 0,0 km/h (0 Bft) 93,62 %
19.05.2017 05:58 11,9 C 22,2 C 91 % 1006,8 hPa 0,0 l/m 0,0 km/h (0 Bft) S-SW 193 2 min 0,000 mm 0,0 UV-I 61 W/m 10,5 C 11,9 C 0,0 km/h (0 Bft) 96,00 %
19.05.2017 06:00 11,9 C 22,2 C 91 % 1006,8 hPa 0,0 l/m 0,5 km/h (0 Bft) S-SW 193 2 min 0,026 mm 0,0 UV-I 51 W/m 10,5 C 11,9 C 3,2 km/h (1 Bft) 95,74 %
19.05.2017 06:02 12,1 C 22,2 C 91 % 1006,8 hPa 0,0 l/m 1,7 km/h (1 Bft) S-SW 193 0 min 0,000 mm 0,0 UV-I 31 W/m 10,7 C 12,1 C 3,2 km/h (1 Bft) 95,74 %
19.05.2017 06:04 12,1 C 22,2 C 91 % 1006,9 hPa 0,0 l/m 2,0 km/h (1 Bft) S-SW 193 0 min 0,000 mm 0,0 UV-I 45 W/m 10,7 C 12,1 C 3,2 km/h (1 Bft) 92,68 %
19.05.2017 06:06 12,2 C 22,2 C 91 % 1006,9 hPa 0,0 l/m 0,1 km/h (0 Bft) S-SW 193 2 min 0,000 mm 0,0 UV-I 61 W/m 10,8 C 12,2 C 1,6 km/h (1 Bft) 98,00 %
19.05.2017 06:08 12,2 C 22,2 C 91 % 1006,9 hPa 0,0 l/m 0,1 km/h (0 Bft) S-SW 193 0 min 0,000 mm 0,0 UV-I 46 W/m 10,8 C 12,2 C 1,6 km/h (1 Bft) 97,37 %
19.05.2017 06:10 12,3 C 22,2 C 91 % 1006,9 hPa 0,0 l/m 0,6 km/h (0 Bft) S-SW 193 0 min 0,000 mm 0,0 UV-I 29 W/m 10,9 C 12,3 C 3,2 km/h (1 Bft) 92,00 %
19.05.2017 06:12 12,3 C 22,2 C 91 % 1006,9 hPa 0,0 l/m 0,7 km/h (0 Bft) S-SW 193 0 min 0,000 mm 0,0 UV-I 28 W/m 10,9 C 12,3 C 3,2 km/h (1 Bft) 95,74 %
19.05.2017 06:14 12,3 C 22,2 C 90 % 1006,9 hPa 0,0 l/m 0,1 km/h (0 Bft) S-SW 193 0 min 0,000 mm 0,0 UV-I 34 W/m 10,7 C 12,3 C 1,6 km/h (1 Bft) 98,11 %
19.05.2017 06:16 12,3 C 22,2 C 90 % 1006,9 hPa 0,0 l/m 0,0 km/h (0 Bft) S-SW 193 0 min 0,000 mm 0,0 UV-I 58 W/m 10,7 C 12,3 C 0,0 km/h (0 Bft) 94,74 %
19.05.2017 06:18 12,4 C 22,2 C 90 % 1006,9 hPa 0,0 l/m 1,5 km/h (1 Bft) S-SW 193 2 min 0,000 mm 0,0 UV-I 96 W/m 10,8 C 12,4 C 3,2 km/h (1 Bft) 98,00 %
19.05.2017 06:20 12,5 C 22,2 C 91 % 1006,9 hPa 0,0 l/m 0,6 km/h (0 Bft) S-SW 193 2 min 0,000 mm 0,0 UV-I 100 W/m 11,1 C 12,5 C 3,2 km/h (1 Bft) 91,67 %
19.05.2017 06:22 12,6 C 22,2 C 90 % 1006,9 hPa 0,0 l/m 0,0 km/h (0 Bft) S-SW 193 2 min 0,000 mm 0,0 UV-I 103 W/m 11,0 C 12,6 C 0,0 km/h (0 Bft) 97,87 %
19.05.2017 06:24 12,8 C 22,2 C 90 % 1006,9 hPa 0,0 l/m 0,0 km/h (0 Bft) S-SW 193 2 min 0,000 mm 0,0 UV-I 106 W/m 11,2 C 12,8 C 0,0 km/h (0 Bft) 93,62 %
19.05.2017 06:26 12,9 C 22,2 C 90 % 1006,9 hPa 0,0 l/m 0,0 km/h (0 Bft) S-SW 193 2 min 0,000 mm 0,0 UV-I 110 W/m 11,3 C 12,9 C 0,0 km/h (0 Bft) 96,00 %
19.05.2017 06:28 13,1 C 22,2 C 89 % 1006,9 hPa 0,0 l/m 0,0 km/h (0 Bft) S-SW 193 2 min 0,000 mm 0,0 UV-I 110 W/m 11,3 C 13,1 C 1,6 km/h (1 Bft) 94,74 %
19.05.2017 06:30 13,2 C 22,2 C 89 % 1006,9 hPa 0,0 l/m 1,8 km/h (1 Bft) O-SO 114 2 min 0,000 mm 0,0 UV-I 121 W/m 11,4 C 13,2 C 4,8 km/h (1 Bft) 98,11 %
19.05.2017 06:32 13,2 C 22,2 C 88 % 1006,9 hPa 0,0 l/m 1,4 km/h (1 Bft) O-SO 114 2 min 0,000 mm 0,0 UV-I 126 W/m 11,3 C 13,2 C 3,2 km/h (1 Bft) 94,34 %
19.05.2017 06:34 13,4 C 22,2 C 87 % 1006,9 hPa 0,0 l/m 2,7 km/h (1 Bft) O-SO 114 2 min 0,000 mm 0,0 UV-I 131 W/m 11,3 C 13,4 C 3,2 km/h (1 Bft) 97,87 %
19.05.2017 06:36 13,7 C 22,2 C 86 % 1006,9 hPa 0,0 l/m 2,1 km/h (1 Bft) O-SO 114 2 min 0,000 mm 0,0 UV-I 135 W/m 11,4 C 13,7 C 4,8 km/h (1 Bft) 94,29 %
19.05.2017 06:38 13,8 C 22,2 C 86 % 1006,9 hPa 0,0 l/m 1,5 km/h (1 Bft) O-SO 114 2 min 0,000 mm 0,0 UV-I 141 W/m 11,5 C 13,8 C 3,2 km/h (1 Bft) 96,00 %
19.05.2017 06:40 13,9 C 22,2 C 85 % 1006,9 hPa 0,0 l/m 2,0 km/h (1 Bft) O-SO 113 2 min 0,000 mm 0,0 UV-I 145 W/m 11,4 C 13,9 C 3,2 km/h (1 Bft) 95,74 %
19.05.2017 06:42 14,1 C 22,2 C 85 % 1006,9 hPa 0,0 l/m 3,0 km/h (1 Bft) O-NO 78 2 min 0,000 mm 0,0 UV-I 150 W/m 11,6 C 14,1 C 6,4 km/h (2 Bft) 95,74 %
19.05.2017 06:44 14,2 C 22,2 C 84 % 1006,9 hPa 0,0 l/m 3,0 km/h (1 Bft) O-NO 78 2 min 0,000 mm 0,0 UV-I 155 W/m 11,5 C 14,2 C 4,8 km/h (1 Bft) 90,00 %
19.05.2017 06:46 14,3 C 22,2 C 84 % 1006,9 hPa 0,0 l/m 3,4 km/h (1 Bft) O-NO 78 2 min 0,000 mm 0,0 UV-I 161 W/m 11,6 C 14,3 C 4,8 km/h (1 Bft) 86,00 %
19.05.2017 06:48 14,5 C 22,2 C 83 % 1006,9 hPa 0,0 l/m 2,0 km/h (1 Bft) O 85 2 min 0,000 mm 0,0 UV-I 167 W/m 11,6 C 14,5 C 4,8 km/h (1 Bft) 97,56 %
19.05.2017 06:50 14,6 C 22,2 C 83 % 1006,9 hPa 0,0 l/m 2,5 km/h (1 Bft) O 84 2 min 0,000 mm 0,0 UV-I 172 W/m 11,7 C 14,6 C 6,4 km/h (2 Bft) 96,23 %
19.05.2017 06:52 14,6 C 22,2 C 83 % 1006,9 hPa 0,0 l/m 1,2 km/h (1 Bft) O 84 2 min 0,000 mm 0,0 UV-I 176 W/m 11,7 C 14,6 C 3,2 km/h (1 Bft) 95,74 %
19.05.2017 06:54 14,6 C 22,2 C 84 % 1007,0 hPa 0,0 l/m 0,5 km/h (0 Bft) O 84 2 min 0,000 mm 0,0 UV-I 183 W/m 11,9 C 14,6 C 1,6 km/h (1 Bft) 92,11 %
19.05.2017 06:56 14,7 C 22,2 C 82 % 1006,9 hPa 0,0 l/m 4,5 km/h (1 Bft) O-NO 59 2 min 0,000 mm 0,0 UV-I 187 W/m 11,7 C 14,7 C 8,0 km/h (2 Bft) 94,00 %
19.05.2017 06:58 14,9 C 22,2 C 80 % 1006,9 hPa 0,0 l/m 5,3 km/h (1 Bft) O-NO 69 2 min 0,000 mm 0,0 UV-I 194 W/m 11,5 C 14,9 C 9,7 km/h (2 Bft) 100,00 %
19.05.2017 07:00 15,1 C 22,2 C 79 % 1006,9 hPa 0,0 l/m 4,9 km/h (1 Bft) O-NO 68 2 min 0,000 mm 0,0 UV-I 199 W/m 11,5 C 15,1 C 6,4 km/h (2 Bft) 94,00 %
19.05.2017 07:02 15,2 C 22,2 C 78 % 1006,9 hPa 0,0 l/m 3,2 km/h (1 Bft) O-NO 68 2 min 0,050 mm 0,0 UV-I 204 W/m 11,4 C 15,2 C 4,8 km/h (1 Bft) 92,68 %
19.05.2017 07:04 15,3 C 22,2 C 79 % 1006,9 hPa 0,0 l/m 2,9 km/h (1 Bft) O-NO 68 2 min 0,000 mm 0,0 UV-I 211 W/m 11,7 C 15,3 C 4,8 km/h (1 Bft) 98,00 %
19.05.2017 07:06 15,4 C 22,2 C 78 % 1007,0 hPa 0,0 l/m 4,0 km/h (1 Bft) O-NO 70 2 min 0,000 mm 0,0 UV-I 216 W/m 11,6 C 15,4 C 8,0 km/h (2 Bft) 98,11 %
19.05.2017 07:08 15,6 C 22,2 C 77 % 1007,0 hPa 0,0 l/m 5,7 km/h (1 Bft) O-NO 64 2 min 0,000 mm 0,0 UV-I 222 W/m 11,6 C 15,6 C 8,0 km/h (2 Bft) 98,00 %
19.05.2017 07:10 15,6 C 22,2 C 78 % 1007,0 hPa 0,0 l/m 4,6 km/h (1 Bft) O-NO 69 2 min 0,000 mm 0,0 UV-I 228 W/m 11,8 C 15,6 C 6,4 km/h (2 Bft) 100,00 %
19.05.2017 07:12 15,6 C 22,2 C 77 % 1007,0 hPa 0,0 l/m 4,5 km/h (1 Bft) O-NO 72 2 min 0,000 mm 0,0 UV-I 234 W/m 11,6 C 15,6 C 6,4 km/h (2 Bft) 97,87 %
19.05.2017 07:14 15,7 C 22,2 C 77 % 1007,0 hPa 0,0 l/m 2,7 km/h (1 Bft) NO 52 2 min 0,000 mm 0,0 UV-I 238 W/m 11,7 C 15,7 C 6,4 km/h (2 Bft) 94,34 %
19.05.2017 07:16 15,7 C 22,2 C 77 % 1007,0 hPa 0,0 l/m 4,0 km/h (1 Bft) O-NO 65 2 min 0,000 mm 0,0 UV-I 245 W/m 11,7 C 15,7 C 8,0 km/h (2 Bft) 97,87 %
19.05.2017 07:18 15,8 C 22,2 C 77 % 1007,0 hPa 0,0 l/m 4,3 km/h (1 Bft) O-NO 75 2 min 0,000 mm 0,1 UV-I 251 W/m 11,8 C 15,8 C 8,0 km/h (2 Bft) 100,00 %
19.05.2017 07:20 15,8 C 22,2 C 76 % 1007,0 hPa 0,0 l/m 4,9 km/h (1 Bft) O-NO 59 2 min 0,000 mm 0,5 UV-I 257 W/m 11,6 C 15,8 C 8,0 km/h (2 Bft) 97,87 %
19.05.2017 07:22 15,8 C 22,2 C 76 % 1007,0 hPa 0,0 l/m 5,5 km/h (1 Bft) O-NO 70 2 min 0,000 mm 0,5 UV-I 263 W/m 11,6 C 15,8 C 8,0 km/h (2 Bft) 97,37 %
19.05.2017 07:24 15,9 C 22,2 C 76 % 1007,0 hPa 0,0 l/m 5,3 km/h (1 Bft) O-NO 59 2 min 0,000 mm 0,5 UV-I 266 W/m 11,7 C 15,9 C 6,4 km/h (2 Bft) 96,43 %
19.05.2017 07:26 15,9 C 22,2 C 76 % 1006,9 hPa 0,0 l/m 5,6 km/h (1 Bft) O-NO 61 2 min 0,000 mm 0,5 UV-I 266 W/m 11,7 C 15,9 C 11,3 km/h (2 Bft) 90,24 %
19.05.2017 07:28 15,9 C 22,2 C 76 % 1006,9 hPa 0,0 l/m 6,0 km/h (2 Bft) O-NO 61 2 min 0,000 mm 0,5 UV-I 279 W/m 11,7 C 15,9 C 9,7 km/h (2 Bft) 98,11 %
19.05.2017 07:30 15,9 C 22,2 C 76 % 1006,9 hPa 0,0 l/m 4,7 km/h (1 Bft) O-NO 67 2 min 0,000 mm 0,5 UV-I 285 W/m 11,7 C 15,9 C 6,4 km/h (2 Bft) 95,12 %
19.05.2017 07:32 16,0 C 22,2 C 77 % 1006,9 hPa 0,0 l/m 5,8 km/h (2 Bft) O-NO 69 2 min 0,000 mm 0,6 UV-I 290 W/m 12,0 C 16,0 C 8,0 km/h (2 Bft) 100,00 %
19.05.2017 07:34 16,1 C 22,2 C 76 % 1006,9 hPa 0,0 l/m 6,9 km/h (2 Bft) O 81 2 min 0,000 mm 0,6 UV-I 299 W/m 11,9 C 15,8 C 9,7 km/h (2 Bft) 96,00 %
19.05.2017 07:36 16,1 C 22,2 C 76 % 1006,9 hPa 0,0 l/m 6,8 km/h (2 Bft) O-NO 77 2 min 0,000 mm 0,6 UV-I 304 W/m 11,9 C 15,9 C 12,9 km/h (3 Bft) 100,00 %
19.05.2017 07:38 16,2 C 22,2 C 75 % 1007,0 hPa 0,0 l/m 8,2 km/h (2 Bft) O-NO 76 2 min 0,000 mm 0,6 UV-I 311 W/m 11,8 C 15,3 C 12,9 km/h (3 Bft) 100,00 %
19.05.2017 07:40 16,2 C 22,2 C 75 % 1007,0 hPa 0,0 l/m 8,7 km/h (2 Bft) O-NO 65 2 min 0,000 mm 0,6 UV-I 305 W/m 11,8 C 15,0 C 14,5 km/h (3 Bft) 96,43 %
19.05.2017 07:42 16,2 C 22,2 C 75 % 1007,0 hPa 0,0 l/m 8,6 km/h (2 Bft) O-NO 59 2 min 0,000 mm 0,7 UV-I 274 W/m 11,8 C 15,1 C 12,9 km/h (3 Bft) 100,00 %
19.05.2017 07:44 16,2 C 22,2 C 75 % 1007,0 hPa 0,0 l/m 8,2 km/h (2 Bft) O-NO 68 2 min 0,000 mm 0,7 UV-I 328 W/m 11,8 C 15,3 C 12,9 km/h (3 Bft) 93,22 %
19.05.2017 07:46 16,2 C 22,2 C 75 % 1006,9 hPa 0,0 l/m 8,9 km/h (2 Bft) O-NO 76 2 min 0,000 mm 0,7 UV-I 336 W/m 11,8 C 14,9 C 12,9 km/h (3 Bft) 100,00 %
19.05.2017 07:48 16,2 C 22,2 C 75 % 1007,0 hPa 0,0 l/m 7,3 km/h (2 Bft) O 80 2 min 0,000 mm 0,7 UV-I 341 W/m 11,8 C 15,7 C 11,3 km/h (2 Bft) 96,00 %
19.05.2017 07:50 16,3 C 22,2 C 75 % 1006,9 hPa 0,0 l/m 8,7 km/h (2 Bft) O-NO 67 2 min 0,000 mm 0,8 UV-I 347 W/m 11,9 C 15,1 C 12,9 km/h (3 Bft) 97,56 %
19.05.2017 07:52 16,3 C 22,2 C 74 % 1007,0 hPa 0,0 l/m 10,2 km/h (2 Bft) O-NO 72 2 min 0,000 mm 0,8 UV-I 352 W/m 11,7 C 14,5 C 14,5 km/h (3 Bft) 96,23 %
19.05.2017 07:54 16,4 C 22,2 C 74 % 1007,0 hPa 0,0 l/m 7,4 km/h (2 Bft) O 83 2 min 0,000 mm 0,8 UV-I 352 W/m 11,8 C 15,9 C 11,3 km/h (2 Bft) 93,75 %
19.05.2017 07:56 16,4 C 22,2 C 75 % 1006,9 hPa 0,0 l/m 6,3 km/h (2 Bft) NO 46 2 min 0,000 mm 0,8 UV-I 346 W/m 12,0 C 16,4 C 8,0 km/h (2 Bft) 98,46 %
19.05.2017 07:59 16,6 C 22,2 C 74 % 1006,9 hPa 0,0 l/m 9,7 km/h (2 Bft) O-NO 61 3 min 0,000 mm 0,9 UV-I 366 W/m 11,9 C 15,0 C 14,5 km/h (3 Bft) 97,26 %
19.05.2017 08:00 16,6 C 22,2 C 73 % 1006,9 hPa 0,0 l/m 9,2 km/h (2 Bft) O-NO 76 1 min 0,000 mm 0,9 UV-I 377 W/m 11,7 C 15,2 C 11,3 km/h (2 Bft) 100,00 %
19.05.2017 08:02 16,7 C 22,2 C 74 % 1007,0 hPa 0,0 l/m 7,8 km/h (2 Bft) O-NO 74 2 min 0,178 mm 0,9 UV-I 382 W/m 12,0 C 16,0 C 11,3 km/h (2 Bft) 93,18 %
19.05.2017 08:04 16,7 C 22,2 C 73 % 1006,9 hPa 0,0 l/m 9,3 km/h (2 Bft) O-NO 75 2 min 0,000 mm 1,0 UV-I 386 W/m 11,8 C 15,3 C 12,9 km/h (3 Bft) 89,36 %
19.05.2017 08:06 16,7 C 22,2 C 73 % 1007,0 hPa 0,0 l/m 7,8 km/h (2 Bft) O-NO 76 2 min 0,000 mm 1,0 UV-I 392 W/m 11,8 C 16,0 C 12,9 km/h (3 Bft) 94,00 %
19.05.2017 08:08 16,8 C 22,2 C 74 % 1007,0 hPa 0,0 l/m 8,3 km/h (2 Bft) O-NO 62 2 min 0,000 mm 1,0 UV-I 401 W/m 12,1 C 15,8 C 12,9 km/h (3 Bft) 92,11 %
19.05.2017 08:10 16,8 C 22,2 C 73 % 1007,0 hPa 0,0 l/m 7,1 km/h (2 Bft) O 79 2 min 0,000 mm 1,0 UV-I 407 W/m 11,9 C 16,4 C 11,3 km/h (2 Bft) 98,11 %
19.05.2017 08:12 16,9 C 22,2 C 74 % 1007,0 hPa 0,0 l/m 4,1 km/h (1 Bft) O-NO 73 2 min 0,000 mm 1,1 UV-I 412 W/m 12,2 C 16,9 C 8,0 km/h (2 Bft) 97,56 %
19.05.2017 08:14 17,1 C 22,2 C 75 % 1007,0 hPa 0,0 l/m 6,0 km/h (2 Bft) O-NO 63 2 min 0,000 mm 1,1 UV-I 417 W/m 12,6 C 17,1 C 8,0 km/h (2 Bft) 95,74 %
19.05.2017 08:16 17,2 C 22,2 C 73 % 1007,0 hPa 0,0 l/m 6,4 km/h (2 Bft) O-NO 61 2 min 0,000 mm 1,1 UV-I 424 W/m 12,3 C 17,2 C 11,3 km/h (2 Bft) 98,00 %
19.05.2017 08:18 17,2 C 22,2 C 74 % 1007,0 hPa 0,0 l/m 5,8 km/h (2 Bft) O-NO 76 2 min 0,000 mm 1,2 UV-I 432 W/m 12,5 C 17,2 C 8,0 km/h (2 Bft) 96,00 %
19.05.2017 08:20 17,3 C 22,2 C 73 % 1007,0 hPa 0,0 l/m 3,7 km/h (1 Bft) O 91 2 min 0,000 mm 1,2 UV-I 434 W/m 12,4 C 17,3 C 6,4 km/h (2 Bft) 97,44 %
19.05.2017 08:22 17,3 C 22,2 C 73 % 1007,1 hPa 0,0 l/m 7,8 km/h (2 Bft) NO 43 2 min 0,000 mm 1,2 UV-I 440 W/m 12,4 C 16,6 C 9,7 km/h (2 Bft) 90,00 %
19.05.2017 08:24 17,3 C 22,2 C 74 % 1007,1 hPa 0,0 l/m 4,9 km/h (1 Bft) NO 40 2 min 0,000 mm 1,3 UV-I 446 W/m 12,6 C 17,3 C 11,3 km/h (2 Bft) 93,62 %
19.05.2017 08:26 17,5 C 22,2 C 75 % 1007,1 hPa 0,0 l/m 4,2 km/h (1 Bft) N 5 2 min 0,000 mm 1,3 UV-I 453 W/m 13,0 C 17,5 C 8,0 km/h (2 Bft) 100,00 %
19.05.2017 08:28 17,6 C 22,2 C 74 % 1007,1 hPa 0,0 l/m 5,0 km/h (1 Bft) NO 52 2 min 0,000 mm 1,3 UV-I 458 W/m 12,9 C 17,6 C 8,0 km/h (2 Bft) 97,37 %
19.05.2017 08:30 17,7 C 22,2 C 75 % 1007,0 hPa 0,0 l/m 4,5 km/h (1 Bft) NO 45 2 min 0,000 mm 1,4 UV-I 464 W/m 13,2 C 17,7 C 6,4 km/h (2 Bft) 100,00 %
19.05.2017 08:32 17,7 C 22,2 C 71 % 1007,0 hPa 0,0 l/m 5,9 km/h (2 Bft) O-NO 68 2 min 0,000 mm 1,4 UV-I 470 W/m 12,4 C 17,7 C 9,7 km/h (2 Bft) 100,00 %
19.05.2017 08:34 17,7 C 22,2 C 72 % 1007,0 hPa 0,0 l/m 5,6 km/h (1 Bft) NO 56 2 min 0,000 mm 1,5 UV-I 476 W/m 12,6 C 17,7 C 8,0 km/h (2 Bft) 98,00 %
19.05.2017 08:36 17,8 C 22,2 C 73 % 1007,0 hPa 0,0 l/m 5,4 km/h (1 Bft) NO 55 2 min 0,000 mm 1,5 UV-I 482 W/m 12,9 C 17,8 C 8,0 km/h (2 Bft) 97,73 %
19.05.2017 08:39 17,9 C 22,2 C 73 % 1006,9 hPa 0,0 l/m 7,1 km/h (2 Bft) NO 46 3 min 0,000 mm 1,5 UV-I 490 W/m 13,0 C 17,6 C 9,7 km/h (2 Bft) 98,53 %
19.05.2017 08:40 18,0 C 22,2 C 74 % 1006,9 hPa 0,0 l/m 6,6 km/h (2 Bft) NO 44 1 min 0,000 mm 1,6 UV-I 497 W/m 13,3 C 17,9 C 8,0 km/h (2 Bft) 91,30 %
19.05.2017 08:42 18,1 C 22,2 C 71 % 1006,9 hPa 0,0 l/m 6,4 km/h (2 Bft) NO 44 2 min 0,000 mm 1,6 UV-I 502 W/m 12,8 C 18,1 C 9,7 km/h (2 Bft) 100,00 %
19.05.2017 08:44 18,1 C 22,2 C 71 % 1006,9 hPa 0,0 l/m 6,0 km/h (2 Bft) O-NO 58 2 min 0,000 mm 1,6 UV-I 506 W/m 12,8 C 18,1 C 9,7 km/h (2 Bft) 100,00 %
19.05.2017 08:46 18,1 C 22,2 C 73 % 1006,9 hPa 0,0 l/m 7,0 km/h (2 Bft) O-NO 60 2 min 0,000 mm 1,7 UV-I 512 W/m 13,2 C 17,8 C 9,7 km/h (2 Bft) 97,87 %
19.05.2017 08:48 18,2 C 22,2 C 73 % 1006,9 hPa 0,0 l/m 8,6 km/h (2 Bft) O-NO 68 2 min 0,000 mm 1,7 UV-I 516 W/m 13,3 C 17,2 C 12,9 km/h (3 Bft) 98,00 %
19.05.2017 08:50 18,2 C 22,2 C 71 % 1006,9 hPa 0,0 l/m 9,2 km/h (2 Bft) NO 38 2 min 0,000 mm 1,7 UV-I 523 W/m 12,9 C 17,0 C 14,5 km/h (3 Bft) 92,31 %
19.05.2017 08:52 18,3 C 22,2 C 72 % 1006,9 hPa 0,0 l/m 7,7 km/h (2 Bft) NO 47 2 min 0,000 mm 1,8 UV-I 528 W/m 13,2 C 17,7 C 11,3 km/h (2 Bft) 91,84 %
19.05.2017 08:54 18,3 C 22,2 C 70 % 1006,9 hPa 0,0 l/m 9,6 km/h (2 Bft) O-NO 67 2 min 0,000 mm 1,8 UV-I 532 W/m 12,7 C 16,9 C 12,9 km/h (3 Bft) 96,00 %
19.05.2017 08:56 18,3 C 22,2 C 72 % 1006,8 hPa 0,0 l/m 8,6 km/h (2 Bft) O-NO 61 2 min 0,000 mm 1,9 UV-I 534 W/m 13,2 C 17,3 C 12,9 km/h (3 Bft) 96,00 %
19.05.2017 08:58 18,3 C 22,2 C 70 % 1006,8 hPa 0,0 l/m 8,3 km/h (2 Bft) O-NO 78 2 min 0,000 mm 1,9 UV-I 542 W/m 12,7 C 17,4 C 12,9 km/h (3 Bft) 100,00 %
19.05.2017 09:00 18,4 C 22,2 C 70 % 1006,8 hPa 0,0 l/m 10,3 km/h (2 Bft) O-NO 69 2 min 0,280 mm 1,9 UV-I 549 W/m 12,8 C 16,8 C 14,5 km/h (3 Bft) 94,23 %
19.05.2017 09:02 18,4 C 22,2 C 70 % 1006,8 hPa 0,0 l/m 9,6 km/h (2 Bft) O-NO 65 2 min 0,000 mm 2,0 UV-I 555 W/m 12,8 C 17,0 C 14,5 km/h (3 Bft) 100,00 %
19.05.2017 09:04 18,4 C 22,2 C 69 % 1006,7 hPa 0,0 l/m 7,9 km/h (2 Bft) NO 42 2 min 0,000 mm 2,0 UV-I 559 W/m 12,6 C 17,7 C 12,9 km/h (3 Bft) 97,73 %
19.05.2017 09:06 18,5 C 22,2 C 71 % 1006,7 hPa 0,0 l/m 6,5 km/h (2 Bft) O-NO 76 2 min 0,000 mm 2,1 UV-I 563 W/m 13,1 C 18,5 C 11,3 km/h (2 Bft) 96,61 %
19.05.2017 09:08 18,7 C 22,2 C 73 % 1006,7 hPa 0,0 l/m 5,6 km/h (1 Bft) O 86 2 min 0,000 mm 2,1 UV-I 569 W/m 13,8 C 18,7 C 9,7 km/h (2 Bft) 96,00 %
19.05.2017 09:10 18,8 C 22,2 C 70 % 1006,7 hPa 0,0 l/m 8,0 km/h (2 Bft) O-NO 63 2 min 0,000 mm 2,1 UV-I 562 W/m 13,2 C 18,1 C 12,9 km/h (3 Bft) 95,45 %
19.05.2017 09:12 18,9 C 22,2 C 69 % 1006,7 hPa 0,0 l/m 5,9 km/h (2 Bft) O-NO 71 2 min 0,000 mm 2,2 UV-I 571 W/m 13,1 C 18,9 C 9,7 km/h (2 Bft) 100,00 %
19.05.2017 09:14 18,9 C 22,2 C 69 % 1006,7 hPa 0,0 l/m 5,5 km/h (1 Bft) NO 52 2 min 0,000 mm 2,2 UV-I 583 W/m 13,1 C 18,9 C 6,4 km/h (2 Bft) 100,00 %
19.05.2017 09:16 18,9 C 22,2 C 69 % 1006,7 hPa 0,0 l/m 5,8 km/h (2 Bft) O-NO 67 2 min 0,000 mm 2,3 UV-I 589 W/m 13,1 C 18,9 C 8,0 km/h (2 Bft) 100,00 %
19.05.2017 09:18 19,1 C 22,2 C 69 % 1006,7 hPa 0,0 l/m 4,3 km/h (1 Bft) O-NO 67 2 min 0,000 mm 2,3 UV-I 594 W/m 13,3 C 19,1 C 6,4 km/h (2 Bft) 95,74 %
19.05.2017 09:20 19,3 C 22,2 C 70 % 1006,6 hPa 0,0 l/m 3,2 km/h (1 Bft) O-NO 67 2 min 0,000 mm 2,4 UV-I 599 W/m 13,7 C 19,3 C 4,8 km/h (1 Bft) 100,00 %
19.05.2017 09:22 19,4 C 22,2 C 69 % 1006,6 hPa 0,0 l/m 5,4 km/h (1 Bft) O 81 2 min 0,000 mm 2,4 UV-I 605 W/m 13,6 C 19,4 C 9,7 km/h (2 Bft) 94,34 %
19.05.2017 09:24 19,4 C 22,2 C 69 % 1006,6 hPa 0,0 l/m 3,7 km/h (1 Bft) O-NO 71 2 min 0,000 mm 2,5 UV-I 610 W/m 13,6 C 19,4 C 6,4 km/h (2 Bft) 96,00 %
19.05.2017 09:26 19,5 C 22,2 C 70 % 1006,6 hPa 0,0 l/m 4,4 km/h (1 Bft) O 91 2 min 0,000 mm 2,5 UV-I 614 W/m 13,9 C 19,5 C 6,4 km/h (2 Bft) 97,37 %
19.05.2017 09:28 19,7 C 22,2 C 70 % 1006,6 hPa 0,0 l/m 5,4 km/h (1 Bft) O-NO 62 2 min 0,000 mm 2,5 UV-I 620 W/m 14,1 C 19,7 C 8,0 km/h (2 Bft) 91,49 %
19.05.2017 09:30 19,8 C 22,2 C 69 % 1006,6 hPa 0,0 l/m 5,5 km/h (1 Bft) O-NO 63 2 min 0,000 mm 2,6 UV-I 624 W/m 13,9 C 19,8 C 8,0 km/h (2 Bft) 98,21 %
19.05.2017 09:32 19,7 C 22,2 C 68 % 1006,5 hPa 0,0 l/m 5,8 km/h (2 Bft) O-NO 57 2 min 0,000 mm 2,6 UV-I 629 W/m 13,6 C 19,7 C 8,0 km/h (2 Bft) 92,68 %
19.05.2017 09:34 19,8 C 22,2 C 70 % 1006,5 hPa 0,0 l/m 6,4 km/h (2 Bft) NO 48 2 min 0,000 mm 2,7 UV-I 634 W/m 14,2 C 19,8 C 9,7 km/h (2 Bft) 100,00 %
19.05.2017 09:36 19,8 C 22,2 C 67 % 1006,5 hPa 0,0 l/m 6,0 km/h (2 Bft) NO 46 2 min 0,000 mm 2,7 UV-I 639 W/m 13,5 C 19,8 C 11,3 km/h (2 Bft) 94,83 %
19.05.2017 09:38 19,9 C 22,2 C 68 % 1006,5 hPa 0,0 l/m 5,7 km/h (1 Bft) O-NO 64 2 min 0,000 mm 2,8 UV-I 643 W/m 13,8 C 19,9 C 8,0 km/h (2 Bft) 97,44 %
19.05.2017 09:40 19,9 C 22,2 C 70 % 1006,5 hPa 0,0 l/m 5,7 km/h (1 Bft) NO 53 2 min 0,000 mm 2,8 UV-I 648 W/m 14,3 C 19,9 C 9,7 km/h (2 Bft) 93,62 %
19.05.2017 09:42 20,2 C 22,2 C 71 % 1006,4 hPa 0,0 l/m 6,1 km/h (2 Bft) O-NO 70 2 min 0,000 mm 2,9 UV-I 653 W/m 14,8 C 20,2 C 9,7 km/h (2 Bft) 96,00 %
19.05.2017 09:44 20,2 C 22,2 C 67 % 1006,4 hPa 0,0 l/m 6,7 km/h (2 Bft) O-NO 71 2 min 0,000 mm 2,9 UV-I 657 W/m 13,9 C 20,1 C 11,3 km/h (2 Bft) 97,87 %
19.05.2017 09:46 20,2 C 22,2 C 69 % 1006,4 hPa 0,0 l/m 7,0 km/h (2 Bft) NO 42 2 min 0,000 mm 3,0 UV-I 662 W/m 14,3 C 20,0 C 11,3 km/h (2 Bft) 92,45 %
19.05.2017 09:48 20,3 C 22,2 C 69 % 1006,3 hPa 0,0 l/m 8,0 km/h (2 Bft) O-NO 78 2 min 0,000 mm 3,0 UV-I 668 W/m 14,4 C 19,7 C 12,9 km/h (3 Bft) 92,68 %
19.05.2017 09:50 20,3 C 22,2 C 66 % 1006,3 hPa 0,0 l/m 8,8 km/h (2 Bft) O-NO 77 2 min 0,000 mm 3,0 UV-I 673 W/m 13,7 C 19,4 C 12,9 km/h (3 Bft) 92,00 %
19.05.2017 09:52 20,3 C 22,8 C 66 % 1006,3 hPa 0,0 l/m 6,3 km/h (2 Bft) O-NO 67 2 min 0,000 mm 3,1 UV-I 677 W/m 13,7 C 20,3 C 11,3 km/h (2 Bft) 93,18 %
19.05.2017 09:54 20,3 C 22,8 C 70 % 1006,3 hPa 0,0 l/m 7,6 km/h (2 Bft) N-NO 15 2 min 0,000 mm 3,1 UV-I 680 W/m 14,6 C 19,8 C 14,5 km/h (3 Bft) 95,45 %
19.05.2017 09:56 20,4 C 22,8 C 69 % 1006,3 hPa 0,0 l/m 9,0 km/h (2 Bft) NO 51 2 min 0,000 mm 3,2 UV-I 685 W/m 14,5 C 19,4 C 14,5 km/h (3 Bft) 91,49 %
19.05.2017 09:58 20,4 C 22,8 C 65 % 1006,3 hPa 0,0 l/m 11,4 km/h (2 Bft) O-NO 62 2 min 0,000 mm 3,2 UV-I 690 W/m 13,6 C 18,7 C 16,1 km/h (3 Bft) 93,62 %
19.05.2017 10:00 20,3 C 22,2 C 65 % 1006,3 hPa 0,0 l/m 8,3 km/h (2 Bft) N-NO 23 2 min 0,381 mm 3,3 UV-I 695 W/m 13,5 C 19,6 C 14,5 km/h (3 Bft) 95,12 %
19.05.2017 10:02 20,5 C 22,8 C 68 % 1006,3 hPa 0,0 l/m 9,2 km/h (2 Bft) O-NO 74 2 min 0,000 mm 3,3 UV-I 700 W/m 14,4 C 19,5 C 14,5 km/h (3 Bft) 91,53 %
19.05.2017 10:04 20,6 C 22,8 C 65 % 1006,3 hPa 0,0 l/m 8,6 km/h (2 Bft) O-NO 74 2 min 0,000 mm 3,4 UV-I 703 W/m 13,8 C 19,8 C 14,5 km/h (3 Bft) 93,62 %
19.05.2017 10:06 20,6 C 22,8 C 66 % 1006,3 hPa 0,0 l/m 9,4 km/h (2 Bft) O-NO 64 2 min 0,000 mm 3,4 UV-I 707 W/m 14,0 C 19,5 C 14,5 km/h (3 Bft) 93,18 %
19.05.2017 10:08 20,6 C 22,8 C 65 % 1006,3 hPa 0,0 l/m 8,6 km/h (2 Bft) O-NO 70 2 min 0,000 mm 3,5 UV-I 712 W/m 13,8 C 19,8 C 14,5 km/h (3 Bft) 95,12 %
19.05.2017 10:10 20,7 C 22,8 C 66 % 1006,3 hPa 0,0 l/m 6,7 km/h (2 Bft) O-NO 59 2 min 0,000 mm 3,5 UV-I 715 W/m 14,1 C 20,6 C 12,9 km/h (3 Bft) 94,00 %
19.05.2017 10:12 20,8 C 22,8 C 66 % 1006,3 hPa 0,0 l/m 10,3 km/h (2 Bft) O-NO 59 2 min 0,000 mm 3,5 UV-I 720 W/m 14,2 C 19,4 C 16,1 km/h (3 Bft) 94,00 %
19.05.2017 10:14 20,8 C 22,2 C 64 % 1006,3 hPa 0,0 l/m 7,6 km/h (2 Bft) O-NO 69 2 min 0,000 mm 3,6 UV-I 725 W/m 13,7 C 20,3 C 14,5 km/h (3 Bft) 95,24 %
19.05.2017 10:16 20,8 C 22,8 C 64 % 1006,3 hPa 0,0 l/m 9,7 km/h (2 Bft) O 92 2 min 0,000 mm 3,6 UV-I 730 W/m 13,7 C 19,6 C 14,5 km/h (3 Bft) 92,31 %
19.05.2017 10:18 20,8 C 22,8 C 65 % 1006,4 hPa 0,0 l/m 5,5 km/h (1 Bft) O-SO 115 2 min 0,000 mm 3,7 UV-I 732 W/m 14,0 C 20,8 C 12,9 km/h (3 Bft) 95,24 %
19.05.2017 10:20 20,9 C 22,8 C 67 % 1006,3 hPa 0,0 l/m 6,8 km/h (2 Bft) NO 56 2 min 0,000 mm 3,8 UV-I 737 W/m 14,5 C 20,8 C 14,5 km/h (3 Bft) 94,74 %
19.05.2017 10:22 21,1 C 22,8 C 62 % 1006,4 hPa 0,0 l/m 7,8 km/h (2 Bft) NO 50 2 min 0,000 mm 3,8 UV-I 742 W/m 13,5 C 20,6 C 11,3 km/h (2 Bft) 98,00 %
19.05.2017 10:24 21,1 C 22,8 C 67 % 1006,3 hPa 0,0 l/m 6,7 km/h (2 Bft) N-NO 32 2 min 0,000 mm 3,8 UV-I 745 W/m 14,7 C 21,0 C 11,3 km/h (2 Bft) 100,00 %
19.05.2017 10:26 21,3 C 22,8 C 66 % 1006,3 hPa 0,0 l/m 5,6 km/h (1 Bft) O 88 2 min 0,000 mm 3,9 UV-I 748 W/m 14,7 C 21,3 C 8,0 km/h (2 Bft) 96,23 %
19.05.2017 10:28 21,4 C 22,8 C 61 % 1006,3 hPa 0,0 l/m 9,0 km/h (2 Bft) O-NO 71 2 min 0,000 mm 3,9 UV-I 754 W/m 13,6 C 20,5 C 14,5 km/h (3 Bft) 100,00 %
19.05.2017 10:30 21,4 C 22,8 C 61 % 1006,3 hPa 0,0 l/m 7,1 km/h (2 Bft) O-NO 63 2 min 0,000 mm 4,0 UV-I 759 W/m 13,6 C 21,1 C 12,9 km/h (3 Bft) 97,87 %
19.05.2017 10:32 21,3 C 22,8 C 63 % 1006,3 hPa 0,0 l/m 5,2 km/h (1 Bft) NO 46 2 min 0,000 mm 4,0 UV-I 761 W/m 14,0 C 21,3 C 9,7 km/h (2 Bft) 98,11 %
19.05.2017 10:34 21,4 C 22,8 C 63 % 1006,2 hPa 0,0 l/m 4,9 km/h (1 Bft) O-NO 69 2 min 0,000 mm 4,1 UV-I 766 W/m 14,1 C 21,4 C 8,0 km/h (2 Bft) 100,00 %
19.05.2017 10:36 21,4 C 22,8 C 62 % 1006,3 hPa 0,0 l/m 6,3 km/h (2 Bft) O-NO 70 2 min 0,000 mm 4,1 UV-I 769 W/m 13,8 C 21,4 C 12,9 km/h (3 Bft) 100,00 %
19.05.2017 10:38 21,5 C 22,8 C 62 % 1006,2 hPa 0,0 l/m 7,8 km/h (2 Bft) O-NO 74 2 min 0,000 mm 4,2 UV-I 774 W/m 13,9 C 21,0 C 11,3 km/h (2 Bft) 100,00 %
19.05.2017 10:40 21,7 C 22,8 C 62 % 1006,2 hPa 0,0 l/m 6,1 km/h (2 Bft) N-NO 26 2 min 0,000 mm 4,2 UV-I 777 W/m 14,1 C 21,7 C 9,7 km/h (2 Bft) 96,00 %
19.05.2017 10:42 21,9 C 22,8 C 60 % 1006,2 hPa 0,0 l/m 6,9 km/h (2 Bft) O-NO 62 2 min 0,000 mm 4,3 UV-I 780 W/m 13,8 C 21,7 C 12,9 km/h (3 Bft) 97,87 %
19.05.2017 10:44 21,9 C 22,8 C 61 % 1006,3 hPa 0,0 l/m 8,3 km/h (2 Bft) O-NO 67 2 min 0,000 mm 4,3 UV-I 785 W/m 14,0 C 21,2 C 14,5 km/h (3 Bft) 100,00 %
19.05.2017 10:46 22,0 C 22,8 C 60 % 1006,2 hPa 0,0 l/m 7,6 km/h (2 Bft) NO 55 2 min 0,000 mm 4,3 UV-I 788 W/m 13,9 C 21,6 C 12,9 km/h (3 Bft) 97,56 %
19.05.2017 10:48 22,1 C 22,8 C 58 % 1006,2 hPa 0,0 l/m 8,5 km/h (2 Bft) O 81 2 min 0,000 mm 4,4 UV-I 791 W/m 13,4 C 21,4 C 12,9 km/h (3 Bft) 100,00 %
19.05.2017 10:50 22,2 C 22,8 C 58 % 1006,2 hPa 0,0 l/m 6,7 km/h (2 Bft) O 87 2 min 0,000 mm 4,4 UV-I 795 W/m 13,5 C 22,1 C 11,3 km/h (2 Bft) 94,74 %
19.05.2017 10:52 22,3 C 22,8 C 63 % 1006,2 hPa 0,0 l/m 6,7 km/h (2 Bft) O-NO 63 2 min 0,000 mm 4,5 UV-I 798 W/m 14,9 C 22,2 C 12,9 km/h (3 Bft) 100,00 %
19.05.2017 10:54 22,4 C 22,8 C 60 % 1006,1 hPa 0,0 l/m 7,0 km/h (2 Bft) O-NO 77 2 min 0,000 mm 4,5 UV-I 802 W/m 14,2 C 22,2 C 12,9 km/h (3 Bft) 98,00 %
19.05.2017 10:56 22,3 C 22,8 C 61 % 1006,1 hPa 0,0 l/m 6,5 km/h (2 Bft) O 82 2 min 0,000 mm 4,5 UV-I 803 W/m 14,4 C 22,3 C 11,3 km/h (2 Bft) 97,22 %
19.05.2017 10:58 22,3 C 22,8 C 61 % 1006,1 hPa 0,0 l/m 7,2 km/h (2 Bft) O-NO 70 2 min 0,000 mm 4,6 UV-I 807 W/m 14,4 C 22,0 C 11,3 km/h (2 Bft) 97,87 %
19.05.2017 11:00 22,4 C 22,8 C 61 % 1006,1 hPa 0,0 l/m 8,8 km/h (2 Bft) NO 44 2 min 0,000 mm 4,7 UV-I 812 W/m 14,5 C 21,6 C 14,5 km/h (3 Bft) 98,21 %
19.05.2017 11:02 22,7 C 22,8 C 59 % 1006,1 hPa 0,0 l/m 8,1 km/h (2 Bft) NO 50 2 min 0,482 mm 4,7 UV-I 816 W/m 14,3 C 22,2 C 12,9 km/h (3 Bft) 94,74 %
19.05.2017 11:04 22,8 C 22,8 C 56 % 1006,1 hPa 0,0 l/m 6,2 km/h (2 Bft) O-NO 73 2 min 0,000 mm 4,7 UV-I 818 W/m 13,6 C 22,8 C 12,9 km/h (3 Bft) 100,00 %
19.05.2017 11:06 22,8 C 22,8 C 56 % 1006,1 hPa 0,0 l/m 6,1 km/h (2 Bft) O-NO 61 2 min 0,000 mm 4,8 UV-I 822 W/m 13,6 C 22,8 C 11,3 km/h (2 Bft) 100,00 %
19.05.2017 11:08 22,9 C 22,8 C 59 % 1006,0 hPa 0,0 l/m 8,6 km/h (2 Bft) NO 37 2 min 0,000 mm 4,8 UV-I 824 W/m 14,5 C 22,2 C 14,5 km/h (3 Bft) 100,00 %
19.05.2017 11:10 22,9 C 22,8 C 59 % 1006,0 hPa 0,0 l/m 6,1 km/h (2 Bft) NO 53 2 min 0,000 mm 4,8 UV-I 829 W/m 14,5 C 22,9 C 14,5 km/h (3 Bft) 97,87 %
19.05.2017 11:12 22,9 C 22,8 C 55 % 1006,1 hPa 0,0 l/m 9,0 km/h (2 Bft) O-NO 71 2 min 0,000 mm 4,9 UV-I 832 W/m 13,4 C 22,1 C 12,9 km/h (3 Bft) 97,56 %
19.05.2017 11:14 22,9 C 22,8 C 57 % 1006,1 hPa 0,0 l/m 8,6 km/h (2 Bft) O-NO 62 2 min 0,000 mm 4,9 UV-I 836 W/m 13,9 C 22,2 C 12,9 km/h (3 Bft) 100,00 %
19.05.2017 11:16 23,1 C 22,8 C 57 % 1006,0 hPa 0,0 l/m 9,8 km/h (2 Bft) NO 50 2 min 0,000 mm 5,0 UV-I 839 W/m 14,1 C 22,1 C 12,9 km/h (3 Bft) 95,45 %
19.05.2017 11:18 23,2 C 22,8 C 57 % 1006,0 hPa 0,0 l/m 7,8 km/h (2 Bft) NO 51 2 min 0,000 mm 5,0 UV-I 841 W/m 14,2 C 22,8 C 14,5 km/h (3 Bft) 100,00 %
19.05.2017 11:20 23,2 C 22,8 C 60 % 1006,0 hPa 0,0 l/m 7,5 km/h (2 Bft) NO 44 2 min 0,000 mm 5,0 UV-I 844 W/m 15,0 C 22,9 C 11,3 km/h (2 Bft) 100,00 %
19.05.2017 11:22 23,2 C 22,8 C 56 % 1005,9 hPa 0,0 l/m 8,0 km/h (2 Bft) O-NO 58 2 min 0,000 mm 5,1 UV-I 847 W/m 13,9 C 22,7 C 11,3 km/h (2 Bft) 94,34 %
19.05.2017 11:24 23,2 C 22,8 C 59 % 1005,9 hPa 0,0 l/m 6,0 km/h (2 Bft) NO 52 2 min 0,000 mm 5,1 UV-I 849 W/m 14,7 C 23,2 C 8,0 km/h (2 Bft) 100,00 %
19.05.2017 11:26 23,3 C 22,8 C 57 % 1005,9 hPa 0,0 l/m 7,1 km/h (2 Bft) O-NO 69 2 min 0,000 mm 5,1 UV-I 850 W/m 14,3 C 23,1 C 11,3 km/h (2 Bft) 95,12 %
19.05.2017 11:28 23,3 C 22,8 C 57 % 1005,9 hPa 0,0 l/m 11,3 km/h (2 Bft) O-NO 65 2 min 0,000 mm 5,2 UV-I 853 W/m 14,3 C 22,0 C 16,1 km/h (3 Bft) 98,11 %
19.05.2017 11:30 23,4 C 22,8 C 57 % 1005,9 hPa 0,0 l/m 7,2 km/h (2 Bft) O-NO 61 2 min 0,000 mm 5,2 UV-I 855 W/m 14,4 C 23,2 C 12,9 km/h (3 Bft) 100,00 %
19.05.2017 11:32 23,4 C 22,8 C 53 % 1005,9 hPa 0,0 l/m 10,1 km/h (2 Bft) O-NO 60 2 min 0,000 mm 5,3 UV-I 862 W/m 13,3 C 22,4 C 14,5 km/h (3 Bft) 96,23 %
19.05.2017 11:34 23,5 C 22,8 C 52 % 1005,9 hPa 0,0 l/m 9,3 km/h (2 Bft) O-NO 62 2 min 0,000 mm 5,3 UV-I 863 W/m 13,1 C 22,7 C 14,5 km/h (3 Bft) 94,00 %
19.05.2017 11:36 23,4 C 22,8 C 54 % 1005,8 hPa 0,0 l/m 10,8 km/h (2 Bft) O 79 2 min 0,000 mm 5,3 UV-I 866 W/m 13,6 C 22,2 C 14,5 km/h (3 Bft) 94,00 %
19.05.2017 11:38 23,6 C 22,8 C 56 % 1005,8 hPa 0,0 l/m 11,0 km/h (2 Bft) O-SO 108 2 min 0,000 mm 5,3 UV-I 868 W/m 14,3 C 22,4 C 16,1 km/h (3 Bft) 97,37 %
19.05.2017 11:40 23,7 C 22,8 C 52 % 1005,8 hPa 0,0 l/m 12,7 km/h (3 Bft) O-NO 67 2 min 0,000 mm 5,4 UV-I 868 W/m 13,2 C 22,2 C 16,1 km/h (3 Bft) 89,83 %
19.05.2017 11:42 23,6 C 22,8 C 54 % 1005,8 hPa 0,0 l/m 8,4 km/h (2 Bft) NO 38 2 min 0,000 mm 5,4 UV-I 872 W/m 13,7 C 23,0 C 12,9 km/h (3 Bft) 100,00 %
19.05.2017 11:44 23,7 C 22,8 C 56 % 1005,8 hPa 0,0 l/m 6,8 km/h (2 Bft) O-NO 76 2 min 0,000 mm 5,4 UV-I 874 W/m 14,4 C 23,6 C 14,5 km/h (3 Bft) 98,00 %
19.05.2017 11:46 23,8 C 22,8 C 54 % 1005,8 hPa 0,0 l/m 8,3 km/h (2 Bft) NO 56 2 min 0,000 mm 5,5 UV-I 875 W/m 13,9 C 23,3 C 12,9 km/h (3 Bft) 97,56 %
19.05.2017 11:48 23,9 C 22,8 C 55 % 1005,8 hPa 0,0 l/m 9,4 km/h (2 Bft) NO 37 2 min 0,000 mm 5,5 UV-I 877 W/m 14,3 C 23,1 C 16,1 km/h (3 Bft) 97,67 %
19.05.2017 11:50 23,9 C 22,8 C 56 % 1005,8 hPa 0,0 l/m 5,1 km/h (1 Bft) O-NO 73 2 min 0,000 mm 5,5 UV-I 877 W/m 14,6 C 23,9 C 11,3 km/h (2 Bft) 90,00 %
19.05.2017 11:52 24,1 C 22,8 C 54 % 1005,7 hPa 0,0 l/m 10,5 km/h (2 Bft) O-NO 68 2 min 0,000 mm 5,6 UV-I 879 W/m 14,2 C 23,1 C 17,7 km/h (3 Bft) 95,12 %
19.05.2017 11:54 24,1 C 22,8 C 53 % 1005,8 hPa 0,0 l/m 5,4 km/h (1 Bft) N-NO 22 2 min 0,000 mm 5,6 UV-I 881 W/m 13,9 C 24,1 C 8,0 km/h (2 Bft) 94,00 %
19.05.2017 11:56 24,2 C 22,8 C 55 % 1005,8 hPa 0,0 l/m 9,8 km/h (2 Bft) O-NO 74 2 min 0,000 mm 5,6 UV-I 884 W/m 14,6 C 23,3 C 17,7 km/h (3 Bft) 93,62 %
19.05.2017 11:58 24,2 C 22,8 C 52 % 1005,8 hPa 0,0 l/m 14,3 km/h (3 Bft) O 83 2 min 0,000 mm 5,6 UV-I 886 W/m 13,7 C 22,5 C 17,7 km/h (3 Bft) 96,23 %
19.05.2017 12:00 24,2 C 22,8 C 54 % 1005,7 hPa 0,0 l/m 7,3 km/h (2 Bft) O-NO 59 2 min 0,000 mm 5,7 UV-I 888 W/m 14,3 C 23,9 C 12,9 km/h (3 Bft) 94,74 %
19.05.2017 12:02 24,2 C 22,8 C 50 % 1005,8 hPa 0,0 l/m 12,2 km/h (2 Bft) NO 42 2 min 0,584 mm 5,7 UV-I 890 W/m 13,1 C 22,8 C 17,7 km/h (3 Bft) 96,23 %
19.05.2017 12:04 24,2 C 22,8 C 53 % 1005,7 hPa 0,0 l/m 10,4 km/h (2 Bft) NO 50 2 min 0,000 mm 5,7 UV-I 891 W/m 14,0 C 23,2 C 14,5 km/h (3 Bft) 92,68 %
19.05.2017 12:06 24,3 C 22,8 C 53 % 1005,7 hPa 0,0 l/m 10,1 km/h (2 Bft) N-NO 24 2 min 0,000 mm 5,7 UV-I 892 W/m 14,1 C 23,4 C 14,5 km/h (3 Bft) 92,00 %
19.05.2017 12:08 24,4 C 22,8 C 55 % 1005,7 hPa 0,0 l/m 10,3 km/h (2 Bft) O-NO 68 2 min 0,000 mm 5,7 UV-I 894 W/m 14,8 C 23,4 C 17,7 km/h (3 Bft) 89,36 %
19.05.2017 12:10 24,4 C 22,8 C 51 % 1005,6 hPa 0,0 l/m 12,0 km/h (2 Bft) O-NO 64 2 min 0,000 mm 5,8 UV-I 895 W/m 13,6 C 23,1 C 17,7 km/h (3 Bft) 98,00 %
19.05.2017 12:12 24,4 C 22,8 C 50 % 1005,6 hPa 0,0 l/m 11,8 km/h (2 Bft) O-NO 69 2 min 0,000 mm 5,8 UV-I 897 W/m 13,3 C 23,1 C 16,1 km/h (3 Bft) 95,56 %
19.05.2017 12:14 24,4 C 22,8 C 50 % 1005,7 hPa 0,0 l/m 10,0 km/h (2 Bft) O-NO 58 2 min 0,000 mm 5,8 UV-I 897 W/m 13,3 C 23,5 C 14,5 km/h (3 Bft) 92,31 %
19.05.2017 12:16 24,4 C 22,8 C 50 % 1005,6 hPa 0,0 l/m 10,9 km/h (2 Bft) NO 44 2 min 0,000 mm 5,8 UV-I 898 W/m 13,3 C 23,3 C 16,1 km/h (3 Bft) 100,00 %
19.05.2017 12:18 24,6 C 22,8 C 51 % 1005,5 hPa 0,0 l/m 8,6 km/h (2 Bft) O 84 2 min 0,000 mm 5,8 UV-I 900 W/m 13,8 C 24,0 C 14,5 km/h (3 Bft) 98,11 %
19.05.2017 12:20 24,7 C 22,8 C 51 % 1005,5 hPa 0,0 l/m 12,8 km/h (3 Bft) NO 42 2 min 0,000 mm 5,8 UV-I 901 W/m 13,9 C 23,3 C 19,3 km/h (3 Bft) 90,24 %
19.05.2017 12:22 24,7 C 22,8 C 54 % 1005,5 hPa 0,0 l/m 12,4 km/h (3 Bft) NO 35 2 min 0,000 mm 5,9 UV-I 904 W/m 14,8 C 23,4 C 19,3 km/h (3 Bft) 97,87 %
19.05.2017 12:24 24,7 C 22,8 C 53 % 1005,5 hPa 0,0 l/m 9,4 km/h (2 Bft) NO 42 2 min 0,000 mm 5,9 UV-I 904 W/m 14,5 C 24,0 C 14,5 km/h (3 Bft) 90,57 %
19.05.2017 12:26 24,8 C 22,8 C 55 % 1005,4 hPa 0,0 l/m 10,6 km/h (2 Bft) NO 43 2 min 0,000 mm 5,9 UV-I 908 W/m 15,1 C 23,8 C 16,1 km/h (3 Bft) 97,56 %
19.05.2017 12:28 24,9 C 23,3 C 51 % 1005,4 hPa 0,0 l/m 10,2 km/h (2 Bft) NO 37 2 min 0,000 mm 5,9 UV-I 907 W/m 14,1 C 24,0 C 16,1 km/h (3 Bft) 92,68 %
19.05.2017 12:30 24,9 C 23,3 C 47 % 1005,4 hPa 0,0 l/m 8,0 km/h (2 Bft) NO 51 2 min 0,000 mm 5,9 UV-I 908 W/m 12,8 C 24,5 C 12,9 km/h (3 Bft) 92,45 %
19.05.2017 12:32 25,0 C 23,3 C 50 % 1005,3 hPa 0,0 l/m 10,9 km/h (2 Bft) NO 51 2 min 0,000 mm 5,9 UV-I 907 W/m 13,8 C 24,0 C 17,7 km/h (3 Bft) 100,00 %
19.05.2017 12:34 25,0 C 23,3 C 49 % 1005,4 hPa 0,0 l/m 9,2 km/h (2 Bft) N-NO 15 2 min 0,000 mm 5,9 UV-I 907 W/m 13,5 C 24,3 C 16,1 km/h (3 Bft) 100,00 %
19.05.2017 12:36 25,0 C 23,3 C 53 % 1005,3 hPa 0,0 l/m 8,7 km/h (2 Bft) O-NO 63 2 min 0,000 mm 6,0 UV-I 908 W/m 14,7 C 24,4 C 12,9 km/h (3 Bft) 94,00 %
19.05.2017 12:38 25,1 C 23,3 C 51 % 1005,3 hPa 0,0 l/m 11,3 km/h (2 Bft) O-NO 67 2 min 0,000 mm 6,0 UV-I 908 W/m 14,2 C 24,0 C 17,7 km/h (3 Bft) 100,00 %
19.05.2017 12:40 25,0 C 23,3 C 48 % 1005,3 hPa 0,0 l/m 14,0 km/h (3 Bft) O-NO 64 2 min 0,000 mm 6,0 UV-I 912 W/m 13,2 C 23,5 C 19,3 km/h (3 Bft) 94,00 %
19.05.2017 12:42 25,1 C 23,3 C 48 % 1005,2 hPa 0,0 l/m 8,2 km/h (2 Bft) O-NO 63 2 min 0,000 mm 6,0 UV-I 914 W/m 13,3 C 24,7 C 14,5 km/h (3 Bft) 97,37 %
19.05.2017 12:44 25,2 C 23,3 C 51 % 1005,2 hPa 0,0 l/m 10,6 km/h (2 Bft) O-NO 58 2 min 0,000 mm 6,0 UV-I 914 W/m 14,3 C 24,3 C 17,7 km/h (3 Bft) 94,00 %
19.05.2017 12:46 25,2 C 23,3 C 53 % 1005,2 hPa 0,0 l/m 12,3 km/h (3 Bft) O-NO 65 2 min 0,000 mm 6,0 UV-I 911 W/m 14,9 C 24,0 C 19,3 km/h (3 Bft) 92,45 %
19.05.2017 12:48 25,2 C 23,3 C 46 % 1005,3 hPa 0,0 l/m 10,6 km/h (2 Bft) NO 53 2 min 0,000 mm 6,0 UV-I 911 W/m 12,7 C 24,3 C 16,1 km/h (3 Bft) 100,00 %
19.05.2017 12:50 25,3 C 23,3 C 45 % 1005,2 hPa 0,0 l/m 13,4 km/h (3 Bft) O-NO 61 2 min 0,000 mm 6,0 UV-I 912 W/m 12,5 C 23,9 C 19,3 km/h (3 Bft) 100,00 %
19.05.2017 12:52 25,3 C 23,3 C 45 % 1005,2 hPa 0,0 l/m 11,9 km/h (2 Bft) O-NO 65 2 min 0,000 mm 6,0 UV-I 914 W/m 12,5 C 24,1 C 19,3 km/h (3 Bft) 100,00 %
19.05.2017 12:54 25,3 C 23,3 C 49 % 1005,2 hPa 0,0 l/m 11,0 km/h (2 Bft) O-NO 59 2 min 0,000 mm 6,0 UV-I 913 W/m 13,8 C 24,3 C 17,7 km/h (3 Bft) 100,00 %
19.05.2017 12:56 25,4 C 23,3 C 48 % 1005,2 hPa 0,0 l/m 13,9 km/h (3 Bft) NO 38 2 min 0,000 mm 6,0 UV-I 913 W/m 13,6 C 23,9 C 19,3 km/h (3 Bft) 96,00 %
19.05.2017 12:58 25,5 C 23,3 C 47 % 1005,2 hPa 0,0 l/m 11,3 km/h (2 Bft) O-NO 69 2 min 0,000 mm 6,0 UV-I 915 W/m 13,3 C 24,5 C 16,1 km/h (3 Bft) 100,00 %
19.05.2017 13:00 25,5 C 23,3 C 48 % 1005,1 hPa 0,0 l/m 9,2 km/h (2 Bft) O-NO 57 2 min 0,000 mm 6,0 UV-I 915 W/m 13,7 C 24,9 C 12,9 km/h (3 Bft) 95,45 %
19.05.2017 13:02 25,5 C 23,3 C 46 % 1005,1 hPa 0,0 l/m 14,5 km/h (3 Bft) O 81 2 min 0,635 mm 6,0 UV-I 913 W/m 13,0 C 24,0 C 19,3 km/h (3 Bft) 96,61 %
19.05.2017 13:04 25,5 C 23,3 C 45 % 1005,1 hPa 0,0 l/m 12,6 km/h (3 Bft) O-NO 71 2 min 0,000 mm 6,0 UV-I 915 W/m 12,7 C 24,3 C 20,9 km/h (4 Bft) 100,00 %
19.05.2017 13:06 25,6 C 23,3 C 47 % 1005,1 hPa 0,0 l/m 9,9 km/h (2 Bft) O-NO 61 2 min 0,000 mm 6,0 UV-I 914 W/m 13,4 C 24,8 C 16,1 km/h (3 Bft) 100,00 %
19.05.2017 13:08 25,7 C 23,3 C 50 % 1005,0 hPa 0,0 l/m 9,0 km/h (2 Bft) NO 56 2 min 0,000 mm 6,0 UV-I 912 W/m 14,5 C 25,1 C 17,7 km/h (3 Bft) 98,53 %
19.05.2017 13:10 25,7 C 23,3 C 43 % 1005,0 hPa 0,0 l/m 9,7 km/h (2 Bft) NO 40 2 min 0,000 mm 6,0 UV-I 914 W/m 12,2 C 25,0 C 14,5 km/h (3 Bft) 94,00 %
19.05.2017 13:12 25,8 C 23,3 C 48 % 1005,0 hPa 0,0 l/m 8,6 km/h (2 Bft) NO 39 2 min 0,000 mm 6,0 UV-I 912 W/m 13,9 C 25,3 C 16,1 km/h (3 Bft) 92,45 %
19.05.2017 13:14 25,9 C 23,3 C 49 % 1005,0 hPa 0,0 l/m 10,1 km/h (2 Bft) N-NO 31 2 min 0,000 mm 6,0 UV-I 909 W/m 14,4 C 25,1 C 19,3 km/h (3 Bft) 94,74 %
19.05.2017 13:16 25,9 C 23,3 C 46 % 1005,0 hPa 0,0 l/m 12,5 km/h (3 Bft) N-NO 31 2 min 0,000 mm 6,0 UV-I 911 W/m 13,4 C 24,7 C 20,9 km/h (4 Bft) 94,00 %
19.05.2017 13:18 25,8 C 23,3 C 43 % 1005,0 hPa 0,0 l/m 10,2 km/h (2 Bft) NO 52 2 min 0,000 mm 6,0 UV-I 912 W/m 12,3 C 25,0 C 17,7 km/h (3 Bft) 95,12 %
19.05.2017 13:20 25,8 C 23,3 C 42 % 1005,1 hPa 0,0 l/m 6,8 km/h (2 Bft) NO 54 2 min 0,000 mm 6,0 UV-I 914 W/m 11,9 C 25,7 C 9,7 km/h (2 Bft) 94,00 %
19.05.2017 13:22 25,9 C 23,3 C 44 % 1005,0 hPa 0,0 l/m 6,7 km/h (2 Bft) O-NO 59 2 min 0,000 mm 6,0 UV-I 913 W/m 12,7 C 25,8 C 9,7 km/h (2 Bft) 98,00 %
19.05.2017 13:24 26,1 C 23,3 C 48 % 1005,0 hPa 0,0 l/m 7,3 km/h (2 Bft) O-NO 58 2 min 0,000 mm 6,0 UV-I 910 W/m 14,2 C 25,9 C 16,1 km/h (3 Bft) 92,68 %
19.05.2017 13:26 26,1 C 23,3 C 43 % 1005,0 hPa 0,0 l/m 12,1 km/h (2 Bft) NO 49 2 min 0,000 mm 6,0 UV-I 908 W/m 12,5 C 25,0 C 17,7 km/h (3 Bft) 92,86 %
19.05.2017 13:28 26,2 C 23,3 C 43 % 1004,9 hPa 0,0 l/m 8,8 km/h (2 Bft) O-NO 67 2 min 0,000 mm 6,0 UV-I 906 W/m 12,6 C 25,7 C 14,5 km/h (3 Bft) 97,56 %
19.05.2017 13:30 26,2 C 23,3 C 48 % 1004,9 hPa 0,0 l/m 5,0 km/h (1 Bft) N-NO 26 2 min 0,000 mm 5,9 UV-I 901 W/m 14,3 C 26,2 C 12,9 km/h (3 Bft) 92,45 %
19.05.2017 13:32 26,2 C 23,3 C 48 % 1004,9 hPa 0,0 l/m 7,4 km/h (2 Bft) NO 40 2 min 0,000 mm 5,9 UV-I 903 W/m 14,3 C 26,0 C 12,9 km/h (3 Bft) 97,78 %
19.05.2017 13:34 26,3 C 23,3 C 44 % 1004,9 hPa 0,0 l/m 10,1 km/h (2 Bft) O-NO 63 2 min 0,000 mm 5,9 UV-I 898 W/m 13,1 C 25,6 C 17,7 km/h (3 Bft) 95,74 %
19.05.2017 13:36 26,3 C 23,3 C 39 % 1004,9 hPa 0,0 l/m 11,3 km/h (2 Bft) NO 41 2 min 0,000 mm 5,9 UV-I 899 W/m 11,2 C 25,4 C 17,7 km/h (3 Bft) 94,74 %
19.05.2017 13:38 26,3 C 23,3 C 42 % 1004,9 hPa 0,0 l/m 9,8 km/h (2 Bft) O-NO 59 2 min 0,000 mm 5,9 UV-I 898 W/m 12,3 C 25,6 C 16,1 km/h (3 Bft) 96,43 %
19.05.2017 13:40 26,3 C 23,3 C 41 % 1004,8 hPa 0,0 l/m 9,3 km/h (2 Bft) O-NO 69 2 min 0,000 mm 5,8 UV-I 897 W/m 12,0 C 25,7 C 14,5 km/h (3 Bft) 92,00 %
19.05.2017 13:42 26,3 C 23,3 C 43 % 1004,8 hPa 0,0 l/m 7,9 km/h (2 Bft) NO 51 2 min 0,000 mm 5,8 UV-I 894 W/m 12,7 C 26,0 C 12,9 km/h (3 Bft) 95,12 %
19.05.2017 13:44 26,3 C 23,3 C 47 % 1004,8 hPa 0,0 l/m 7,6 km/h (2 Bft) NO 40 2 min 0,000 mm 5,8 UV-I 893 W/m 14,1 C 26,0 C 16,1 km/h (3 Bft) 92,00 %
19.05.2017 13:46 26,3 C 23,3 C 40 % 1004,8 hPa 0,0 l/m 9,1 km/h (2 Bft) NO 45 2 min 0,000 mm 5,8 UV-I 892 W/m 11,6 C 25,8 C 14,5 km/h (3 Bft) 92,68 %
19.05.2017 13:48 26,3 C 23,3 C 46 % 1004,8 hPa 0,0 l/m 11,9 km/h (2 Bft) NO 41 2 min 0,000 mm 5,8 UV-I 891 W/m 13,7 C 25,3 C 19,3 km/h (3 Bft) 94,00 %
19.05.2017 13:50 26,3 C 23,3 C 43 % 1004,7 hPa 0,0 l/m 9,0 km/h (2 Bft) NO 42 2 min 0,000 mm 5,8 UV-I 890 W/m 12,7 C 25,8 C 16,1 km/h (3 Bft) 92,68 %
19.05.2017 13:52 26,3 C 23,3 C 41 % 1004,7 hPa 0,0 l/m 9,3 km/h (2 Bft) NO 52 2 min 0,000 mm 5,8 UV-I 889 W/m 12,0 C 25,7 C 17,7 km/h (3 Bft) 92,86 %
19.05.2017 13:54 26,5 C 23,3 C 42 % 1004,7 hPa 0,0 l/m 11,9 km/h (2 Bft) O 84 2 min 0,000 mm 5,7 UV-I 888 W/m 12,5 C 25,5 C 16,1 km/h (3 Bft) 89,47 %
19.05.2017 13:56 26,6 C 23,3 C 41 % 1004,7 hPa 0,0 l/m 14,4 km/h (3 Bft) O-NO 62 2 min 0,000 mm 5,7 UV-I 886 W/m 12,2 C 25,3 C 19,3 km/h (3 Bft) 94,00 %
19.05.2017 13:58 26,4 C 23,3 C 40 % 1004,7 hPa 0,0 l/m 13,3 km/h (3 Bft) O-NO 69 2 min 0,000 mm 5,7 UV-I 882 W/m 11,7 C 25,2 C 17,7 km/h (3 Bft) 94,34 %
19.05.2017 14:00 26,4 C 23,3 C 40 % 1004,7 hPa 0,0 l/m 11,1 km/h (2 Bft) O-NO 77 2 min 0,000 mm 5,6 UV-I 882 W/m 11,7 C 25,5 C 19,3 km/h (3 Bft) 92,68 %
19.05.2017 14:02 26,4 C 23,3 C 41 % 1004,7 hPa 0,0 l/m 15,0 km/h (3 Bft) O-NO 74 2 min 0,661 mm 5,6 UV-I 879 W/m 12,1 C 25,0 C 19,3 km/h (3 Bft) 90,48 %
19.05.2017 14:04 26,4 C 23,9 C 39 % 1004,8 hPa 0,0 l/m 12,7 km/h (3 Bft) O-NO 64 2 min 0,000 mm 5,6 UV-I 876 W/m 11,3 C 25,3 C 16,1 km/h (3 Bft) 94,83 %
19.05.2017 14:06 26,4 C 23,9 C 38 % 1004,8 hPa 0,0 l/m 9,5 km/h (2 Bft) NO 54 2 min 0,000 mm 5,6 UV-I 875 W/m 10,9 C 25,8 C 14,5 km/h (3 Bft) 92,86 %
19.05.2017 14:08 26,5 C 23,9 C 38 % 1004,8 hPa 0,0 l/m 11,2 km/h (2 Bft) O-NO 62 2 min 0,000 mm 5,5 UV-I 874 W/m 11,0 C 25,6 C 17,7 km/h (3 Bft) 93,48 %
19.05.2017 14:10 26,5 C 23,9 C 37 % 1004,8 hPa 0,0 l/m 11,2 km/h (2 Bft) NO 46 2 min 0,000 mm 5,5 UV-I 872 W/m 10,6 C 25,6 C 14,5 km/h (3 Bft) 92,45 %
19.05.2017 14:12 26,5 C 23,9 C 44 % 1004,8 hPa 0,0 l/m 7,2 km/h (2 Bft) N-NO 31 2 min 0,000 mm 5,5 UV-I 869 W/m 13,2 C 26,3 C 12,9 km/h (3 Bft) 97,44 %
19.05.2017 14:14 26,6 C 23,9 C 45 % 1004,8 hPa 0,0 l/m 5,3 km/h (1 Bft) O-NO 78 2 min 0,000 mm 5,4 UV-I 866 W/m 13,7 C 26,6 C 8,0 km/h (2 Bft) 94,00 %
19.05.2017 14:16 26,7 C 23,9 C 41 % 1004,7 hPa 0,0 l/m 12,6 km/h (3 Bft) O-NO 61 2 min 0,000 mm 5,4 UV-I 865 W/m 12,3 C 25,7 C 17,7 km/h (3 Bft) 93,18 %
19.05.2017 14:18 26,7 C 23,9 C 41 % 1004,8 hPa 0,0 l/m 8,8 km/h (2 Bft) O-NO 61 2 min 0,000 mm 5,4 UV-I 862 W/m 12,3 C 26,2 C 14,5 km/h (3 Bft) 96,23 %
19.05.2017 14:20 26,8 C 23,9 C 41 % 1004,7 hPa 0,0 l/m 9,5 km/h (2 Bft) O 80 2 min 0,000 mm 5,4 UV-I 860 W/m 12,4 C 26,2 C 17,7 km/h (3 Bft) 97,87 %
19.05.2017 14:22 26,6 C 23,9 C 43 % 1004,7 hPa 0,0 l/m 10,4 km/h (2 Bft) NO 37 2 min 0,000 mm 5,3 UV-I 854 W/m 13,0 C 25,9 C 16,1 km/h (3 Bft) 95,12 %
19.05.2017 14:24 26,5 C 23,9 C 45 % 1004,7 hPa 0,0 l/m 7,0 km/h (2 Bft) NO 40 2 min 0,000 mm 5,3 UV-I 850 W/m 13,6 C 26,4 C 12,9 km/h (3 Bft) 98,11 %
19.05.2017 14:26 26,7 C 23,9 C 41 % 1004,7 hPa 0,0 l/m 5,7 km/h (1 Bft) O 84 2 min 0,000 mm 5,2 UV-I 847 W/m 12,3 C 26,7 C 11,3 km/h (2 Bft) 100,00 %
19.05.2017 14:28 26,7 C 23,9 C 45 % 1004,6 hPa 0,0 l/m 9,3 km/h (2 Bft) O-NO 60 2 min 0,000 mm 5,2 UV-I 846 W/m 13,8 C 26,2 C 12,9 km/h (3 Bft) 100,00 %
19.05.2017 14:30 26,8 C 23,9 C 45 % 1004,7 hPa 0,0 l/m 11,5 km/h (2 Bft) O-NO 66 2 min 0,000 mm 5,2 UV-I 843 W/m 13,9 C 25,9 C 17,7 km/h (3 Bft) 98,00 %
19.05.2017 14:32 26,7 C 23,9 C 44 % 1004,7 hPa 0,0 l/m 8,9 km/h (2 Bft) NO 53 2 min 0,000 mm 5,1 UV-I 838 W/m 13,4 C 26,2 C 14,5 km/h (3 Bft) 97,37 %
19.05.2017 14:34 26,6 C 23,9 C 39 % 1004,7 hPa 0,0 l/m 7,0 km/h (2 Bft) NO 39 2 min 0,000 mm 5,1 UV-I 838 W/m 11,5 C 26,5 C 11,3 km/h (2 Bft) 100,00 %
19.05.2017 14:36 26,6 C 23,9 C 43 % 1004,7 hPa 0,0 l/m 6,3 km/h (2 Bft) O-NO 66 2 min 0,000 mm 5,1 UV-I 836 W/m 13,0 C 26,6 C 12,9 km/h (3 Bft) 97,56 %
19.05.2017 14:38 26,8 C 23,9 C 40 % 1004,7 hPa 0,0 l/m 11,5 km/h (2 Bft) N-NO 29 2 min 0,000 mm 5,0 UV-I 833 W/m 12,1 C 25,9 C 16,1 km/h (3 Bft) 98,31 %
19.05.2017 14:40 26,6 C 23,9 C 41 % 1004,6 hPa 0,0 l/m 8,6 km/h (2 Bft) NO 40 2 min 0,000 mm 5,0 UV-I 831 W/m 12,2 C 26,2 C 14,5 km/h (3 Bft) 100,00 %
19.05.2017 14:42 26,6 C 23,9 C 46 % 1004,6 hPa 0,0 l/m 5,9 km/h (2 Bft) NO 55 2 min 0,000 mm 5,0 UV-I 821 W/m 14,0 C 26,6 C 11,3 km/h (2 Bft) 98,11 %
19.05.2017 14:44 26,5 C 23,9 C 46 % 1004,6 hPa 0,0 l/m 3,8 km/h (1 Bft) N-NO 29 2 min 0,000 mm 4,9 UV-I 824 W/m 13,9 C 26,5 C 8,0 km/h (2 Bft) 98,08 %
19.05.2017 14:46 26,7 C 23,9 C 42 % 1004,7 hPa 0,0 l/m 7,6 km/h (2 Bft) NO 44 2 min 0,000 mm 4,9 UV-I 820 W/m 12,7 C 26,5 C 14,5 km/h (3 Bft) 100,00 %
19.05.2017 14:48 26,9 C 23,9 C 41 % 1004,6 hPa 0,0 l/m 7,9 km/h (2 Bft) O 83 2 min 0,000 mm 4,9 UV-I 816 W/m 12,5 C 26,6 C 14,5 km/h (3 Bft) 98,00 %
19.05.2017 14:50 27,0 C 23,9 C 39 % 1004,6 hPa 0,0 l/m 12,6 km/h (3 Bft) O 79 2 min 0,000 mm 4,8 UV-I 813 W/m 11,8 C 26,0 C 17,7 km/h (3 Bft) 97,62 %
19.05.2017 14:52 27,0 C 23,9 C 42 % 1004,6 hPa 0,0 l/m 9,3 km/h (2 Bft) NO 46 2 min 0,000 mm 4,8 UV-I 812 W/m 13,0 C 26,5 C 17,7 km/h (3 Bft) 100,00 %
19.05.2017 14:54 26,9 C 23,9 C 39 % 1004,6 hPa 0,0 l/m 12,4 km/h (3 Bft) NO 36 2 min 0,000 mm 4,8 UV-I 807 W/m 11,8 C 25,9 C 16,1 km/h (3 Bft) 97,73 %
19.05.2017 14:56 26,9 C 23,9 C 35 % 1004,6 hPa 0,0 l/m 5,7 km/h (1 Bft) N-NO 22 2 min 0,000 mm 4,7 UV-I 803 W/m 10,1 C 26,9 C 11,3 km/h (2 Bft) 98,00 %
19.05.2017 14:58 26,9 C 23,9 C 43 % 1004,6 hPa 0,0 l/m 5,9 km/h (2 Bft) NO 35 2 min 0,000 mm 4,7 UV-I 801 W/m 13,2 C 26,9 C 14,5 km/h (3 Bft) 100,00 %
19.05.2017 15:00 26,8 C 23,9 C 42 % 1004,6 hPa 0,0 l/m 8,0 km/h (2 Bft) N-NO 21 2 min 0,000 mm 4,6 UV-I 797 W/m 12,8 C 26,5 C 16,1 km/h (3 Bft) 94,34 %
19.05.2017 15:02 26,8 C 23,9 C 44 % 1004,6 hPa 0,0 l/m 6,9 km/h (2 Bft) O-NO 57 2 min 0,635 mm 4,6 UV-I 794 W/m 13,5 C 26,7 C 12,9 km/h (3 Bft) 98,00 %
19.05.2017 15:04 26,8 C 23,9 C 41 % 1004,6 hPa 0,0 l/m 11,3 km/h (2 Bft) N-NO 30 2 min 0,000 mm 4,5 UV-I 790 W/m 12,4 C 26,0 C 16,1 km/h (3 Bft) 100,00 %
19.05.2017 15:06 26,7 C 23,9 C 39 % 1004,5 hPa 0,0 l/m 4,5 km/h (1 Bft) N-NO 26 2 min 0,000 mm 4,5 UV-I 787 W/m 11,6 C 26,7 C 14,5 km/h (3 Bft) 95,74 %
19.05.2017 15:08 26,7 C 23,9 C 45 % 1004,5 hPa 0,0 l/m 2,9 km/h (1 Bft) N-NO 32 2 min 0,000 mm 4,4 UV-I 781 W/m 13,8 C 26,7 C 8,0 km/h (2 Bft) 100,00 %
19.05.2017 15:10 26,7 C 23,9 C 42 % 1004,5 hPa 0,0 l/m 7,1 km/h (2 Bft) NO 39 2 min 0,000 mm 4,4 UV-I 778 W/m 12,7 C 26,6 C 12,9 km/h (3 Bft) 97,56 %
19.05.2017 15:12 26,9 C 23,9 C 41 % 1004,5 hPa 0,0 l/m 7,8 km/h (2 Bft) O-NO 76 2 min 0,000 mm 4,4 UV-I 774 W/m 12,5 C 26,6 C 12,9 km/h (3 Bft) 98,00 %
19.05.2017 15:14 27,0 C 23,9 C 42 % 1004,4 hPa 0,0 l/m 11,4 km/h (2 Bft) NO 51 2 min 0,000 mm 4,3 UV-I 772 W/m 13,0 C 26,2 C 19,3 km/h (3 Bft) 98,21 %
19.05.2017 15:16 27,1 C 23,9 C 41 % 1004,5 hPa 0,0 l/m 7,1 km/h (2 Bft) O-NO 62 2 min 0,000 mm 4,3 UV-I 767 W/m 12,7 C 27,0 C 9,7 km/h (2 Bft) 97,87 %
19.05.2017 15:18 27,1 C 23,9 C 43 % 1004,5 hPa 0,0 l/m 6,4 km/h (2 Bft) NO 44 2 min 0,000 mm 4,2 UV-I 764 W/m 13,4 C 27,1 C 17,7 km/h (3 Bft) 100,00 %
19.05.2017 15:20 27,1 C 23,9 C 42 % 1004,5 hPa 0,0 l/m 9,0 km/h (2 Bft) N-NO 26 2 min 0,000 mm 4,2 UV-I 759 W/m 13,1 C 26,6 C 16,1 km/h (3 Bft) 98,00 %
19.05.2017 15:22 27,1 C 23,9 C 37 % 1004,4 hPa 0,0 l/m 9,4 km/h (2 Bft) N-NO 29 2 min 0,000 mm 4,2 UV-I 756 W/m 11,1 C 26,6 C 12,9 km/h (3 Bft) 100,00 %
19.05.2017 15:24 26,9 C 23,9 C 39 % 1004,4 hPa 0,0 l/m 5,7 km/h (1 Bft) N-NO 22 2 min 0,000 mm 4,1 UV-I 753 W/m 11,8 C 26,9 C 9,7 km/h (2 Bft) 98,00 %
19.05.2017 15:26 26,9 C 23,9 C 46 % 1004,4 hPa 0,0 l/m 4,5 km/h (1 Bft) NO 36 2 min 0,000 mm 4,1 UV-I 748 W/m 14,3 C 26,9 C 6,4 km/h (2 Bft) 100,00 %
19.05.2017 15:28 27,1 C 23,9 C 46 % 1004,3 hPa 0,0 l/m 7,5 km/h (2 Bft) N 11 2 min 0,000 mm 4,0 UV-I 744 W/m 14,5 C 26,9 C 12,9 km/h (3 Bft) 100,00 %
19.05.2017 15:30 27,1 C 23,9 C 42 % 1004,4 hPa 0,0 l/m 8,5 km/h (2 Bft) N-NO 13 2 min 0,000 mm 4,0 UV-I 740 W/m 13,1 C 26,7 C 19,3 km/h (3 Bft) 96,92 %
19.05.2017 15:32 26,8 C 23,9 C 38 % 1004,3 hPa 0,0 l/m 7,6 km/h (2 Bft) NO 38 2 min 0,000 mm 3,9 UV-I 738 W/m 11,3 C 26,6 C 9,7 km/h (2 Bft) 97,56 %
19.05.2017 15:34 26,9 C 23,9 C 39 % 1004,3 hPa 0,0 l/m 8,5 km/h (2 Bft) NO 35 2 min 0,000 mm 3,9 UV-I 732 W/m 11,8 C 26,5 C 14,5 km/h (3 Bft) 97,87 %
19.05.2017 15:36 27,1 C 23,9 C 42 % 1004,3 hPa 0,0 l/m 8,2 km/h (2 Bft) N-NO 18 2 min 0,000 mm 3,8 UV-I 726 W/m 13,1 C 26,8 C 12,9 km/h (3 Bft) 97,87 %
19.05.2017 15:38 27,1 C 23,9 C 41 % 1004,2 hPa 0,0 l/m 10,2 km/h (2 Bft) N-NO 30 2 min 0,000 mm 3,8 UV-I 722 W/m 12,7 C 26,5 C 14,5 km/h (3 Bft) 97,56 %
19.05.2017 15:40 27,1 C 23,9 C 42 % 1004,2 hPa 0,0 l/m 8,7 km/h (2 Bft) NO 51 2 min 0,000 mm 3,7 UV-I 721 W/m 13,1 C 26,7 C 14,5 km/h (3 Bft) 98,31 %
19.05.2017 15:42 27,2 C 23,9 C 37 % 1004,1 hPa 0,0 l/m 8,2 km/h (2 Bft) N-NO 22 2 min 0,000 mm 3,7 UV-I 715 W/m 11,2 C 26,9 C 14,5 km/h (3 Bft) 97,87 %
19.05.2017 15:44 27,3 C 23,9 C 33 % 1004,1 hPa 0,0 l/m 13,9 km/h (3 Bft) NO 50 2 min 0,000 mm 3,6 UV-I 708 W/m 9,6 C 26,2 C 22,5 km/h (4 Bft) 94,74 %
19.05.2017 15:46 27,3 C 23,9 C 36 % 1004,1 hPa 0,0 l/m 7,2 km/h (2 Bft) N-NO 13 2 min 0,000 mm 3,6 UV-I 704 W/m 10,9 C 27,2 C 11,3 km/h (2 Bft) 92,45 %
19.05.2017 15:48 27,2 C 23,9 C 39 % 1004,1 hPa 0,0 l/m 3,7 km/h (1 Bft) NO 44 2 min 0,000 mm 3,5 UV-I 699 W/m 12,0 C 27,2 C 8,0 km/h (2 Bft) 97,73 %
19.05.2017 15:50 27,1 C 23,9 C 39 % 1004,2 hPa 0,0 l/m 6,7 km/h (2 Bft) N-NO 24 2 min 0,000 mm 3,5 UV-I 695 W/m 11,9 C 27,0 C 16,1 km/h (3 Bft) 95,45 %
19.05.2017 15:52 26,9 C 23,9 C 40 % 1004,1 hPa 0,0 l/m 9,0 km/h (2 Bft) N-NO 19 2 min 0,000 mm 3,4 UV-I 690 W/m 12,1 C 26,4 C 17,7 km/h (3 Bft) 88,00 %
19.05.2017 15:54 26,8 C 23,9 C 39 % 1004,1 hPa 0,0 l/m 7,0 km/h (2 Bft) N-NO 12 2 min 0,000 mm 3,4 UV-I 685 W/m 11,7 C 26,7 C 14,5 km/h (3 Bft) 94,34 %
19.05.2017 15:56 26,8 C 23,9 C 39 % 1004,1 hPa 0,0 l/m 8,9 km/h (2 Bft) NO 39 2 min 0,000 mm 3,3 UV-I 682 W/m 11,7 C 26,3 C 12,9 km/h (3 Bft) 97,37 %
19.05.2017 15:58 26,9 C 23,9 C 37 % 1004,0 hPa 0,0 l/m 11,6 km/h (2 Bft) NO 40 2 min 0,000 mm 3,3 UV-I 677 W/m 11,0 C 26,0 C 20,9 km/h (4 Bft) 94,00 %
19.05.2017 16:00 27,0 C 23,9 C 38 % 1004,0 hPa 0,0 l/m 10,3 km/h (2 Bft) NO 40 2 min 0,000 mm 3,2 UV-I 671 W/m 11,5 C 26,3 C 16,1 km/h (3 Bft) 94,87 %
19.05.2017 16:02 27,0 C 23,9 C 40 % 1003,9 hPa 0,0 l/m 9,4 km/h (2 Bft) N 5 2 min 0,559 mm 3,2 UV-I 668 W/m 12,2 C 26,5 C 14,5 km/h (3 Bft) 94,74 %
19.05.2017 16:04 27,0 C 23,9 C 41 % 1003,9 hPa 0,0 l/m 10,1 km/h (2 Bft) NO 34 2 min 0,000 mm 3,2 UV-I 663 W/m 12,6 C 26,4 C 20,9 km/h (4 Bft) 94,87 %
19.05.2017 16:06 26,8 C 24,4 C 41 % 1003,9 hPa 0,0 l/m 7,7 km/h (2 Bft) N-NO 32 2 min 0,000 mm 3,1 UV-I 658 W/m 12,4 C 26,5 C 14,5 km/h (3 Bft) 94,00 %
19.05.2017 16:08 26,8 C 24,4 C 42 % 1003,9 hPa 0,0 l/m 10,2 km/h (2 Bft) NO 46 2 min 0,000 mm 3,1 UV-I 655 W/m 12,8 C 26,1 C 17,7 km/h (3 Bft) 92,73 %
19.05.2017 16:10 26,8 C 24,4 C 41 % 1003,8 hPa 0,0 l/m 10,1 km/h (2 Bft) N-NO 26 2 min 0,000 mm 3,0 UV-I 651 W/m 12,4 C 26,1 C 17,7 km/h (3 Bft) 94,87 %
19.05.2017 16:12 27,1 C 24,4 C 40 % 1003,8 hPa 0,0 l/m 10,1 km/h (2 Bft) NO 43 2 min 0,000 mm 3,0 UV-I 645 W/m 12,3 C 26,5 C 16,1 km/h (3 Bft) 100,00 %
19.05.2017 16:14 27,1 C 24,4 C 37 % 1003,8 hPa 0,0 l/m 13,3 km/h (3 Bft) NO 48 2 min 0,000 mm 2,9 UV-I 641 W/m 11,1 C 26,0 C 20,9 km/h (4 Bft) 96,00 %
19.05.2017 16:16 27,1 C 24,4 C 37 % 1003,7 hPa 0,0 l/m 13,3 km/h (3 Bft) NO 39 2 min 0,000 mm 2,9 UV-I 636 W/m 11,1 C 26,0 C 22,5 km/h (4 Bft) 100,00 %
19.05.2017 16:18 26,9 C 24,4 C 37 % 1003,8 hPa 0,0 l/m 12,0 km/h (2 Bft) N-NO 20 2 min 0,000 mm 2,8 UV-I 631 W/m 11,0 C 26,0 C 17,7 km/h (3 Bft) 100,00 %
19.05.2017 16:20 26,9 C 24,4 C 37 % 1003,7 hPa 0,0 l/m 8,3 km/h (2 Bft) NO 44 2 min 0,000 mm 2,8 UV-I 627 W/m 11,0 C 26,5 C 12,9 km/h (3 Bft) 100,00 %
19.05.2017 16:22 26,9 C 24,4 C 39 % 1003,7 hPa 0,0 l/m 9,7 km/h (2 Bft) N-NO 23 2 min 0,000 mm 2,7 UV-I 621 W/m 11,8 C 26,3 C 16,1 km/h (3 Bft) 98,31 %
19.05.2017 16:24 26,9 C 24,4 C 38 % 1003,7 hPa 0,0 l/m 11,3 km/h (2 Bft) N-NO 31 2 min 0,000 mm 2,7 UV-I 617 W/m 11,4 C 26,1 C 16,1 km/h (3 Bft) 95,12 %
19.05.2017 16:26 27,0 C 24,4 C 40 % 1003,7 hPa 0,0 l/m 11,7 km/h (2 Bft) NO 44 2 min 0,000 mm 2,7 UV-I 611 W/m 12,2 C 26,1 C 17,7 km/h (3 Bft) 98,11 %
19.05.2017 16:28 27,1 C 24,4 C 38 % 1003,7 hPa 0,0 l/m 11,9 km/h (2 Bft) NO 44 2 min 0,000 mm 2,6 UV-I 604 W/m 11,5 C 26,2 C 17,7 km/h (3 Bft) 100,00 %
19.05.2017 16:30 27,1 C 24,4 C 36 % 1003,6 hPa 0,0 l/m 9,3 km/h (2 Bft) NO 40 2 min 0,000 mm 2,6 UV-I 599 W/m 10,7 C 26,6 C 14,5 km/h (3 Bft) 97,87 %
19.05.2017 16:32 27,3 C 24,4 C 40 % 1003,6 hPa 0,0 l/m 8,3 km/h (2 Bft) N-NO 17 2 min 0,000 mm 2,5 UV-I 596 W/m 12,5 C 27,0 C 12,9 km/h (3 Bft) 94,34 %
19.05.2017 16:34 27,3 C 24,4 C 43 % 1003,6 hPa 0,0 l/m 9,4 km/h (2 Bft) NO 42 2 min 0,000 mm 2,5 UV-I 591 W/m 13,6 C 26,8 C 14,5 km/h (3 Bft) 97,56 %
19.05.2017 16:36 27,3 C 24,4 C 35 % 1003,6 hPa 0,0 l/m 8,5 km/h (2 Bft) O-NO 74 2 min 0,000 mm 2,4 UV-I 584 W/m 10,5 C 26,9 C 11,3 km/h (2 Bft) 94,74 %
19.05.2017 16:38 27,6 C 24,4 C 36 % 1003,6 hPa 0,0 l/m 6,9 km/h (2 Bft) NO 42 2 min 0,000 mm 2,4 UV-I 578 W/m 11,2 C 27,5 C 9,7 km/h (2 Bft) 96,15 %
19.05.2017 16:40 27,7 C 24,4 C 39 % 1003,6 hPa 0,0 l/m 9,1 km/h (2 Bft) O-NO 60 2 min 0,000 mm 2,4 UV-I 574 W/m 12,5 C 27,3 C 12,9 km/h (3 Bft) 96,43 %
19.05.2017 16:42 27,7 C 24,4 C 37 % 1003,6 hPa 0,0 l/m 7,4 km/h (2 Bft) NO 41 2 min 0,000 mm 2,3 UV-I 569 W/m 11,7 C 27,5 C 14,5 km/h (3 Bft) 94,87 %
19.05.2017 16:44 27,7 C 24,4 C 37 % 1003,6 hPa 0,0 l/m 5,8 km/h (2 Bft) N 5 2 min 0,000 mm 2,3 UV-I 564 W/m 11,7 C 27,7 C 9,7 km/h (2 Bft) 97,87 %
19.05.2017 16:46 27,7 C 24,4 C 40 % 1003,5 hPa 0,0 l/m 11,0 km/h (2 Bft) N-NO 32 2 min 0,000 mm 2,2 UV-I 561 W/m 12,9 C 27,0 C 19,3 km/h (3 Bft) 97,87 %
19.05.2017 16:48 27,7 C 24,4 C 37 % 1003,6 hPa 0,0 l/m 13,0 km/h (3 Bft) O-NO 58 2 min 0,000 mm 2,2 UV-I 553 W/m 11,7 C 26,8 C 17,7 km/h (3 Bft) 98,11 %
19.05.2017 16:50 27,8 C 24,4 C 36 % 1003,5 hPa 0,0 l/m 11,6 km/h (2 Bft) O-NO 75 2 min 0,000 mm 2,2 UV-I 547 W/m 11,3 C 27,1 C 17,7 km/h (3 Bft) 96,15 %
19.05.2017 16:52 27,8 C 24,4 C 32 % 1003,5 hPa 0,0 l/m 13,6 km/h (3 Bft) NO 45 2 min 0,000 mm 2,1 UV-I 541 W/m 9,6 C 26,8 C 22,5 km/h (4 Bft) 97,06 %
19.05.2017 16:54 27,8 C 24,4 C 35 % 1003,5 hPa 0,0 l/m 8,4 km/h (2 Bft) NO 48 2 min 0,000 mm 2,1 UV-I 537 W/m 10,9 C 27,5 C 12,9 km/h (3 Bft) 95,12 %
19.05.2017 16:56 27,9 C 24,4 C 34 % 1003,5 hPa 0,0 l/m 9,4 km/h (2 Bft) NO 49 2 min 0,000 mm 2,0 UV-I 532 W/m 10,6 C 27,4 C 16,1 km/h (3 Bft) 98,00 %
19.05.2017 16:58 27,8 C 24,4 C 36 % 1003,5 hPa 0,0 l/m 8,9 km/h (2 Bft) NO 44 2 min 0,000 mm 2,0 UV-I 526 W/m 11,3 C 27,4 C 14,5 km/h (3 Bft) 95,74 %
19.05.2017 17:00 27,7 C 24,4 C 35 % 1003,5 hPa 0,0 l/m 9,7 km/h (2 Bft) N-NO 31 2 min 0,000 mm 2,0 UV-I 519 W/m 10,8 C 27,2 C 14,5 km/h (3 Bft) 97,56 %
19.05.2017 17:02 27,7 C 24,4 C 34 % 1003,4 hPa 0,0 l/m 8,6 km/h (2 Bft) NO 53 2 min 0,482 mm 1,9 UV-I 512 W/m 10,4 C 27,3 C 12,9 km/h (3 Bft) 96,00 %
19.05.2017 17:04 27,8 C 24,4 C 34 % 1003,4 hPa 0,0 l/m 9,2 km/h (2 Bft) NO 42 2 min 0,000 mm 1,9 UV-I 504 W/m 10,5 C 27,4 C 12,9 km/h (3 Bft) 97,73 %
19.05.2017 17:06 27,9 C 24,4 C 36 % 1003,4 hPa 0,0 l/m 10,9 km/h (2 Bft) NO 53 2 min 0,000 mm 1,8 UV-I 498 W/m 11,4 C 27,3 C 17,7 km/h (3 Bft) 96,23 %
19.05.2017 17:08 27,9 C 24,4 C 36 % 1003,5 hPa 0,0 l/m 10,1 km/h (2 Bft) NO 46 2 min 0,000 mm 1,8 UV-I 492 W/m 11,4 C 27,4 C 16,1 km/h (3 Bft) 95,12 %
19.05.2017 17:10 27,9 C 24,4 C 36 % 1003,4 hPa 0,0 l/m 10,8 km/h (2 Bft) O-NO 74 2 min 0,000 mm 1,7 UV-I 486 W/m 11,4 C 27,3 C 16,1 km/h (3 Bft) 98,00 %
19.05.2017 17:12 27,9 C 24,4 C 34 % 1003,4 hPa 0,0 l/m 13,5 km/h (3 Bft) NO 56 2 min 0,000 mm 1,7 UV-I 480 W/m 10,6 C 27,0 C 17,7 km/h (3 Bft) 90,24 %
19.05.2017 17:14 28,0 C 24,4 C 38 % 1003,4 hPa 0,0 l/m 8,7 km/h (2 Bft) NO 38 2 min 0,000 mm 1,7 UV-I 474 W/m 12,3 C 27,6 C 12,9 km/h (3 Bft) 96,43 %
19.05.2017 17:16 27,8 C 24,4 C 41 % 1003,5 hPa 0,0 l/m 6,2 km/h (2 Bft) NO 54 2 min 0,000 mm 1,6 UV-I 469 W/m 13,3 C 27,8 C 9,7 km/h (2 Bft) 93,62 %
19.05.2017 17:18 27,9 C 24,4 C 39 % 1003,4 hPa 0,0 l/m 8,1 km/h (2 Bft) O-NO 57 2 min 0,000 mm 1,6 UV-I 463 W/m 12,6 C 27,6 C 16,1 km/h (3 Bft) 86,84 %
19.05.2017 17:20 27,9 C 24,4 C 38 % 1003,4 hPa 0,0 l/m 10,1 km/h (2 Bft) O-NO 72 2 min 0,000 mm 1,6 UV-I 457 W/m 12,2 C 27,4 C 16,1 km/h (3 Bft) 96,43 %
19.05.2017 17:22 27,9 C 24,4 C 39 % 1003,4 hPa 0,0 l/m 4,7 km/h (1 Bft) N-NO 19 2 min 0,000 mm 1,5 UV-I 452 W/m 12,6 C 27,9 C 8,0 km/h (2 Bft) 95,45 %
19.05.2017 17:24 27,7 C 24,4 C 40 % 1003,4 hPa 0,0 l/m 5,0 km/h (1 Bft) N-NO 26 2 min 0,000 mm 1,5 UV-I 446 W/m 12,9 C 27,7 C 8,0 km/h (2 Bft) 96,00 %
19.05.2017 17:26 27,5 C 24,4 C 40 % 1003,3 hPa 0,0 l/m 7,8 km/h (2 Bft) NO 36 2 min 0,000 mm 1,5 UV-I 442 W/m 12,7 C 27,3 C 12,9 km/h (3 Bft) 97,44 %
19.05.2017 17:28 27,4 C 24,4 C 43 % 1003,3 hPa 0,0 l/m 4,3 km/h (1 Bft) N-NO 19 2 min 0,000 mm 1,4 UV-I 438 W/m 13,7 C 27,4 C 11,3 km/h (2 Bft) 98,00 %
19.05.2017 17:30 27,4 C 24,4 C 39 % 1003,3 hPa 0,0 l/m 5,5 km/h (1 Bft) N-NO 27 2 min 0,000 mm 1,4 UV-I 431 W/m 12,2 C 27,4 C 8,0 km/h (2 Bft) 98,00 %
19.05.2017 17:32 27,3 C 24,4 C 40 % 1003,3 hPa 0,0 l/m 6,4 km/h (2 Bft) NO 38 2 min 0,000 mm 1,3 UV-I 424 W/m 12,5 C 27,3 C 9,7 km/h (2 Bft) 97,56 %
19.05.2017 17:34 27,3 C 24,4 C 40 % 1003,2 hPa 0,0 l/m 9,1 km/h (2 Bft) NO 34 2 min 0,000 mm 1,3 UV-I 421 W/m 12,5 C 26,8 C 17,7 km/h (3 Bft) 98,00 %
19.05.2017 17:36 27,3 C 24,4 C 40 % 1003,3 hPa 0,0 l/m 7,9 km/h (2 Bft) N 9 2 min 0,000 mm 1,3 UV-I 415 W/m 12,5 C 27,0 C 12,9 km/h (3 Bft) 97,73 %
19.05.2017 17:38 27,2 C 24,4 C 42 % 1003,3 hPa 0,0 l/m 8,2 km/h (2 Bft) NO 53 2 min 0,000 mm 1,3 UV-I 409 W/m 13,2 C 26,9 C 12,9 km/h (3 Bft) 94,00 %
19.05.2017 17:40 27,2 C 24,4 C 39 % 1003,2 hPa 0,0 l/m 7,4 km/h (2 Bft) N-NO 18 2 min 0,000 mm 1,2 UV-I 402 W/m 12,0 C 27,0 C 9,7 km/h (2 Bft) 96,23 %
19.05.2017 17:42 27,3 C 24,4 C 42 % 1003,1 hPa 0,0 l/m 9,7 km/h (2 Bft) N 5 2 min 0,000 mm 1,2 UV-I 397 W/m 13,2 C 26,7 C 16,1 km/h (3 Bft) 97,87 %
19.05.2017 17:44 27,2 C 24,4 C 42 % 1003,1 hPa 0,0 l/m 8,6 km/h (2 Bft) NO 47 2 min 0,000 mm 1,2 UV-I 388 W/m 13,2 C 26,8 C 16,1 km/h (3 Bft) 95,74 %
19.05.2017 17:46 27,3 C 24,4 C 39 % 1003,1 hPa 0,0 l/m 5,1 km/h (1 Bft) NO 50 2 min 0,000 mm 1,1 UV-I 384 W/m 12,1 C 27,3 C 6,4 km/h (2 Bft) 97,37 %
19.05.2017 17:48 27,5 C 24,4 C 41 % 1003,1 hPa 0,0 l/m 7,3 km/h (2 Bft) O-NO 78 2 min 0,000 mm 1,1 UV-I 377 W/m 13,1 C 27,3 C 14,5 km/h (3 Bft) 94,34 %
19.05.2017 17:50 27,7 C 24,4 C 40 % 1003,1 hPa 0,0 l/m 10,6 km/h (2 Bft) NO 49 2 min 0,000 mm 1,1 UV-I 372 W/m 12,9 C 27,1 C 19,3 km/h (3 Bft) 97,73 %
19.05.2017 17:52 27,7 C 24,4 C 40 % 1003,1 hPa 0,0 l/m 7,6 km/h (2 Bft) NO 54 2 min 0,000 mm 1,1 UV-I 367 W/m 12,9 C 27,5 C 14,5 km/h (3 Bft) 94,74 %
19.05.2017 17:54 27,6 C 24,4 C 40 % 1003,0 hPa 0,0 l/m 8,6 km/h (2 Bft) N-NO 23 2 min 0,000 mm 1,0 UV-I 361 W/m 12,8 C 27,2 C 12,9 km/h (3 Bft) 95,74 %
19.05.2017 17:56 27,5 C 24,4 C 40 % 1003,0 hPa 0,0 l/m 9,9 km/h (2 Bft) NO 55 2 min 0,000 mm 1,0 UV-I 354 W/m 12,7 C 26,9 C 16,1 km/h (3 Bft) 94,34 %
19.05.2017 17:58 27,4 C 24,4 C 41 % 1003,1 hPa 0,0 l/m 8,8 km/h (2 Bft) N-NO 16 2 min 0,000 mm 1,0 UV-I 347 W/m 13,0 C 27,0 C 14,5 km/h (3 Bft) 96,23 %
19.05.2017 18:00 27,3 C 24,4 C 38 % 1003,0 hPa 0,0 l/m 12,9 km/h (3 Bft) O-NO 61 2 min 0,000 mm 0,9 UV-I 341 W/m 11,7 C 26,3 C 19,3 km/h (3 Bft) 92,68 %
19.05.2017 18:02 27,4 C 24,4 C 41 % 1003,0 hPa 0,0 l/m 8,9 km/h (2 Bft) N-NO 33 2 min 0,356 mm 0,9 UV-I 336 W/m 13,0 C 27,0 C 12,9 km/h (3 Bft) 96,23 %
19.05.2017 18:04 27,4 C 24,4 C 41 % 1003,0 hPa 0,0 l/m 6,8 km/h (2 Bft) N-NO 23 2 min 0,000 mm 0,9 UV-I 331 W/m 13,0 C 27,3 C 14,5 km/h (3 Bft) 100,00 %
19.05.2017 18:06 27,3 C 24,4 C 43 % 1003,0 hPa 0,0 l/m 6,7 km/h (2 Bft) N-NO 30 2 min 0,000 mm 0,9 UV-I 325 W/m 13,6 C 27,2 C 12,9 km/h (3 Bft) 97,73 %
19.05.2017 18:08 27,3 C 24,4 C 43 % 1003,0 hPa 0,0 l/m 7,2 km/h (2 Bft) N-NO 23 2 min 0,000 mm 0,8 UV-I 319 W/m 13,6 C 27,2 C 12,9 km/h (3 Bft) 100,00 %
19.05.2017 18:10 27,3 C 24,4 C 42 % 1003,0 hPa 0,0 l/m 5,6 km/h (1 Bft) N-NO 23 2 min 0,000 mm 0,8 UV-I 311 W/m 13,2 C 27,3 C 8,0 km/h (2 Bft) 97,87 %
19.05.2017 18:12 27,3 C 24,4 C 44 % 1003,0 hPa 0,0 l/m 9,3 km/h (2 Bft) N-NO 16 2 min 0,000 mm 0,8 UV-I 306 W/m 14,0 C 26,8 C 16,1 km/h (3 Bft) 97,44 %
19.05.2017 18:14 27,3 C 24,4 C 43 % 1003,1 hPa 0,0 l/m 3,4 km/h (1 Bft) N-NO 17 2 min 0,000 mm 0,8 UV-I 300 W/m 13,6 C 27,3 C 6,4 km/h (2 Bft) 95,45 %
19.05.2017 18:16 27,2 C 24,4 C 40 % 1003,1 hPa 0,0 l/m 8,8 km/h (2 Bft) NO 41 2 min 0,000 mm 0,7 UV-I 294 W/m 12,4 C 26,8 C 16,1 km/h (3 Bft) 96,23 %
19.05.2017 18:18 27,2 C 24,4 C 40 % 1003,1 hPa 0,0 l/m 10,4 km/h (2 Bft) NO 49 2 min 0,000 mm 0,7 UV-I 287 W/m 12,4 C 26,5 C 14,5 km/h (3 Bft) 100,00 %
19.05.2017 18:20 27,2 C 24,4 C 41 % 1003,1 hPa 0,0 l/m 6,5 km/h (2 Bft) NO 53 2 min 0,000 mm 0,7 UV-I 281 W/m 12,8 C 27,2 C 11,3 km/h (2 Bft) 100,00 %
19.05.2017 18:22 27,2 C 24,4 C 44 % 1003,1 hPa 0,0 l/m 6,0 km/h (2 Bft) N 10 2 min 0,000 mm 0,7 UV-I 276 W/m 13,9 C 27,2 C 11,3 km/h (2 Bft) 100,00 %
19.05.2017 18:24 27,3 C 24,4 C 41 % 1003,1 hPa 0,0 l/m 6,9 km/h (2 Bft) NO 37 2 min 0,000 mm 0,6 UV-I 269 W/m 12,9 C 27,2 C 14,5 km/h (3 Bft) 97,37 %
19.05.2017 18:26 27,3 C 24,4 C 39 % 1003,2 hPa 0,0 l/m 10,8 km/h (2 Bft) N-NO 32 2 min 0,000 mm 0,6 UV-I 263 W/m 12,1 C 26,6 C 17,7 km/h (3 Bft) 97,87 %
19.05.2017 18:28 27,4 C 24,4 C 41 % 1003,1 hPa 0,0 l/m 9,9 km/h (2 Bft) NO 44 2 min 0,000 mm 0,6 UV-I 258 W/m 13,0 C 26,8 C 16,1 km/h (3 Bft) 93,62 %
19.05.2017 18:30 27,5 C 24,4 C 39 % 1003,1 hPa 0,0 l/m 7,2 km/h (2 Bft) NO 50 2 min 0,000 mm 0,6 UV-I 253 W/m 12,3 C 27,4 C 11,3 km/h (2 Bft) 94,34 %
19.05.2017 18:32 27,4 C 24,4 C 40 % 1003,1 hPa 0,0 l/m 12,4 km/h (3 Bft) NO 53 2 min 0,000 mm 0,6 UV-I 248 W/m 12,6 C 26,5 C 19,3 km/h (3 Bft) 96,00 %
19.05.2017 18:34 27,4 C 24,4 C 39 % 1003,1 hPa 0,0 l/m 11,0 km/h (2 Bft) O-NO 58 2 min 0,000 mm 0,5 UV-I 244 W/m 12,2 C 26,7 C 14,5 km/h (3 Bft) 95,45 %
19.05.2017 18:36 27,4 C 24,4 C 37 % 1003,2 hPa 0,0 l/m 8,8 km/h (2 Bft) NO 49 2 min 0,000 mm 0,5 UV-I 239 W/m 11,4 C 27,0 C 14,5 km/h (3 Bft) 95,12 %
19.05.2017 18:38 27,4 C 24,4 C 38 % 1003,2 hPa 0,0 l/m 10,9 km/h (2 Bft) NO 50 2 min 0,000 mm 0,5 UV-I 232 W/m 11,8 C 26,7 C 14,5 km/h (3 Bft) 100,00 %
19.05.2017 18:40 27,4 C 24,4 C 37 % 1003,2 hPa 0,0 l/m 11,7 km/h (2 Bft) O-NO 58 2 min 0,000 mm 0,5 UV-I 227 W/m 11,4 C 26,6 C 16,1 km/h (3 Bft) 100,00 %
19.05.2017 18:42 27,4 C 24,4 C 37 % 1003,3 hPa 0,0 l/m 11,0 km/h (2 Bft) NO 53 2 min 0,000 mm 0,5 UV-I 220 W/m 11,4 C 26,7 C 17,7 km/h (3 Bft) 96,00 %
19.05.2017 18:44 27,4 C 24,4 C 38 % 1003,3 hPa 0,0 l/m 10,5 km/h (2 Bft) NO 46 2 min 0,000 mm 0,0 UV-I 215 W/m 11,8 C 26,7 C 19,3 km/h (3 Bft) 100,00 %
19.05.2017 18:46 27,4 C 24,4 C 37 % 1003,3 hPa 0,0 l/m 8,7 km/h (2 Bft) NO 49 2 min 0,000 mm 0,0 UV-I 211 W/m 11,4 C 27,0 C 16,1 km/h (3 Bft) 97,44 %
19.05.2017 18:48 27,3 C 24,4 C 38 % 1003,3 hPa 0,0 l/m 6,7 km/h (2 Bft) O-NO 60 2 min 0,000 mm 0,0 UV-I 203 W/m 11,7 C 27,2 C 12,9 km/h (3 Bft) 95,45 %
19.05.2017 18:50 27,2 C 24,4 C 39 % 1003,3 hPa 0,0 l/m 8,2 km/h (2 Bft) O-NO 71 2 min 0,000 mm 0,0 UV-I 192 W/m 12,0 C 26,9 C 12,9 km/h (3 Bft) 98,21 %
19.05.2017 18:52 27,1 C 24,4 C 41 % 1003,3 hPa 0,0 l/m 6,4 km/h (2 Bft) NO 55 2 min 0,000 mm 0,0 UV-I 191 W/m 12,7 C 27,1 C 9,7 km/h (2 Bft) 94,74 %
19.05.2017 18:54 27,1 C 24,4 C 40 % 1003,4 hPa 0,0 l/m 6,4 km/h (2 Bft) O-NO 65 2 min 0,000 mm 0,0 UV-I 185 W/m 12,3 C 27,1 C 9,7 km/h (2 Bft) 100,00 %
19.05.2017 18:56 27,1 C 24,4 C 41 % 1003,4 hPa 0,0 l/m 5,6 km/h (1 Bft) NO 54 2 min 0,000 mm 0,0 UV-I 180 W/m 12,7 C 27,1 C 8,0 km/h (2 Bft) 97,87 %
19.05.2017 18:58 27,0 C 24,4 C 43 % 1003,4 hPa 0,0 l/m 5,6 km/h (1 Bft) O-NO 62 2 min 0,000 mm 0,0 UV-I 173 W/m 13,3 C 27,0 C 12,9 km/h (3 Bft) 93,62 %
19.05.2017 19:00 26,9 C 24,4 C 42 % 1003,5 hPa 0,0 l/m 6,9 km/h (2 Bft) O-NO 67 2 min 0,000 mm 0,0 UV-I 169 W/m 12,9 C 26,8 C 11,3 km/h (2 Bft) 100,00 %
19.05.2017 19:02 26,8 C 24,4 C 43 % 1003,5 hPa 0,0 l/m 6,4 km/h (2 Bft) NO 54 2 min 0,254 mm 0,0 UV-I 162 W/m 13,2 C 26,8 C 9,7 km/h (2 Bft) 97,73 %
19.05.2017 19:04 26,7 C 24,4 C 42 % 1003,6 hPa 0,0 l/m 3,7 km/h (1 Bft) NO 53 2 min 0,000 mm 0,0 UV-I 157 W/m 12,7 C 26,7 C 4,8 km/h (1 Bft) 94,34 %
19.05.2017 19:06 26,6 C 24,4 C 42 % 1003,6 hPa 0,0 l/m 4,5 km/h (1 Bft) O-NO 67 2 min 0,000 mm 0,0 UV-I 153 W/m 12,6 C 26,6 C 8,0 km/h (2 Bft) 97,56 %
19.05.2017 19:08 26,7 C 24,4 C 42 % 1003,6 hPa 0,0 l/m 4,4 km/h (1 Bft) O-NO 66 2 min 0,000 mm 0,0 UV-I 148 W/m 12,7 C 26,7 C 6,4 km/h (2 Bft) 98,11 %
19.05.2017 19:10 26,6 C 24,4 C 43 % 1003,6 hPa 0,0 l/m 4,8 km/h (1 Bft) O-NO 67 2 min 0,000 mm 0,0 UV-I 142 W/m 13,0 C 26,6 C 8,0 km/h (2 Bft) 97,87 %
19.05.2017 19:12 26,6 C 24,4 C 43 % 1003,7 hPa 0,0 l/m 3,0 km/h (1 Bft) NO 47 2 min 0,000 mm 0,0 UV-I 130 W/m 13,0 C 26,6 C 6,4 km/h (2 Bft) 96,00 %
19.05.2017 19:14 26,5 C 24,4 C 43 % 1003,7 hPa 0,0 l/m 0,1 km/h (0 Bft) NO 47 0 min 0,000 mm 0,0 UV-I 97 W/m 12,9 C 26,5 C 1,6 km/h (1 Bft) 97,37 %
19.05.2017 19:16 26,3 C 24,4 C 43 % 1003,8 hPa 0,0 l/m 0,3 km/h (0 Bft) NO 47 0 min 0,000 mm 0,0 UV-I 46 W/m 12,7 C 26,3 C 1,6 km/h (1 Bft) 95,74 %
19.05.2017 19:18 26,2 C 24,4 C 43 % 1003,8 hPa 0,0 l/m 1,7 km/h (1 Bft) NO 47 0 min 0,000 mm 0,0 UV-I 44 W/m 12,6 C 26,2 C 3,2 km/h (1 Bft) 100,00 %
19.05.2017 19:20 26,1 C 24,4 C 44 % 1003,9 hPa 0,0 l/m 1,0 km/h (0 Bft) NO 47 0 min 0,000 mm 0,0 UV-I 43 W/m 12,9 C 26,1 C 3,2 km/h (1 Bft) 98,00 %
19.05.2017 19:22 25,9 C 24,4 C 44 % 1003,9 hPa 0,0 l/m 0,3 km/h (0 Bft) NO 40 0 min 0,000 mm 0,0 UV-I 42 W/m 12,7 C 25,9 C 1,6 km/h (1 Bft) 94,87 %
19.05.2017 19:24 25,8 C 24,4 C 44 % 1004,0 hPa 0,0 l/m 0,2 km/h (0 Bft) NO 40 0 min 0,000 mm 0,0 UV-I 41 W/m 12,6 C 25,8 C 1,6 km/h (1 Bft) 96,23 %
19.05.2017 19:26 25,7 C 24,4 C 42 % 1004,0 hPa 0,0 l/m 0,0 km/h (0 Bft) NO 40 0 min 0,000 mm 0,0 UV-I 40 W/m 11,8 C 25,7 C 1,6 km/h (1 Bft) 93,62 %
19.05.2017 19:28 25,7 C 24,4 C 43 % 1004,1 hPa 0,0 l/m 0,5 km/h (0 Bft) NO 40 0 min 0,000 mm 0,0 UV-I 71 W/m 12,2 C 25,7 C 1,6 km/h (1 Bft) 91,49 %
19.05.2017 19:30 25,7 C 24,4 C 42 % 1004,1 hPa 0,0 l/m 0,8 km/h (0 Bft) NO 40 0 min 0,000 mm 0,0 UV-I 71 W/m 11,8 C 25,7 C 1,6 km/h (1 Bft) 95,12 %
19.05.2017 19:32 25,8 C 24,4 C 41 % 1004,2 hPa 0,0 l/m 1,0 km/h (0 Bft) NO 40 0 min 0,000 mm 0,0 UV-I 83 W/m 11,5 C 25,8 C 1,6 km/h (1 Bft) 97,87 %
19.05.2017 19:34 25,8 C 24,4 C 44 % 1004,3 hPa 0,0 l/m 1,7 km/h (1 Bft) N 349 0 min 0,000 mm 0,0 UV-I 67 W/m 12,6 C 25,8 C 3,2 km/h (1 Bft) 95,74 %
19.05.2017 19:36 25,9 C 24,4 C 43 % 1004,5 hPa 0,0 l/m 3,6 km/h (1 Bft) NW 307 0 min 0,000 mm 0,0 UV-I 79 W/m 12,3 C 25,9 C 4,8 km/h (1 Bft) 96,00 %
19.05.2017 19:38 25,9 C 24,4 C 46 % 1004,8 hPa 0,0 l/m 8,5 km/h (2 Bft) W-SW 250 0 min 0,000 mm 0,0 UV-I 73 W/m 13,4 C 25,4 C 12,9 km/h (3 Bft) 97,56 %
19.05.2017 19:40 25,7 C 24,4 C 47 % 1005,4 hPa 0,0 l/m 23,8 km/h (4 Bft) W 261 0 min 0,000 mm 0,0 UV-I 69 W/m 13,5 C 23,2 C 45,1 km/h (6 Bft) 96,00 %
19.05.2017 19:42 25,1 C 24,4 C 51 % 1005,5 hPa 0,0 l/m 22,7 km/h (4 Bft) W-NW 292 0 min 0,000 mm 0,0 UV-I 58 W/m 14,2 C 22,5 C 49,9 km/h (6 Bft) 98,00 %
19.05.2017 19:44 24,4 C 24,4 C 55 % 1005,8 hPa 0,0 l/m 21,3 km/h (4 Bft) SW 229 0 min 0,000 mm 0,0 UV-I 69 W/m 14,8 C 21,7 C 38,6 km/h (5 Bft) 96,00 %
19.05.2017 19:46 23,7 C 24,4 C 58 % 1006,2 hPa 0,0 l/m 33,6 km/h (5 Bft) W 281 2 min 0,000 mm 0,0 UV-I 75 W/m 14,9 C 19,6 C 56,3 km/h (7 Bft) 94,74 %
19.05.2017 19:48 23,1 C 24,4 C 59 % 1006,2 hPa 0,0 l/m 41,2 km/h (6 Bft) W-SW 247 2 min 0,000 mm 0,0 UV-I 75 W/m 14,6 C 18,2 C 66,0 km/h (8 Bft) 98,00 %
19.05.2017 19:50 22,4 C 24,4 C 62 % 1006,3 hPa 0,0 l/m 31,4 km/h (5 Bft) W 259 2 min 0,000 mm 0,0 UV-I 69 W/m 14,8 C 18,0 C 51,5 km/h (7 Bft) 95,45 %
19.05.2017 19:53 21,7 C 24,4 C 63 % 1007,1 hPa 0,0 l/m 30,5 km/h (5 Bft) W-SW 252 0 min 0,000 mm 0,0 UV-I 53 W/m 14,3 C 17,1 C 53,1 km/h (7 Bft) 91,25 %
19.05.2017 19:54 21,4 C 24,4 C 63 % 1007,1 hPa 0,0 l/m 42,5 km/h (6 Bft) W-SW 249 0 min 0,000 mm 0,0 UV-I 56 W/m 14,1 C 15,6 C 56,3 km/h (7 Bft) 100,00 %
19.05.2017 19:56 20,8 C 24,4 C 63 % 1007,3 hPa 0,0 l/m 41,8 km/h (6 Bft) W-NW 297 0 min 0,000 mm 0,0 UV-I 55 W/m 13,5 C 14,8 C 69,2 km/h (8 Bft) 100,00 %
19.05.2017 19:58 20,3 C 24,4 C 64 % 1007,3 hPa 0,0 l/m 33,8 km/h (5 Bft) W-SW 246 0 min 0,000 mm 0,0 UV-I 46 W/m 13,3 C 14,7 C 54,7 km/h (7 Bft) 100,00 %
19.05.2017 20:00 19,8 C 24,4 C 65 % 1007,4 hPa 0,0 l/m 30,7 km/h (5 Bft) W 259 0 min 0,000 mm 0,0 UV-I 40 W/m 13,0 C 14,4 C 56,3 km/h (7 Bft) 100,00 %
19.05.2017 20:02 19,4 C 24,4 C 66 % 1007,8 hPa 0,0 l/m 34,3 km/h (5 Bft) W-SW 246 0 min 0,152 mm 0,0 UV-I 38 W/m 12,9 C 13,4 C 62,8 km/h (8 Bft) 97,62 %
19.05.2017 20:04 19,1 C 24,4 C 66 % 1008,0 hPa 0,0 l/m 35,8 km/h (5 Bft) W-SW 258 0 min 0,000 mm 0,0 UV-I 32 W/m 12,6 C 12,8 C 56,3 km/h (7 Bft) 95,45 %
19.05.2017 20:06 18,6 C 24,4 C 67 % 1008,2 hPa 0,0 l/m 41,5 km/h (6 Bft) W 281 0 min 0,000 mm 0,0 UV-I 26 W/m 12,3 C 11,5 C 64,4 km/h (8 Bft) 96,23 %
19.05.2017 20:08 18,3 C 24,4 C 67 % 1008,8 hPa 0,0 l/m 44,3 km/h (6 Bft) SW 224 0 min 0,000 mm 0,0 UV-I 21 W/m 12,1 C 10,8 C 72,4 km/h (8 Bft) 95,74 %
19.05.2017 20:10 17,9 C 24,4 C 67 % 1008,3 hPa 0,0 l/m 44,8 km/h (6 Bft) W-SW 256 0 min 0,000 mm 0,0 UV-I 14 W/m 11,7 C 10,2 C 56,3 km/h (7 Bft) 95,74 %
19.05.2017 20:12 17,6 C 24,4 C 68 % 1008,5 hPa 0,0 l/m 37,5 km/h (5 Bft) SW 223 0 min 0,000 mm 0,0 UV-I 11 W/m 11,6 C 10,4 C 56,3 km/h (7 Bft) 95,12 %
19.05.2017 20:14 17,3 C 24,4 C 69 % 1008,9 hPa 0,0 l/m 34,8 km/h (5 Bft) W-NW 291 0 min 0,000 mm 0,0 UV-I 9 W/m 11,6 C 10,3 C 53,1 km/h (7 Bft) 95,45 %
19.05.2017 20:16 17,1 C 24,4 C 69 % 1008,9 hPa 0,0 l/m 39,0 km/h (6 Bft) W 281 0 min 0,000 mm 0,0 UV-I 9 W/m 11,4 C 9,5 C 59,5 km/h (7 Bft) 96,23 %
19.05.2017 20:18 16,9 C 24,4 C 69 % 1008,9 hPa 0,0 l/m 31,4 km/h (5 Bft) W 262 0 min 0,000 mm 0,0 UV-I 8 W/m 11,2 C 10,2 C 53,1 km/h (7 Bft) 95,12 %
19.05.2017 20:20 16,8 C 24,4 C 70 % 1009,3 hPa 0,0 l/m 28,7 km/h (4 Bft) W 267 0 min 0,000 mm 0,0 UV-I 6 W/m 11,3 C 10,4 C 46,7 km/h (6 Bft) 96,23 %
19.05.2017 20:22 16,7 C 24,4 C 71 % 1009,2 hPa 0,0 l/m 37,4 km/h (5 Bft) W-SW 246 0 min 0,000 mm 0,0 UV-I 5 W/m 11,4 C 9,1 C 56,3 km/h (7 Bft) 97,87 %
19.05.2017 20:24 16,6 C 23,9 C 72 % 1009,4 hPa 0,0 l/m 36,0 km/h (5 Bft) W 277 0 min 0,000 mm 0,0 UV-I 5 W/m 11,5 C 9,1 C 64,4 km/h (8 Bft) 94,74 %
19.05.2017 20:26 16,4 C 23,9 C 72 % 1009,5 hPa 0,0 l/m 38,5 km/h (5 Bft) W-SW 257 0 min 0,000 mm 0,0 UV-I 5 W/m 11,3 C 8,5 C 62,8 km/h (8 Bft) 89,36 %
19.05.2017 20:28 16,3 C 23,9 C 72 % 1009,6 hPa 0,0 l/m 38,1 km/h (5 Bft) W-SW 254 0 min 0,000 mm 0,0 UV-I 5 W/m 11,2 C 8,4 C 53,1 km/h (7 Bft) 96,43 %
19.05.2017 20:30 16,2 C 23,9 C 72 % 1009,8 hPa 0,0 l/m 36,9 km/h (5 Bft) W 264 0 min 0,000 mm 0,0 UV-I 1 W/m 11,1 C 8,4 C 59,5 km/h (7 Bft) 97,37 %
19.05.2017 20:32 16,1 C 23,9 C 73 % 1010,0 hPa 0,0 l/m 31,9 km/h (5 Bft) W-SW 245 0 min 0,000 mm 0,0 UV-I 0 W/m 11,3 C 8,9 C 53,1 km/h (7 Bft) 96,43 %
19.05.2017 20:34 16,0 C 23,9 C 72 % 1010,1 hPa 0,0 l/m 33,6 km/h (5 Bft) W 266 0 min 0,000 mm 0,0 UV-I 2 W/m 11,0 C 8,6 C 48,3 km/h (6 Bft) 95,12 %
19.05.2017 20:36 15,9 C 23,9 C 72 % 1010,2 hPa 0,0 l/m 27,6 km/h (4 Bft) W-SW 244 0 min 0,000 mm 0,0 UV-I 2 W/m 10,9 C 9,4 C 41,8 km/h (6 Bft) 96,23 %
19.05.2017 20:38 15,8 C 23,9 C 72 % 1010,4 hPa 0,0 l/m 27,7 km/h (4 Bft) W-SW 242 0 min 0,000 mm 0,0 UV-I 3 W/m 10,8 C 9,2 C 48,3 km/h (6 Bft) 96,30 %
19.05.2017 20:40 15,8 C 23,9 C 72 % 1010,6 hPa 0,0 l/m 26,8 km/h (4 Bft) W-SW 249 0 min 0,000 mm 0,0 UV-I 4 W/m 10,8 C 9,4 C 37,0 km/h (5 Bft) 97,06 %
19.05.2017 20:42 15,7 C 23,9 C 71 % 1010,7 hPa 0,0 l/m 37,9 km/h (5 Bft) W-SW 238 0 min 0,000 mm 0,0 UV-I 0 W/m 10,5 C 7,6 C 66,0 km/h (8 Bft) 95,65 %
19.05.2017 20:44 15,6 C 23,9 C 70 % 1010,8 hPa 0,0 l/m 37,9 km/h (5 Bft) W-SW 238 0 min 0,000 mm 0,0 UV-I 0 W/m 10,1 C 7,4 C 54,7 km/h (7 Bft) 95,59 %
19.05.2017 20:46 15,5 C 23,9 C 69 % 1011,0 hPa 0,0 l/m 35,8 km/h (5 Bft) W-SW 240 0 min 0,000 mm 0,0 UV-I 0 W/m 9,8 C 7,6 C 51,5 km/h (7 Bft) 97,56 %
19.05.2017 20:48 15,4 C 23,9 C 68 % 1011,0 hPa 0,0 l/m 30,2 km/h (5 Bft) W-SW 237 0 min 0,000 mm 0,0 UV-I 0 W/m 9,5 C 8,2 C 41,8 km/h (6 Bft) 96,23 %
19.05.2017 20:50 15,4 C 23,9 C 67 % 1011,0 hPa 0,0 l/m 37,4 km/h (5 Bft) W-NW 283 0 min 0,000 mm 0,0 UV-I 0 W/m 9,3 C 7,2 C 59,5 km/h (7 Bft) 98,00 %
19.05.2017 20:52 15,3 C 23,9 C 67 % 1010,9 hPa 0,0 l/m 36,0 km/h (5 Bft) W 261 0 min 0,000 mm 0,0 UV-I 0 W/m 9,2 C 7,2 C 66,0 km/h (8 Bft) 95,74 %
19.05.2017 20:54 15,2 C 23,9 C 68 % 1011,3 hPa 0,0 l/m 30,3 km/h (5 Bft) W-SW 243 0 min 0,000 mm 0,0 UV-I 0 W/m 9,3 C 7,9 C 53,1 km/h (7 Bft) 94,74 %
19.05.2017 20:56 15,2 C 23,9 C 68 % 1011,2 hPa 0,0 l/m 25,4 km/h (4 Bft) W-SW 258 0 min 0,000 mm 0,0 UV-I 0 W/m 9,3 C 8,8 C 43,5 km/h (6 Bft) 96,23 %
19.05.2017 20:58 15,1 C 23,9 C 69 % 1011,5 hPa 0,0 l/m 31,9 km/h (5 Bft) W 259 0 min 0,000 mm 0,0 UV-I 0 W/m 9,5 C 7,5 C 46,7 km/h (6 Bft) 97,37 %
19.05.2017 21:00 15,1 C 23,9 C 69 % 1011,4 hPa 0,0 l/m 33,2 km/h (5 Bft) W-SW 256 0 min 0,000 mm 0,0 UV-I 0 W/m 9,5 C 7,3 C 45,1 km/h (6 Bft) 96,43 %
19.05.2017 21:02 15,0 C 23,9 C 69 % 1011,6 hPa 0,0 l/m 36,1 km/h (5 Bft) W-SW 257 0 min 0,127 mm 0,0 UV-I 0 W/m 9,4 C 6,8 C 61,2 km/h (7 Bft) 100,00 %
19.05.2017 21:04 14,9 C 23,9 C 69 % 1011,8 hPa 0,0 l/m 36,0 km/h (5 Bft) W-SW 253 0 min 0,000 mm 0,0 UV-I 0 W/m 9,3 C 6,7 C 61,2 km/h (7 Bft) 100,00 %
19.05.2017 21:06 14,9 C 23,9 C 70 % 1011,8 hPa 0,0 l/m 22,7 km/h (4 Bft) SW 235 0 min 0,000 mm 0,0 UV-I 0 W/m 9,5 C 9,0 C 35,4 km/h (5 Bft) 100,00 %
19.05.2017 21:08 14,8 C 23,9 C 70 % 1012,0 hPa 0,0 l/m 26,4 km/h (4 Bft) W-NW 284 0 min 0,000 mm 0,0 UV-I 0 W/m 9,4 C 8,1 C 51,5 km/h (7 Bft) 100,00 %
19.05.2017 21:10 14,8 C 23,9 C 69 % 1012,2 hPa 0,0 l/m 31,3 km/h (5 Bft) W 272 0 min 0,000 mm 0,0 UV-I 0 W/m 9,2 C 7,2 C 69,2 km/h (8 Bft) 97,56 %
19.05.2017 21:12 14,8 C 23,9 C 69 % 1012,2 hPa 0,0 l/m 27,8 km/h (4 Bft) W 267 0 min 0,000 mm 0,0 UV-I 0 W/m 9,2 C 7,8 C 38,6 km/h (5 Bft) 96,43 %
19.05.2017 21:14 14,7 C 23,9 C 69 % 1012,3 hPa 0,0 l/m 30,5 km/h (5 Bft) W 277 0 min 0,000 mm 0,0 UV-I 0 W/m 9,1 C 7,2 C 48,3 km/h (6 Bft) 97,56 %
19.05.2017 21:16 14,7 C 23,9 C 69 % 1012,2 hPa 0,0 l/m 33,1 km/h (5 Bft) N-NW 328 0 min 0,000 mm 0,0 UV-I 0 W/m 9,1 C 6,8 C 56,3 km/h (7 Bft) 97,62 %
19.05.2017 21:18 14,6 C 23,9 C 69 % 1012,4 hPa 0,0 l/m 32,7 km/h (5 Bft) NW 313 0 min 0,000 mm 0,0 UV-I 0 W/m 9,0 C 6,7 C 72,4 km/h (8 Bft) 100,00 %
19.05.2017 21:20 14,6 C 23,9 C 69 % 1012,6 hPa 0,0 l/m 33,4 km/h (5 Bft) W-SW 245 0 min 0,000 mm 0,0 UV-I 0 W/m 9,0 C 6,6 C 51,5 km/h (7 Bft) 95,16 %
19.05.2017 21:22 14,6 C 23,9 C 69 % 1012,7 hPa 0,0 l/m 28,7 km/h (4 Bft) W-NW 301 0 min 0,000 mm 0,0 UV-I 0 W/m 9,0 C 7,4 C 49,9 km/h (6 Bft) 97,56 %
19.05.2017 21:24 14,5 C 23,9 C 69 % 1012,8 hPa 0,0 l/m 27,5 km/h (4 Bft) NW 318 0 min 0,000 mm 0,0 UV-I 0 W/m 8,9 C 7,4 C 49,9 km/h (6 Bft) 96,23 %
19.05.2017 21:26 14,5 C 23,9 C 70 % 1012,8 hPa 0,0 l/m 25,6 km/h (4 Bft) W-NW 292 0 min 0,000 mm 0,0 UV-I 0 W/m 9,1 C 7,8 C 41,8 km/h (6 Bft) 95,12 %
19.05.2017 21:28 14,4 C 23,9 C 70 % 1013,0 hPa 0,0 l/m 22,9 km/h (4 Bft) NW 304 0 min 0,000 mm 0,0 UV-I 0 W/m 9,0 C 8,3 C 30,6 km/h (5 Bft) 94,34 %
19.05.2017 21:30 14,4 C 23,9 C 71 % 1013,0 hPa 0,0 l/m 23,2 km/h (4 Bft) W 260 0 min 0,000 mm 0,0 UV-I 0 W/m 9,2 C 8,2 C 46,7 km/h (6 Bft) 93,18 %
19.05.2017 21:32 14,4 C 23,9 C 71 % 1013,2 hPa 0,0 l/m 26,5 km/h (4 Bft) W 265 0 min 0,000 mm 0,0 UV-I 0 W/m 9,2 C 7,5 C 40,2 km/h (6 Bft) 93,18 %
19.05.2017 21:34 14,3 C 23,9 C 71 % 1013,2 hPa 0,0 l/m 19,7 km/h (3 Bft) W-SW 246 0 min 0,000 mm 0,0 UV-I 0 W/m 9,1 C 8,9 C 41,8 km/h (6 Bft) 98,00 %
19.05.2017 21:36 14,3 C 23,9 C 72 % 1013,4 hPa 0,0 l/m 19,3 km/h (3 Bft) W 262 0 min 0,000 mm 0,0 UV-I 0 W/m 9,3 C 9,0 C 25,7 km/h (4 Bft) 95,12 %
19.05.2017 21:38 14,3 C 23,9 C 73 % 1013,4 hPa 0,0 l/m 25,6 km/h (4 Bft) W-SW 242 0 min 0,000 mm 0,0 UV-I 0 W/m 9,5 C 7,5 C 37,0 km/h (5 Bft) 94,64 %
19.05.2017 21:40 14,3 C 23,9 C 73 % 1013,5 hPa 0,0 l/m 26,1 km/h (4 Bft) W 259 0 min 0,000 mm 0,0 UV-I 0 W/m 9,5 C 7,4 C 40,2 km/h (6 Bft) 95,45 %
19.05.2017 21:43 14,2 C 23,9 C 73 % 1013,5 hPa 0,0 l/m 31,4 km/h (5 Bft) SW 232 0 min 0,000 mm 0,0 UV-I 0 W/m 9,4 C 6,3 C 46,7 km/h (6 Bft) 95,59 %
19.05.2017 21:44 14,2 C 23,9 C 73 % 1013,5 hPa 0,0 l/m 29,8 km/h (5 Bft) W 265 0 min 0,000 mm 0,0 UV-I 0 W/m 9,4 C 6,6 C 48,3 km/h (6 Bft) 91,30 %
19.05.2017 21:46 14,2 C 23,9 C 73 % 1013,5 hPa 0,0 l/m 31,5 km/h (5 Bft) W-SW 253 0 min 0,000 mm 0,0 UV-I 0 W/m 9,4 C 6,3 C 45,1 km/h (6 Bft) 94,00 %
19.05.2017 21:48 14,1 C 23,9 C 74 % 1013,6 hPa 0,0 l/m 20,7 km/h (4 Bft) W-SW 242 0 min 0,000 mm 0,0 UV-I 0 W/m 9,5 C 8,4 C 33,8 km/h (5 Bft) 97,37 %
19.05.2017 21:50 14,0 C 23,9 C 74 % 1013,7 hPa 0,0 l/m 27,6 km/h (4 Bft) W 275 0 min 0,000 mm 0,0 UV-I 0 W/m 9,4 C 6,7 C 46,7 km/h (6 Bft) 100,00 %
19.05.2017 21:52 14,0 C 23,9 C 74 % 1013,8 hPa 0,0 l/m 23,2 km/h (4 Bft) W-SW 253 0 min 0,000 mm 0,0 UV-I 0 W/m 9,4 C 7,7 C 35,4 km/h (5 Bft) 98,00 %
19.05.2017 21:54 13,9 C 23,9 C 75 % 1013,9 hPa 0,0 l/m 22,4 km/h (4 Bft) W 263 0 min 0,000 mm 0,0 UV-I 0 W/m 9,5 C 7,7 C 30,6 km/h (5 Bft) 97,87 %
19.05.2017 21:56 13,9 C 23,9 C 75 % 1013,9 hPa 0,0 l/m 24,5 km/h (4 Bft) W-SW 244 0 min 0,000 mm 0,0 UV-I 0 W/m 9,5 C 7,2 C 35,4 km/h (5 Bft) 97,44 %
19.05.2017 21:58 13,8 C 23,9 C 75 % 1014,0 hPa 0,0 l/m 25,7 km/h (4 Bft) W-SW 238 0 min 0,000 mm 0,0 UV-I 0 W/m 9,4 C 6,8 C 41,8 km/h (6 Bft) 96,36 %
19.05.2017 22:00 13,8 C 23,9 C 75 % 1014,0 hPa 0,0 l/m 25,7 km/h (4 Bft) W 262 0 min 0,000 mm 0,0 UV-I 0 W/m 9,4 C 6,8 C 41,8 km/h (6 Bft) 100,00 %
19.05.2017 22:02 13,7 C 23,9 C 75 % 1014,0 hPa 0,0 l/m 31,3 km/h (5 Bft) W 279 0 min 0,102 mm 0,0 UV-I 0 W/m 9,3 C 5,6 C 49,9 km/h (6 Bft) 98,00 %
19.05.2017 22:04 13,7 C 23,3 C 75 % 1014,1 hPa 0,0 l/m 29,7 km/h (5 Bft) W-SW 246 0 min 0,000 mm 0,0 UV-I 0 W/m 9,3 C 5,9 C 38,6 km/h (5 Bft) 100,00 %
19.05.2017 22:06 13,7 C 23,9 C 75 % 1014,1 hPa 0,0 l/m 31,6 km/h (5 Bft) W 259 0 min 0,000 mm 0,0 UV-I 0 W/m 9,3 C 5,6 C 43,5 km/h (6 Bft) 97,87 %
19.05.2017 22:08 13,6 C 23,3 C 75 % 1014,2 hPa 0,0 l/m 26,9 km/h (4 Bft) SW 236 0 min 0,000 mm 0,0 UV-I 0 W/m 9,3 C 6,3 C 40,2 km/h (6 Bft) 98,00 %
19.05.2017 22:10 13,6 C 23,3 C 76 % 1014,4 hPa 0,0 l/m 22,0 km/h (4 Bft) S-SW 203 0 min 0,000 mm 0,0 UV-I 0 W/m 9,4 C 7,4 C 38,6 km/h (5 Bft) 100,00 %
19.05.2017 22:12 13,6 C 23,3 C 76 % 1014,4 hPa 0,0 l/m 28,7 km/h (4 Bft) W 264 0 min 0,000 mm 0,0 UV-I 0 W/m 9,4 C 6,0 C 40,2 km/h (6 Bft) 100,00 %
19.05.2017 22:14 13,6 C 23,3 C 75 % 1014,3 hPa 0,0 l/m 33,2 km/h (5 Bft) W 259 0 min 0,000 mm 0,0 UV-I 0 W/m 9,3 C 5,2 C 46,7 km/h (6 Bft) 98,00 %
19.05.2017 22:16 13,5 C 23,3 C 76 % 1014,3 hPa 0,0 l/m 27,8 km/h (4 Bft) W 260 0 min 0,000 mm 0,0 UV-I 0 W/m 9,4 C 6,0 C 38,6 km/h (5 Bft) 97,73 %
19.05.2017 22:18 13,5 C 23,3 C 76 % 1014,3 hPa 0,0 l/m 23,6 km/h (4 Bft) W 263 0 min 0,000 mm 0,0 UV-I 0 W/m 9,4 C 6,9 C 35,4 km/h (5 Bft) 100,00 %
19.05.2017 22:20 13,4 C 23,3 C 76 % 1014,3 hPa 0,0 l/m 32,4 km/h (5 Bft) W-SW 257 0 min 0,000 mm 0,0 UV-I 0 W/m 9,3 C 5,0 C 49,9 km/h (6 Bft) 100,00 %
19.05.2017 22:22 13,4 C 23,3 C 76 % 1014,4 hPa 0,0 l/m 27,4 km/h (4 Bft) W-SW 252 0 min 0,000 mm 0,0 UV-I 0 W/m 9,3 C 5,9 C 38,6 km/h (5 Bft) 98,00 %
19.05.2017 22:24 13,4 C 23,3 C 76 % 1014,4 hPa 0,0 l/m 21,1 km/h (4 Bft) W-SW 247 0 min 0,000 mm 0,0 UV-I 0 W/m 9,3 C 7,4 C 30,6 km/h (5 Bft) 100,00 %
19.05.2017 22:26 13,4 C 23,3 C 76 % 1014,4 hPa 0,0 l/m 22,6 km/h (4 Bft) W-SW 244 0 min 0,000 mm 0,0 UV-I 0 W/m 9,3 C 7,0 C 35,4 km/h (5 Bft) 100,00 %
19.05.2017 22:28 13,4 C 23,3 C 76 % 1014,5 hPa 0,0 l/m 23,4 km/h (4 Bft) W 265 0 min 0,000 mm 0,0 UV-I 0 W/m 9,3 C 6,8 C 33,8 km/h (5 Bft) 98,11 %
19.05.2017 22:30 13,4 C 23,3 C 76 % 1014,5 hPa 0,0 l/m 26,8 km/h (4 Bft) SW 233 0 min 0,000 mm 0,0 UV-I 0 W/m 9,3 C 6,1 C 35,4 km/h (5 Bft) 100,00 %
19.05.2017 22:32 13,3 C 23,3 C 76 % 1014,6 hPa 0,0 l/m 24,5 km/h (4 Bft) W-SW 244 0 min 0,000 mm 0,0 UV-I 0 W/m 9,2 C 6,4 C 40,2 km/h (6 Bft) 97,37 %
19.05.2017 22:34 13,3 C 23,3 C 76 % 1014,6 hPa 0,0 l/m 19,5 km/h (3 Bft) S 179 0 min 0,000 mm 0,0 UV-I 0 W/m 9,2 C 7,7 C 30,6 km/h (5 Bft) 100,00 %
19.05.2017 22:36 13,3 C 23,3 C 76 % 1014,6 hPa 0,0 l/m 27,1 km/h (4 Bft) W-SW 246 0 min 0,000 mm 0,0 UV-I 0 W/m 9,2 C 5,9 C 41,8 km/h (6 Bft) 97,56 %
19.05.2017 22:38 13,3 C 23,3 C 76 % 1014,7 hPa 0,0 l/m 20,8 km/h (4 Bft) SW 221 0 min 0,000 mm 0,0 UV-I 0 W/m 9,2 C 7,3 C 29,0 km/h (5 Bft) 100,00 %
19.05.2017 22:40 13,3 C 23,3 C 77 % 1014,8 hPa 0,0 l/m 22,2 km/h (4 Bft) W 277 0 min 0,000 mm 0,0 UV-I 0 W/m 9,4 C 7,0 C 32,2 km/h (5 Bft) 97,56 %
19.05.2017 22:43 13,2 C 23,3 C 77 % 1014,9 hPa 0,0 l/m 18,2 km/h (3 Bft) W 263 0 min 0,000 mm 0,0 UV-I 0 W/m 9,3 C 7,9 C 29,0 km/h (5 Bft) 98,73 %
19.05.2017 22:44 13,2 C 23,3 C 77 % 1014,9 hPa 0,0 l/m 21,3 km/h (4 Bft) W 260 0 min 0,000 mm 0,0 UV-I 0 W/m 9,3 C 7,1 C 27,4 km/h (4 Bft) 100,00 %
19.05.2017 22:46 13,2 C 23,3 C 77 % 1015,0 hPa 0,0 l/m 22,1 km/h (4 Bft) W 264 0 min 0,000 mm 0,0 UV-I 0 W/m 9,3 C 6,9 C 32,2 km/h (5 Bft) 94,00 %
19.05.2017 22:48 13,2 C 23,3 C 77 % 1015,0 hPa 0,0 l/m 19,7 km/h (3 Bft) W-SW 242 0 min 0,000 mm 0,0 UV-I 0 W/m 9,3 C 7,5 C 30,6 km/h (5 Bft) 98,11 %
19.05.2017 22:50 13,1 C 23,3 C 77 % 1014,9 hPa 0,0 l/m 23,1 km/h (4 Bft) W-NW 292 0 min 0,000 mm 0,0 UV-I 0 W/m 9,2 C 6,5 C 45,1 km/h (6 Bft) 100,00 %
19.05.2017 22:54 13,1 C 23,3 C 77 % 1015,0 hPa 0,0 l/m 12,9 km/h (3 Bft) W-SW 246 0 min 0,000 mm 0,0 UV-I 0 W/m 9,2 C 9,7 C 14,5 km/h (3 Bft) 100,00 %
19.05.2017 22:56 13,0 C 23,3 C 78 % 1015,1 hPa 0,0 l/m 17,3 km/h (3 Bft) W-SW 250 0 min 0,000 mm 0,0 UV-I 0 W/m 9,3 C 8,0 C 35,4 km/h (5 Bft) 97,62 %
19.05.2017 22:58 13,0 C 23,3 C 78 % 1015,1 hPa 0,0 l/m 23,3 km/h (4 Bft) W-SW 254 0 min 0,000 mm 0,0 UV-I 0 W/m 9,3 C 6,3 C 37,0 km/h (5 Bft) 95,12 %
19.05.2017 23:00 12,9 C 23,3 C 77 % 1015,0 hPa 0,0 l/m 26,7 km/h (4 Bft) W 264 0 min 0,000 mm 0,0 UV-I 0 W/m 9,0 C 5,4 C 40,2 km/h (6 Bft) 96,23 %
19.05.2017 23:02 12,8 C 23,3 C 77 % 1015,1 hPa 0,0 l/m 25,7 km/h (4 Bft) W 261 0 min 0,076 mm 0,0 UV-I 0 W/m 8,9 C 5,5 C 40,2 km/h (6 Bft) 100,00 %
19.05.2017 23:04 12,8 C 23,3 C 77 % 1015,1 hPa 0,0 l/m 23,3 km/h (4 Bft) SW 223 0 min 0,000 mm 0,0 UV-I 0 W/m 8,9 C 6,0 C 35,4 km/h (5 Bft) 97,56 %
19.05.2017 23:06 12,7 C 23,3 C 78 % 1015,2 hPa 0,0 l/m 21,8 km/h (4 Bft) SW 230 0 min 0,000 mm 0,0 UV-I 0 W/m 9,0 C 6,3 C 33,8 km/h (5 Bft) 95,45 %
19.05.2017 23:08 12,7 C 23,3 C 77 % 1015,2 hPa 0,0 l/m 21,9 km/h (4 Bft) W 265 0 min 0,000 mm 0,0 UV-I 0 W/m 8,8 C 6,3 C 40,2 km/h (6 Bft) 98,00 %
19.05.2017 23:10 12,7 C 23,3 C 78 % 1015,3 hPa 0,0 l/m 23,1 km/h (4 Bft) SW 226 0 min 0,000 mm 0,0 UV-I 0 W/m 9,0 C 5,9 C 33,8 km/h (5 Bft) 98,00 %
19.05.2017 23:12 12,7 C 23,3 C 78 % 1015,4 hPa 0,0 l/m 24,2 km/h (4 Bft) SW 232 0 min 0,000 mm 0,0 UV-I 0 W/m 9,0 C 5,7 C 33,8 km/h (5 Bft) 100,00 %
19.05.2017 23:14 12,6 C 23,3 C 78 % 1015,3 hPa 0,0 l/m 20,9 km/h (4 Bft) W-SW 254 0 min 0,000 mm 0,0 UV-I 0 W/m 8,9 C 6,4 C 30,6 km/h (5 Bft) 97,56 %
19.05.2017 23:16 12,6 C 23,3 C 78 % 1015,3 hPa 0,0 l/m 17,0 km/h (3 Bft) W-SW 244 0 min 0,000 mm 0,0 UV-I 0 W/m 8,9 C 7,6 C 24,1 km/h (4 Bft) 98,00 %
19.05.2017 23:18 12,6 C 23,3 C 78 % 1015,3 hPa 0,0 l/m 23,2 km/h (4 Bft) SW 215 0 min 0,000 mm 0,0 UV-I 0 W/m 8,9 C 5,8 C 33,8 km/h (5 Bft) 97,87 %
19.05.2017 23:20 12,6 C 23,3 C 78 % 1015,4 hPa 0,0 l/m 21,8 km/h (4 Bft) W-SW 238 0 min 0,000 mm 0,0 UV-I 0 W/m 8,9 C 6,1 C 35,4 km/h (5 Bft) 98,00 %
19.05.2017 23:22 12,6 C 23,3 C 79 % 1015,3 hPa 0,0 l/m 20,3 km/h (4 Bft) W-NW 288 0 min 0,000 mm 0,0 UV-I 0 W/m 9,1 C 6,6 C 27,4 km/h (4 Bft) 94,00 %
19.05.2017 23:24 12,5 C 23,3 C 79 % 1015,4 hPa 0,0 l/m 17,9 km/h (3 Bft) W 263 0 min 0,000 mm 0,0 UV-I 0 W/m 9,0 C 7,2 C 27,4 km/h (4 Bft) 97,56 %
19.05.2017 23:26 12,5 C 23,3 C 79 % 1015,4 hPa 0,0 l/m 14,9 km/h (3 Bft) W-SW 251 0 min 0,000 mm 0,0 UV-I 0 W/m 9,0 C 8,2 C 27,4 km/h (4 Bft) 97,44 %
19.05.2017 23:28 12,5 C 23,3 C 79 % 1015,4 hPa 0,0 l/m 23,1 km/h (4 Bft) SW 214 0 min 0,000 mm 0,0 UV-I 0 W/m 9,0 C 5,7 C 32,2 km/h (5 Bft) 95,45 %
19.05.2017 23:30 12,5 C 23,3 C 79 % 1015,4 hPa 0,0 l/m 22,5 km/h (4 Bft) W 260 0 min 0,000 mm 0,0 UV-I 0 W/m 9,0 C 5,8 C 32,2 km/h (5 Bft) 98,21 %
19.05.2017 23:32 12,4 C 23,3 C 79 % 1015,4 hPa 0,0 l/m 20,5 km/h (4 Bft) W-SW 249 0 min 0,000 mm 0,0 UV-I 0 W/m 8,9 C 6,2 C 30,6 km/h (5 Bft) 95,74 %
19.05.2017 23:34 12,4 C 23,3 C 79 % 1015,5 hPa 0,0 l/m 21,4 km/h (4 Bft) W 263 0 min 0,000 mm 0,0 UV-I 0 W/m 8,9 C 6,0 C 35,4 km/h (5 Bft) 95,74 %
19.05.2017 23:36 12,4 C 23,3 C 79 % 1015,5 hPa 0,0 l/m 24,2 km/h (4 Bft) W-SW 240 0 min 0,000 mm 0,0 UV-I 0 W/m 8,9 C 5,3 C 40,2 km/h (6 Bft) 98,11 %
19.05.2017 23:38 12,4 C 23,3 C 79 % 1015,4 hPa 0,0 l/m 23,6 km/h (4 Bft) SW 223 0 min 0,000 mm 0,0 UV-I 0 W/m 8,9 C 5,4 C 38,6 km/h (5 Bft) 93,18 %
19.05.2017 23:40 12,3 C 23,3 C 79 % 1015,5 hPa 0,0 l/m 21,2 km/h (4 Bft) SW 236 0 min 0,000 mm 0,0 UV-I 0 W/m 8,8 C 5,9 C 29,0 km/h (5 Bft) 95,12 %
19.05.2017 23:42 12,3 C 23,3 C 79 % 1015,5 hPa 0,0 l/m 23,9 km/h (4 Bft) W 261 0 min 0,000 mm 0,0 UV-I 0 W/m 8,8 C 5,2 C 40,2 km/h (6 Bft) 92,45 %
19.05.2017 23:44 12,3 C 23,3 C 79 % 1015,5 hPa 0,0 l/m 24,1 km/h (4 Bft) W-SW 248 0 min 0,000 mm 0,0 UV-I 0 W/m 8,8 C 5,2 C 41,8 km/h (6 Bft) 96,55 %
19.05.2017 23:46 12,3 C 23,3 C 80 % 1015,5 hPa 0,0 l/m 23,3 km/h (4 Bft) W 267 0 min 0,000 mm 0,0 UV-I 0 W/m 8,9 C 5,4 C 33,8 km/h (5 Bft) 90,77 %
19.05.2017 23:48 12,3 C 23,3 C 80 % 1015,6 hPa 0,0 l/m 16,6 km/h (3 Bft) W-SW 242 0 min 0,000 mm 0,0 UV-I 0 W/m 8,9 C 7,3 C 22,5 km/h (4 Bft) 96,00 %
19.05.2017 23:50 12,3 C 23,3 C 82 % 1015,6 hPa 0,0 l/m 18,0 km/h (3 Bft) S-SW 205 0 min 0,000 mm 0,0 UV-I 0 W/m 9,3 C 6,9 C 25,7 km/h (4 Bft) 97,87 %
19.05.2017 23:52 12,2 C 23,3 C 83 % 1015,7 hPa 0,0 l/m 16,6 km/h (3 Bft) W-SW 240 0 min 0,000 mm 0,0 UV-I 0 W/m 9,4 C 7,2 C 25,7 km/h (4 Bft) 95,45 %
19.05.2017 23:54 12,1 C 23,3 C 84 % 1015,7 hPa 0,0 l/m 17,6 km/h (3 Bft) SW 236 0 min 0,000 mm 0,0 UV-I 0 W/m 9,5 C 6,8 C 30,6 km/h (5 Bft) 97,37 %
19.05.2017 23:56 12,1 C 23,3 C 84 % 1015,8 hPa 0,0 l/m 17,5 km/h (3 Bft) SW 223 0 min 0,000 mm 0,0 UV-I 0 W/m 9,5 C 6,8 C 27,4 km/h (4 Bft) 95,45 %
19.05.2017 23:58 12,0 C 23,3 C 84 % 1015,8 hPa 0,0 l/m 20,2 km/h (4 Bft) W-SW 242 0 min 0,000 mm 0,0 UV-I 0 W/m 9,4 C 5,8 C 27,4 km/h (4 Bft) 94,64 %
_ Min-Zeit 05:44 03:22 16:52 17:54 - 03:34 - - - - - - 23:40 22:20 03:34 06:46
Minimum _ 11,9 C 22,2 C 32 % 1003,0 hPa - 0,0 km/h (0 Bft) - - - - - - 8,8 C 5,0 C 0,0 km/h (0 Bft) 86,00 %
_ Max-Zeit 17:14 16:06 05:46 23:56 00:00 20:10 - - 07:59 14:02 12:36 12:58 12:26 17:22 20:08 00:14
Maximum _ 28,0 C 24,4 C 91 % 1015,8 hPa 0,0 l/m 44,8 km/h
W-SW (6 Bft)
- - 3 min 0,661 mm 6,0 UV-I 915 W/m 15,1 C 27,9 C 72,4 km/h
W (8 Bft)
100,00 %
Durchschnitt _ 19,6 C 23,2 C 64 % 1007,1 hPa #0,0 l/m 10,1 km/h (2 Bft) O-NO - #13:34 h #6,096 mm 3,4 UV-I 505 W/m 12,0 C 18,2 C 16,0 km/h (3 Bft) 96,69 %